[[{"header":{"parameterUnit":"m.s-1","parameterCategory":1,"la1":30.6,"la2":29.2853,"lo1":-89.7004,"lo2":-87.6739,"dy":0.0162,"dx":0.0183,"nx":112,"ny":82,"refTime":"2024-04-20T00:00:00:Z","depth":0,"parameterNumber":2,"parameterNumberName":"U-component_of_WINDS"},"data":[0.0,0.0,0.0,0.0,0.0,0.0,0.0,0.0,0.0,0.0,0.0,0.0,0.0,0.0,0.0,0.0,0.0,0.0,0.0,0.0,0.0,0.0,0.0,0.0,0.0,0.0,0.0,0.0,0.0,0.0,0.0,0.0,0.0,0.0,0.0,0.0,0.0,0.0,0.0,0.0,0.0,0.0,0.0,0.0,0.0,0.0,0.0,0.0,0.0,0.0,0.0,0.0,0.0,0.0,0.0,0.0,0.0,0.0,0.0,0.0,0.0,0.0,0.0,0.0,0.0,0.0,0.0,0.0,0.0,0.0,0.0,0.0,0.0,0.0,0.0,0.0,0.0,0.0,0.0,0.0,0.0,0.0,0.0,0.0,0.0,0.0,0.0,0.0,0.0,0.0,1.9592,2.0398,2.1262,2.1837,2.1995,2.2674,2.2401,2.0804,0.0,0.0,0.0,0.0,0.0,0.0,0.0,0.0,0.0,0.0,0.0,0.0,0.0,0.0,0.0,0.0,0.0,0.0,0.0,0.0,0.0,0.0,0.0,0.0,0.0,0.0,0.0,0.0,0.0,0.0,0.0,0.0,0.0,0.0,0.0,0.0,0.0,0.0,0.0,0.0,0.0,0.0,0.0,0.0,0.0,0.0,0.0,0.0,0.0,0.0,0.0,0.0,0.0,0.0,0.0,0.0,0.0,0.0,0.0,0.0,0.0,0.0,0.0,0.0,0.0,0.0,0.0,0.0,0.0,0.0,0.0,0.0,0.0,0.0,0.0,0.0,0.0,0.0,0.0,0.0,0.0,0.0,0.0,0.0,0.0,0.0,0.0,0.0,0.0,0.0,0.0,0.0,0.0,0.0,0.0,0.0,0.0,0.0,0.0,0.0,0.0,0.0,0.0,0.0,2.026,2.0408,2.1206,2.2037,2.2825,2.3029,2.2674,2.1661,0.0,0.0,0.0,0.0,0.0,0.0,0.0,0.0,0.0,0.0,0.0,0.0,0.0,0.0,0.0,0.0,0.0,0.0,0.0,0.0,0.0,0.0,0.0,0.0,0.0,0.0,0.0,0.0,0.0,0.0,0.0,0.0,0.0,0.0,0.0,0.0,0.0,0.0,0.0,0.0,0.0,0.0,0.0,0.0,0.0,0.0,0.0,0.0,0.0,0.0,0.0,0.0,0.0,0.0,0.0,0.0,0.0,0.0,0.0,0.0,0.0,0.0,0.0,0.0,0.0,0.0,0.0,0.0,0.0,0.0,0.0,0.0,0.0,0.0,0.0,0.0,0.0,0.0,0.0,0.0,0.0,0.0,0.0,0.0,0.0,0.0,0.0,0.0,0.0,0.0,0.0,0.0,0.0,0.0,0.0,0.0,0.0,0.0,0.0,0.0,0.0,0.0,0.0,2.0441,2.0836,2.0386,2.1539,2.2557,2.3056,2.3093,2.2938,2.2538,2.0358,0.0,0.0,0.0,0.0,0.0,0.0,0.0,0.0,0.0,0.0,0.0,0.0,0.0,0.0,0.0,0.0,0.0,0.0,0.0,0.0,0.0,0.0,0.0,0.0,0.0,0.0,0.0,0.0,0.0,0.0,0.0,0.0,0.0,0.0,0.0,0.0,0.0,0.0,0.0,0.0,0.0,0.0,0.0,0.0,0.0,0.0,0.0,0.0,0.0,0.0,0.0,0.0,0.0,0.0,0.0,0.0,0.0,0.0,0.0,0.0,0.0,0.0,0.0,0.0,0.0,0.0,0.0,0.0,0.0,0.0,0.0,0.0,0.0,0.0,0.0,0.0,0.0,0.0,0.0,0.0,0.0,0.0,0.0,0.0,0.0,0.0,0.0,0.0,0.0,0.0,0.0,0.0,0.0,0.0,0.0,0.0,0.0,0.0,0.0,0.0,0.0,0.0,2.0585,2.1197,2.0383,2.1675,2.2713,2.3041,2.3088,2.3079,2.3083,2.0774,0.0,0.0,0.0,0.0,0.0,0.0,0.0,0.0,0.0,0.0,0.0,0.0,0.0,0.0,0.0,0.0,0.0,0.0,0.0,0.0,0.0,0.0,0.0,0.0,0.0,0.0,0.0,0.0,0.0,0.0,0.0,0.0,0.0,0.0,0.0,0.0,0.0,0.0,0.0,0.0,0.0,0.0,0.0,0.0,0.0,0.0,0.0,0.0,0.0,0.0,0.0,0.0,0.0,0.0,0.0,0.0,0.0,0.0,0.0,0.0,0.0,0.0,0.0,0.0,0.0,0.0,0.0,0.0,0.0,0.0,0.0,0.0,0.0,0.0,0.0,0.0,0.0,0.0,0.0,0.0,0.0,0.0,0.0,0.0,0.0,0.0,0.0,0.0,0.0,0.0,0.0,0.0,0.0,0.0,0.0,0.0,0.0,0.0,0.0,0.0,0.0,0.0,2.0964,2.1197,2.0388,2.1132,2.2062,2.2924,2.3004,2.3017,2.3003,2.1367,0.0,0.0,0.0,0.0,0.0,0.0,0.0,0.0,0.0,0.0,0.0,0.0,0.0,0.0,0.0,0.0,0.0,0.0,0.0,0.0,0.0,0.0,0.0,0.0,0.0,0.0,0.0,0.0,0.0,0.0,0.0,0.0,0.0,0.0,0.0,0.0,0.0,0.0,0.0,0.0,0.0,0.0,0.0,0.0,0.0,0.0,0.0,0.0,0.0,0.0,0.0,0.0,0.0,0.0,0.0,0.0,0.0,0.0,0.0,0.0,0.0,0.0,0.0,0.0,0.0,0.0,0.0,0.0,0.0,0.0,0.0,0.0,0.0,0.0,0.0,0.0,0.0,0.0,0.0,0.0,0.0,0.0,0.0,0.0,0.0,0.0,0.0,0.0,0.0,0.0,0.0,0.0,0.0,0.0,0.0,0.0,0.0,0.0,0.0,0.0,0.0,0.0,2.0932,2.107,0.0,2.1043,2.1977,2.292,2.3007,2.3017,2.3057,0.0,0.0,0.0,0.0,0.0,0.0,0.0,0.0,0.0,0.0,0.0,0.0,0.0,0.0,0.0,0.0,0.0,0.0,0.0,0.0,0.0,0.0,0.0,0.0,0.0,0.0,0.0,0.0,0.0,0.0,0.0,0.0,0.0,0.0,0.0,0.0,0.0,0.0,0.0,0.0,0.0,0.0,0.0,0.0,0.0,0.0,0.0,0.0,0.0,0.0,0.0,0.0,0.0,0.0,0.0,0.0,0.0,0.0,0.0,0.0,0.0,0.0,0.0,0.0,0.0,0.0,0.0,0.0,0.0,0.0,0.0,0.0,0.0,0.0,0.0,0.0,0.0,0.0,0.0,0.0,0.0,0.0,0.0,0.0,0.0,0.0,0.0,0.0,0.0,0.0,0.0,0.0,0.0,0.0,0.0,0.0,0.0,0.0,0.0,0.0,0.0,0.0,2.0318,2.0892,2.1023,0.0,2.1031,2.198,2.2888,2.272,2.2731,2.3042,0.0,0.0,0.0,0.0,0.0,0.0,0.0,0.0,0.0,0.0,0.0,0.0,0.0,0.0,0.0,0.0,0.0,0.0,0.0,0.0,0.0,0.0,0.0,0.0,0.0,0.0,0.0,0.0,0.0,0.0,0.0,0.0,0.0,0.0,0.0,0.0,0.0,0.0,0.0,0.0,0.0,0.0,0.0,0.0,0.0,0.0,0.0,0.0,0.0,0.0,0.0,0.0,0.0,0.0,0.0,0.0,0.0,0.0,0.0,0.0,0.0,0.0,0.0,0.0,0.0,0.0,0.0,0.0,0.0,0.0,0.0,0.0,0.0,0.0,0.0,0.0,0.0,0.0,0.0,0.0,0.0,0.0,0.0,0.0,0.0,0.0,0.0,0.0,0.0,0.0,0.0,0.0,0.0,0.0,0.0,0.0,0.0,0.0,0.0,0.0,0.0,0.0,2.0385,2.0875,2.1005,2.028,2.1031,2.1945,2.2832,2.2165,2.2084,0.0,0.0,0.0,0.0,0.0,0.0,0.0,0.0,0.0,0.0,0.0,0.0,0.0,0.0,0.0,0.0,0.0,0.0,0.0,0.0,0.0,0.0,0.0,0.0,0.0,0.0,0.0,0.0,0.0,0.0,0.0,0.0,0.0,0.0,0.0,0.0,0.0,0.0,0.0,0.0,0.0,0.0,0.0,0.0,0.0,0.0,0.0,0.0,0.0,0.0,0.0,0.0,0.0,0.0,0.0,0.0,0.0,0.0,0.0,0.0,0.0,0.0,0.0,0.0,0.0,0.0,0.0,0.0,0.0,0.0,0.0,0.0,0.0,0.0,0.0,0.0,0.0,0.0,0.0,0.0,0.0,0.0,0.0,0.0,0.0,0.0,0.0,0.0,0.0,0.0,0.0,0.0,0.0,0.0,0.0,0.0,0.0,0.0,0.0,0.0,0.0,0.0,0.0,2.0313,2.0391,2.0411,2.0285,2.0558,2.1344,2.2771,2.268,2.294,2.3861,0.0,0.0,0.0,0.0,0.0,0.0,0.0,0.0,0.0,0.0,0.0,0.0,0.0,0.0,0.0,0.0,0.0,0.0,0.0,0.0,0.0,0.0,0.0,0.0,0.0,0.0,0.0,0.0,0.0,0.0,0.0,0.0,0.0,0.0,0.0,0.0,0.0,0.0,0.0,0.0,0.0,0.0,0.0,0.0,0.0,0.0,0.0,0.0,0.0,0.0,0.0,0.0,0.0,0.0,0.0,0.0,0.0,0.0,0.0,0.0,0.0,0.0,0.0,0.0,0.0,0.0,0.0,0.0,0.0,0.0,0.0,0.0,0.0,0.0,0.0,0.0,0.0,0.0,0.0,0.0,0.0,0.0,0.0,0.0,0.0,0.0,0.0,0.0,0.0,0.0,0.0,0.0,0.0,0.0,0.0,0.0,0.0,0.0,0.0,0.0,0.0,0.0,2.0648,2.0346,2.0245,2.0659,2.0502,2.09,2.2265,2.2057,2.2388,2.3668,0.0,0.0,0.0,0.0,0.0,0.0,0.0,0.0,0.0,0.0,0.0,0.0,0.0,0.0,0.0,0.0,0.0,0.0,0.0,0.0,0.0,0.0,0.0,0.0,0.0,0.0,0.0,0.0,0.0,0.0,0.0,0.0,0.0,0.0,0.0,0.0,0.0,0.0,0.0,0.0,0.0,0.0,0.0,0.0,0.0,0.0,0.0,0.0,0.0,0.0,0.0,0.0,0.0,0.0,0.0,0.0,0.0,0.0,0.0,0.0,0.0,0.0,0.0,0.0,0.0,0.0,0.0,0.0,0.0,0.0,0.0,0.0,0.0,0.0,0.0,0.0,0.0,0.0,0.0,0.0,0.0,0.0,0.0,0.0,0.0,0.0,0.0,0.0,0.0,0.0,0.0,0.0,0.0,0.0,0.0,0.0,0.0,0.0,0.0,0.0,0.0,0.0,2.1196,2.0646,2.0483,2.1221,2.0757,2.0715,2.1501,2.0927,2.1235,2.2915,0.0,0.0,0.0,0.0,0.0,0.0,0.0,0.0,0.0,0.0,0.0,0.0,0.0,0.0,0.0,0.0,0.0,0.0,0.0,0.0,0.0,0.0,0.0,0.0,0.0,0.0,0.0,0.0,0.0,0.0,0.0,0.0,0.0,0.0,0.0,0.0,0.0,0.0,0.0,0.0,0.0,0.0,0.0,0.0,0.0,0.0,0.0,0.0,0.0,0.0,0.0,0.0,0.0,0.0,0.0,0.0,0.0,0.0,0.0,0.0,1.6313,0.0,0.0,0.0,0.0,0.0,0.0,0.0,0.0,0.0,0.0,0.0,0.0,0.0,0.0,0.0,0.0,0.0,0.0,0.0,0.0,0.0,0.0,0.0,0.0,0.0,0.0,0.0,0.0,0.0,0.0,0.0,0.0,0.0,0.0,0.0,0.0,0.0,0.0,0.0,0.0,0.0,2.1196,2.1104,2.1061,2.129,2.1214,2.1234,2.1435,2.1847,2.2613,2.376,2.346,0.0,0.0,0.0,0.0,0.0,0.0,0.0,0.0,0.0,0.0,0.0,0.0,0.0,0.0,0.0,0.0,0.0,0.0,0.0,0.0,0.0,0.0,0.0,0.0,0.0,0.0,0.0,0.0,0.0,0.0,0.0,0.0,0.0,0.0,0.0,0.0,0.0,0.0,0.0,0.0,0.0,0.0,0.0,0.0,0.0,0.0,0.0,0.0,0.0,0.0,0.0,0.0,0.0,0.0,0.0,0.0,0.0,0.0,0.0,0.0,1.6227,0.0,0.0,0.0,0.0,0.0,0.0,0.0,0.0,0.0,0.0,0.0,0.0,0.0,0.0,0.0,0.0,0.0,0.0,0.0,0.0,0.0,0.0,0.0,0.0,0.0,0.0,0.0,0.0,0.0,0.0,0.0,0.0,0.0,0.0,0.0,0.0,0.0,0.0,0.0,0.0,2.1392,2.1224,2.1172,2.1626,2.1771,2.1525,2.0785,2.1441,2.2151,2.2756,2.2766,0.0,0.0,0.0,0.0,0.0,0.0,0.0,0.0,0.0,0.0,0.0,0.0,0.0,0.0,0.0,0.0,0.0,0.0,0.0,0.0,0.0,0.0,0.0,0.0,0.0,0.0,0.0,0.0,0.0,0.0,0.0,0.0,0.0,0.0,0.0,0.0,0.0,0.0,0.0,0.0,0.0,0.0,0.0,0.0,0.0,0.0,0.0,0.0,0.0,0.0,0.0,0.0,0.0,1.5856,1.5704,1.5164,1.5431,1.5749,1.6064,1.5234,1.5705,1.6976,1.6244,0.0,0.0,0.0,0.0,0.0,0.0,0.0,0.0,0.0,0.0,0.0,0.0,0.0,0.0,0.0,0.0,0.0,0.0,0.0,0.0,0.0,0.0,0.0,0.0,1.7496,1.7112,1.5821,0.0,0.0,0.0,0.0,0.0,0.0,0.0,0.0,0.0,0.0,0.0,2.144,2.1236,2.1252,2.1962,2.2269,2.1861,2.0475,2.1053,2.158,2.1769,2.1941,2.2038,0.0,0.0,0.0,0.0,0.0,0.0,0.0,0.0,0.0,0.0,0.0,0.0,0.0,0.0,0.0,0.0,0.0,0.0,0.0,0.0,0.0,0.0,0.0,0.0,0.0,0.0,0.0,0.0,0.0,0.0,0.0,0.0,1.4794,1.4978,0.0,0.0,0.0,0.0,0.0,0.0,0.0,0.0,0.0,0.0,0.0,0.0,0.0,1.3414,1.4388,1.3509,1.3686,1.4931,1.3716,1.366,1.4565,1.3693,1.347,1.3714,1.3079,0.0,1.8,1.7782,0.0,0.0,0.0,0.0,0.0,0.0,0.0,0.0,0.0,0.0,0.0,0.0,0.0,0.0,0.0,0.0,0.0,0.0,0.0,0.0,0.0,0.0,1.567,1.6873,1.7074,1.6978,0.0,1.7159,1.7336,1.724,1.7324,0.0,0.0,0.0,0.0,0.0,0.0,0.0,2.067,2.1233,2.1654,2.1824,2.2491,2.2597,2.189,2.2548,2.3105,2.3303,2.4069,2.4278,2.3725,2.3732,0.0,0.0,0.0,0.0,0.0,0.0,0.0,0.0,0.0,0.0,0.0,0.0,0.0,0.0,0.0,0.0,0.0,0.0,0.0,0.0,0.0,0.0,0.0,0.0,0.0,0.0,0.0,0.0,0.0,1.5195,1.5468,1.5002,1.5176,1.5053,0.0,0.0,0.0,0.0,0.0,0.0,0.0,0.0,0.0,1.2803,1.1692,1.1463,1.2208,1.161,1.2209,1.4014,1.3495,1.3954,1.5234,1.5334,1.5376,1.5389,1.5575,1.6101,1.6736,1.5245,1.4452,1.4222,0.0,0.0,0.0,0.0,1.4664,1.4217,1.476,1.4747,1.4481,1.452,0.0,0.0,0.0,0.0,0.0,0.0,0.0,0.0,0.0,0.0,1.611,1.7678,1.7998,1.8078,1.846,1.8651,1.8545,0.0,1.7408,1.7562,1.8683,0.0,0.0,0.0,0.0,1.9297,2.0101,2.0934,2.148,2.1677,2.2777,2.307,2.2025,2.2689,2.3079,2.2825,2.3693,2.3953,2.3351,2.3855,2.3329,0.0,0.0,0.0,0.0,0.0,0.0,0.0,0.0,0.0,0.0,0.0,0.0,0.0,0.0,0.0,0.0,0.0,0.0,0.0,0.0,0.0,0.0,0.0,0.0,0.0,0.0,0.0,0.0,1.5439,1.5357,1.4701,1.4882,1.4641,0.0,0.0,0.0,0.0,0.0,0.0,1.2471,1.2048,1.171,1.1504,1.0699,1.052,1.1023,1.1081,1.1854,1.3356,1.3799,1.4543,1.5491,1.6385,1.67,1.6609,1.7106,1.6486,1.5027,1.363,1.2796,1.2552,1.3707,1.4069,1.4114,1.5528,1.5497,1.4841,1.5695,1.5526,1.4962,1.5035,1.5057,1.498,1.4696,0.0,0.0,0.0,0.0,1.4833,1.5929,1.6201,1.6637,1.8341,1.8766,1.8883,1.932,1.9277,1.8961,0.0,1.7855,1.7858,1.889,0.0,0.0,0.0,0.0,1.8841,1.9554,2.0539,2.1267,2.1552,2.2932,2.3444,2.2446,2.2977,2.3189,2.2791,2.3512,2.3764,2.3391,2.4099,2.3947,2.2728,0.0,0.0,0.0,0.0,0.0,0.0,0.0,0.0,0.0,0.0,0.0,0.0,0.0,0.0,0.0,0.0,0.0,0.0,0.0,0.0,0.0,0.0,0.0,0.0,0.0,0.0,0.0,0.0,0.0,1.386,1.3203,0.0,0.0,0.0,0.0,1.1703,1.0588,0.9756,0.9339,0.9541,0.9745,0.9905,1.1114,1.2003,1.2507,1.3162,1.3424,1.3238,1.4196,1.4617,1.4578,1.5082,1.5384,1.5473,1.511,1.437,1.3458,1.5184,1.51,1.401,1.5012,1.5523,1.5762,1.6486,1.6707,1.6675,1.673,1.6253,1.5695,1.5962,1.5653,1.508,1.4502,1.4576,0.0,0.0,1.4063,1.4681,1.5509,1.5958,1.6608,1.8239,1.866,1.8753,1.8895,1.8368,1.8157,0.0,1.9258,1.9287,1.9286,0.0,1.9091,1.9175,1.896,1.8824,1.8932,2.0216,2.1202,2.1477,2.2829,2.3771,2.3886,2.4042,2.4192,2.4295,2.464,2.4885,2.4981,2.5219,2.5367,2.5403,2.464,0.0,0.0,0.0,0.0,0.0,0.0,0.0,0.0,0.0,0.0,0.0,0.0,0.0,0.0,0.0,0.0,0.0,0.0,0.0,0.0,0.0,0.0,0.0,0.0,0.0,0.0,0.0,0.0,1.2471,1.2075,0.0,1.1366,1.1799,1.1746,1.0879,1.0928,1.0615,0.9726,0.9671,0.9542,0.9183,0.9866,1.0208,1.0166,1.1105,1.2095,1.3103,1.4339,1.5116,1.5437,1.6233,1.6447,1.6177,1.6072,1.571,1.5218,1.5415,1.4319,1.2578,1.3999,1.4733,1.5182,1.6464,1.6758,1.658,1.6879,1.6431,1.5694,1.5714,1.5553,1.5137,1.4151,1.4012,1.4016,1.3235,1.3054,1.3464,1.5091,1.5346,1.5707,1.7847,1.8336,1.8419,1.8825,1.8766,1.8758,1.9162,1.8871,1.8728,1.9206,1.9151,1.9036,1.9075,1.8872,1.8752,1.8825,1.9829,2.0765,2.1367,2.2399,2.3291,2.3881,2.4095,2.4045,2.371,2.4415,2.4701,2.4402,2.5034,2.5176,2.4707,2.4386,2.3653,0.0,0.0,0.0,0.0,0.0,0.0,0.0,0.0,0.0,0.0,0.0,0.0,0.0,0.0,0.0,0.0,0.0,0.0,0.0,0.0,0.0,0.0,0.0,0.0,0.0,0.0,1.1692,1.1318,1.1085,1.0669,0.9946,1.0893,1.1071,1.0012,1.0288,1.0064,0.903,0.8694,0.8311,0.7725,0.8958,0.9361,0.8728,1.0354,1.1586,1.2418,1.3513,1.4198,1.4473,1.5304,1.547,1.5143,1.5621,1.54,1.4713,1.4628,1.3305,1.1543,1.3721,1.4717,1.5138,1.6812,1.7234,1.6949,1.7034,1.649,1.5676,1.5344,1.5215,1.5019,1.4061,1.3926,1.3992,1.3205,1.3103,1.3585,1.5184,1.5512,1.591,1.7759,1.8211,1.8301,1.868,1.8843,1.8949,1.915,1.884,1.8698,1.921,1.9198,1.9084,1.9012,1.8907,1.8838,1.8824,1.9633,2.0517,2.135,2.2204,2.3042,2.3844,2.3914,2.3728,2.3332,2.403,2.4189,2.3601,2.4753,2.4894,2.382,2.4048,2.3353,2.1725,0.0,0.0,0.0,0.0,0.0,0.0,0.0,0.0,0.0,0.0,0.0,0.0,0.0,0.0,0.0,0.0,0.0,0.0,0.0,0.0,0.0,0.0,0.0,1.2641,1.1998,1.1195,1.0467,1.02,0.9623,0.8441,0.9561,0.9983,0.9037,0.8469,0.7809,0.7009,0.6403,0.5922,0.5673,0.8616,0.9677,0.8627,1.1267,1.2119,1.1179,1.1745,1.188,1.1561,1.2066,1.2264,1.2205,1.3417,1.3056,1.1699,1.2904,1.2361,1.1129,1.4336,1.555,1.5737,1.7543,1.8109,1.7868,1.7192,1.6453,1.569,1.4968,1.4763,1.4732,1.4246,1.4438,1.4641,1.3861,1.4328,1.5213,1.5875,1.6575,1.7299,1.8035,1.8322,1.8408,1.8491,1.8508,1.8641,1.9113,1.9308,1.939,1.9314,1.9313,1.9258,1.9051,1.9079,0.0,1.893,1.965,2.0518,2.1389,2.2206,2.3026,2.3886,2.3563,2.3337,2.33,2.3647,2.3511,2.2767,2.4447,2.4644,2.3079,2.384,2.3507,2.1996,0.0,0.0,0.0,0.0,0.0,0.0,0.0,0.0,0.0,0.0,0.0,0.0,0.0,0.0,0.0,0.0,0.0,0.0,0.0,0.0,0.0,1.1065,1.0766,1.1152,1.0785,1.0362,1.0079,1.0018,0.9724,0.8952,0.9294,0.9091,0.8064,0.7524,0.6841,0.5902,0.5466,0.5694,0.675,0.7507,0.8406,0.9403,1.0001,1.0273,1.0208,1.2167,1.2038,1.0143,1.183,1.1955,1.0816,1.0929,1.1371,1.2003,1.2742,1.2399,1.1567,1.2602,1.3277,1.3831,1.5522,1.6576,1.7113,1.6502,1.6013,1.5607,1.5345,1.5091,1.4788,1.4269,1.4552,1.4961,1.4406,1.5021,1.6105,1.7121,1.7407,1.7677,1.8514,1.8592,1.8485,1.851,1.8604,1.8807,1.9064,1.9346,1.9564,1.9577,1.9676,1.9731,1.9663,1.9625,0.0,1.9429,1.9537,1.9955,2.0759,2.1567,2.2356,2.3143,2.3747,2.388,2.3393,2.4138,2.429,2.3609,2.4697,2.4851,2.3829,2.3402,2.2746,0.0,0.0,0.0,0.0,0.0,0.0,0.0,0.0,0.0,0.0,0.0,0.0,0.0,0.0,0.0,0.0,0.0,0.0,0.0,0.0,0.0,0.0,1.0471,1.0253,1.0305,1.0101,0.9919,0.9741,0.9818,0.9442,0.8345,0.8565,0.8189,0.6809,0.6534,0.5913,0.4771,0.3951,0.4195,0.5613,0.5694,0.6268,0.7481,0.7729,0.7644,0.727,0.8593,0.8382,0.6899,0.8167,0.8273,0.7549,0.7731,0.859,0.994,1.0743,1.0612,0.0,0.0,0.0,0.0,0.0,1.6249,1.6642,1.5789,1.4922,1.4124,1.3875,1.3617,1.3382,1.3272,1.3812,1.4437,1.395,1.4746,1.6026,1.7057,1.7475,1.7838,1.8586,1.8628,1.8508,1.855,1.8565,1.8619,1.8843,1.9109,0.0,1.9499,1.9762,1.9907,1.9835,1.9835,1.9769,1.9591,1.9541,1.9818,2.056,2.1094,2.1814,2.292,2.3324,0.0,0.0,0.0,2.4522,2.4533,2.4392,0.0,0.0,0.0,2.3227,2.2739,0.0,0.0,0.0,1.8379,1.7808,0.0,0.0,0.0,0.0,0.0,0.0,0.0,0.0,0.0,0.0,0.0,0.0,0.0,0.0,0.0,0.0,0.9728,1.007,0.9932,0.9831,0.9716,0.9613,0.9742,0.9112,0.7271,0.7648,0.7261,0.5493,0.5392,0.4814,0.351,0.0,0.0,0.0,0.0,0.3725,0.4234,0.4875,0.461,0.339,0.3344,0.3178,0.2889,0.2965,0.3054,0.3187,0.3935,0.4865,0.5955,0.738,0.7633,0.7512,1.2032,1.3099,1.2467,1.5376,1.6478,1.6363,1.5154,0.0,0.0,1.1695,1.1478,1.1522,1.207,1.2945,1.3743,1.3369,1.4353,1.572,1.6545,1.7271,1.79,1.8403,1.8494,1.8492,1.8495,1.8371,1.8301,1.8565,1.8771,1.8993,1.928,1.9682,1.9915,1.9763,1.9835,1.9804,1.9582,1.9636,1.9929,2.0537,0.0,0.0,2.2827,2.2637,2.2798,2.3645,2.3976,2.4514,2.5379,2.4042,2.3614,2.4348,2.4472,2.4491,2.4378,2.4321,2.4264,2.4147,2.1572,2.0892,0.0,0.0,0.0,0.0,0.0,0.0,0.0,0.0,0.0,0.0,0.0,0.0,0.0,0.0,0.0,1.01,0.9426,0.92,0.997,0.9766,0.9716,1.0095,1.0446,0.9842,0.7768,0.7122,0.6135,0.4478,0.3506,0.2597,0.1731,0.0891,0.1233,0.2865,0.1736,0.1773,0.3162,0.2452,0.1915,0.1613,0.0,0.0,0.105,0.1575,0.1072,-0.0256,-0.0377,-0.0207,0.0326,0.2978,0.4759,0.6098,0.9269,1.0692,1.1351,1.4298,1.5743,1.6022,1.4759,1.3946,1.3352,1.2551,1.2319,1.2472,1.323,1.4298,0.0,1.5861,1.6751,1.7683,1.8287,1.8305,1.8164,1.8056,1.8188,1.8273,1.7992,1.8197,1.8508,1.8715,1.8878,1.9079,1.932,1.9645,1.9862,1.993,1.9934,1.9873,1.9823,1.9745,1.9782,1.9951,2.0467,2.0949,2.131,2.2515,2.3375,2.3593,2.4514,2.5159,2.5385,2.5147,2.5111,2.5328,2.5344,2.5371,2.5414,2.4654,2.4548,2.4946,2.2852,2.1901,0.0,0.0,0.0,0.0,0.0,0.0,0.0,0.0,0.0,0.0,0.0,1.0992,1.0794,0.0,0.989,0.9856,0.9466,0.9398,1.0147,0.9983,0.9869,1.007,0.9854,0.8994,0.7172,0.5984,0.4814,0.3688,0.2575,0.165,0.0982,0.0358,0.0575,0.1861,0.0484,0.0439,0.1932,0.0568,-0.0265,-0.0616,-0.0212,-0.0636,-0.1743,-0.1595,-0.1922,-0.2697,-0.2716,-0.2592,-0.2206,-0.0116,0.1432,0.2769,0.5724,0.8548,1.1359,1.4152,1.575,1.6318,1.4978,1.4004,1.328,1.2757,1.2389,1.233,1.3291,1.4011,1.4626,1.5383,1.6286,1.7198,1.7887,1.8079,1.8065,1.7971,1.7983,1.795,1.7786,1.7759,1.7881,1.8348,1.8452,1.8609,1.9107,1.9453,1.9719,1.9955,1.9955,1.9945,1.9941,1.9861,1.9801,1.98,2.0132,2.0538,2.0958,2.2666,2.3904,2.4366,2.5003,2.535,2.5348,2.5472,2.5576,2.5604,2.5639,2.566,2.5654,2.5219,2.5104,2.5286,2.4245,2.3575,0.0,0.0,0.0,0.0,0.0,0.0,0.0,0.0,1.2383,1.1835,1.1323,1.0708,0.9792,0.949,0.9384,0.9369,0.9437,0.9649,1.0046,0.9818,0.9572,0.9487,0.8904,0.7923,0.6455,0.5012,0.3849,0.3092,0.2138,0.1299,0.0626,0.0089,0.0,0.0531,-0.0534,-0.0712,0.0132,-0.1197,-0.218,-0.2711,-0.3447,-0.3959,-0.4293,-0.4881,-0.5032,-0.4843,-0.5137,-0.4994,-0.4476,-0.3747,-0.2832,-0.1597,0.159,0.5503,0.9734,1.3318,1.5272,1.6024,1.5033,1.3929,1.2938,1.2826,1.2459,1.2215,1.303,1.3361,1.3591,1.4178,1.5079,1.6031,1.6684,1.7085,1.7279,1.7253,1.7186,1.7063,1.6911,1.6741,1.6814,1.7534,1.768,1.7948,1.8824,1.9121,1.9388,1.9866,1.9985,2.0004,1.9982,1.993,1.9877,1.9842,1.9884,2.0316,2.1311,2.2634,2.3934,2.5149,2.5178,2.5192,2.5327,2.5488,2.5602,2.56,2.5662,2.5673,2.5624,2.5668,2.5593,2.5427,2.5313,2.5015,1.5212,1.5086,0.0,1.437,1.4108,1.3886,0.0,0.0,1.203,1.2111,1.0942,0.9906,1.0021,0.9504,0.9104,0.9274,0.9019,0.8849,0.8955,0.8331,0.7909,0.7933,0.8258,0.7921,0.6443,0.5135,0.3923,0.2921,0.2051,0.1208,0.0313,-0.0134,-0.0626,-0.1118,-0.1654,-0.2275,-0.2896,-0.3378,-0.3814,-0.4168,-0.4913,-0.5298,-0.5374,-0.6729,-0.728,-0.7245,-0.9418,-0.9962,-0.9366,-1.0131,-0.9207,-0.6922,-0.3101,-0.0044,0.298,0.9711,1.2775,1.3585,1.4156,1.3829,1.3176,1.3157,1.3247,1.3317,1.2981,1.3435,1.4136,1.4195,1.4788,1.5418,1.5564,1.5373,1.5037,1.4619,1.4796,1.4847,1.4114,1.4565,1.5354,1.6094,1.6551,1.7268,1.8681,1.8557,1.8586,1.9588,1.9945,2.0038,1.9941,1.9955,1.9966,1.99,1.9941,2.0649,2.2281,2.196,2.2719,2.5129,2.462,2.4626,2.5449,2.5498,2.5549,2.5593,2.5676,2.5696,2.5684,2.5696,2.5639,2.549,2.5467,2.5245,1.5418,0.0,0.0,0.0,1.4038,1.3556,1.319,1.2349,1.1604,1.1418,1.0883,1.0396,1.021,0.9868,0.9609,0.0,0.9062,0.8723,0.8689,0.793,0.7475,0.7734,0.7686,0.7067,0.5664,0.4904,0.4087,0.2993,0.2343,0.1698,0.0937,0.0536,-0.0089,-0.1074,-0.1477,-0.2103,-0.2998,-0.3653,-0.4216,-0.4648,-0.569,-0.6337,-0.6634,-0.7467,-0.7743,-0.7709,-1.0711,-1.1376,-1.0331,-0.9978,-0.9448,-0.8452,-0.442,-0.1085,0.2166,0.8629,1.1575,1.2579,1.4258,1.4428,1.3972,1.3952,1.3568,1.3214,1.357,1.3253,1.2961,1.4071,1.4282,1.4322,1.4752,1.4649,1.4287,1.3725,1.3577,1.353,1.3346,1.3445,1.3901,1.5087,1.5385,1.59,1.7214,1.7395,1.7557,1.8219,1.8852,1.9456,1.9909,1.9963,1.9952,1.9955,2.0017,2.0563,2.1798,2.2096,2.2882,2.4438,2.4735,2.502,2.5426,2.5478,2.5523,2.5593,2.5675,2.5698,2.5698,2.5703,2.5673,2.5616,2.5586,2.5446,1.5488,0.0,0.0,1.4594,1.3796,1.301,1.2824,1.2133,1.1423,1.1024,1.0944,1.0801,1.0373,1.0148,0.9905,0.9566,0.9107,0.8613,0.8119,0.7603,0.7332,0.7391,0.7297,0.6678,0.5291,0.4942,0.4335,0.3208,0.2679,0.2055,0.1294,0.0938,0.0224,-0.0985,-0.1387,-0.2012,-0.2951,-0.3825,-0.4565,-0.5125,-0.6252,-0.7027,-0.7503,-0.8112,-0.8392,-0.853,-1.1237,-1.1817,-1.0857,-0.9839,-0.956,-0.9392,-0.5715,-0.2672,0.0343,0.5813,0.9181,1.1316,1.3447,1.3938,1.363,1.363,1.3129,1.2633,1.3103,1.2505,1.1963,1.3268,1.3434,1.331,1.3824,1.3636,1.3193,1.2506,1.2107,1.1902,1.1931,1.1924,1.2269,1.3575,1.4088,1.4708,1.5983,1.6363,1.6682,1.7191,1.7686,1.8381,1.9503,1.9801,1.9974,2.0059,2.0088,2.0451,2.1348,2.1825,2.2641,2.3957,2.4445,2.4904,2.5374,2.5456,2.5499,2.5571,2.5643,2.5678,2.5703,2.5698,2.5683,2.5668,2.5613,2.5571,0.0,0.0,1.4006,1.4331,1.3317,1.2328,1.2621,1.2118,1.1534,1.1318,1.1024,1.0729,1.0523,1.011,0.97,0.9365,0.898,0.8226,0.6856,0.7146,0.7222,0.6526,0.7238,0.7151,0.0,0.5417,0.4808,0.347,0.2948,0.2148,0.0984,0.0582,-0.0134,-0.1344,-0.1787,-0.2497,-0.3565,-0.4391,-0.5168,-0.5953,-0.6611,-0.7167,-0.7719,-0.8853,-0.9749,-1.0437,-1.142,-1.1856,-1.1924,-1.1577,-1.1219,-1.068,-0.8084,-0.644,-0.4942,-0.0318,0.4588,0.9233,1.0978,1.1578,1.1469,1.1506,1.1707,1.1729,1.082,1.1075,1.1669,1.1522,1.2093,1.2706,1.2578,1.1877,1.102,1.0359,0.9884,0.9437,0.8848,0.9452,1.0328,1.1145,1.2576,1.4054,1.5381,1.5684,1.6073,1.7051,1.6613,1.6809,1.8522,1.9473,2.0069,2.0269,2.0183,2.0489,2.1411,2.0746,2.137,2.3927,2.3328,2.3634,2.5329,2.539,2.5425,2.5499,2.5571,2.5632,2.569,2.5694,2.5664,2.5609,2.5598,2.5604,0.0,0.0,1.3072,1.3187,1.2682,1.217,1.2347,1.1887,1.1318,1.0879,1.053,1.0313,1.0266,0.9614,0.9041,0.8993,0.8435,0.7679,0.6615,0.6399,0.6097,0.5362,0.5908,0.0,0.0,0.0,0.0,0.3862,0.3595,0.3064,0.2006,0.1027,-0.0045,-0.1164,-0.1743,-0.28,-0.4306,-0.4893,-0.5738,-0.6782,-0.7364,-0.7738,-0.7961,-0.9245,-0.9943,-1.003,-1.0398,-1.1122,-1.1892,-0.9901,-0.9753,-1.058,-0.8075,-0.6513,-0.5358,-0.3398,-0.0561,0.2866,0.6925,0.7786,0.7293,0.8369,0.8834,0.9014,0.9582,0.9564,0.9698,1.1164,1.135,1.1223,1.174,1.1133,1.0244,0.9711,0.9019,0.846,0.8362,0.8593,0.9177,1.0424,1.1359,1.249,1.4182,1.4476,1.495,1.6265,1.6791,1.7452,1.8621,1.9092,1.9577,2.018,2.0235,2.0366,2.0677,2.0974,2.1502,2.2385,2.2673,2.3077,2.3713,2.4257,2.4587,2.4697,2.5282,2.561,2.5625,2.5687,2.5689,2.5662,2.5663,2.5644,0.0,1.2455,1.1637,1.2067,1.1813,1.157,1.2,1.1751,1.125,1.0626,1.0432,1.0353,1.0281,0.9556,0.8958,0.8959,0.8216,0.728,0.6239,0.6077,0.5774,0.4868,0.536,0.5315,0.0,0.0,0.0,0.3865,0.3595,0.3105,0.2138,0.0982,-0.0134,-0.1164,-0.1832,-0.2845,-0.4298,-0.4757,-0.5682,-0.7007,-0.7747,-0.8238,-0.8445,-0.9894,-1.0403,-1.0225,-1.0815,-1.1248,-1.1428,-0.963,-0.9474,-1.0156,-0.8567,-0.7317,-0.6528,-0.6667,-0.5659,-0.3525,0.157,0.3607,0.4051,0.4697,0.569,0.6818,0.764,0.7896,0.8391,1.0396,1.0522,1.0264,1.1073,1.0555,0.9676,0.9041,0.8441,0.7988,0.7977,0.8062,0.8519,0.9768,1.0634,1.1683,1.3251,1.3886,1.4561,1.5564,1.6254,1.7094,1.8267,1.8754,1.922,1.9786,2.0121,2.0328,2.0372,2.0863,2.1307,2.1611,2.2118,2.2566,2.2886,2.3694,2.4181,2.4251,2.5117,2.5579,2.56,2.5675,2.5696,2.5691,2.5702,2.5681,1.2521,1.1137,0.9778,1.0933,1.0751,1.0551,1.1579,1.1645,1.1318,1.0647,1.0736,1.0832,0.0,0.0,0.9295,0.9156,0.8173,0.7004,0.562,0.6064,0.6089,0.0,0.0,0.0,0.0,0.0,0.0,0.3483,0.0,0.2495,0.1471,0.0536,-0.0447,-0.1433,-0.2012,-0.2768,-0.3663,-0.4168,-0.5197,-0.6629,-0.7822,-0.8623,-0.9152,-1.0582,-1.1087,-1.1036,-1.2387,-1.2125,-1.0754,-1.0873,-1.0444,-0.9755,-0.954,-0.9051,-0.8625,-1.01,-1.04,-0.9392,-0.4762,-0.0941,0.1684,0.0639,0.2527,0.5237,0.5114,0.6187,0.7769,0.9239,0.9621,0.9767,1.0522,1.006,0.9234,0.8443,0.8097,0.7852,0.7554,0.7797,0.8301,0.9153,1.0455,1.1706,1.2684,1.3933,1.4859,1.4976,1.5114,1.5801,1.7437,1.8365,1.8956,1.9176,1.9829,2.0314,2.0488,2.0438,2.0751,2.1582,2.1626,2.1983,2.2746,2.3603,2.4087,2.4147,2.4994,2.5496,2.561,2.5662,2.5705,2.5696,2.5702,2.5703,1.0097,0.9131,0.8257,0.886,0.9425,0.9995,1.0575,1.1121,1.1341,1.0841,1.079,1.0809,0.0,0.0,0.0,0.8358,0.7476,0.0,0.5019,0.5082,0.0,0.4085,0.0,0.3997,0.3422,0.3734,0.0,0.0,0.3334,0.3143,0.1993,0.0802,-0.0536,-0.2012,-0.2326,-0.3167,-0.4642,-0.5735,-0.653,-0.6996,-0.7889,-0.8642,-0.9183,-0.9596,-1.0516,-1.178,-1.1462,-1.194,-1.2801,-1.1456,-1.1309,-1.1791,-1.0805,-1.0525,-1.0746,-1.1953,-1.159,-1.0455,-0.9605,-0.7167,-0.4026,-0.1658,0.0916,0.329,0.4388,0.5743,0.721,0.8617,0.9204,0.9588,1.0475,0.9772,0.882,0.8732,0.7981,0.7248,0.7157,0.7373,0.7972,0.9323,1.1403,1.3073,1.3532,1.4323,1.4916,1.5057,1.5236,1.5691,1.6676,1.7101,1.7777,1.9055,1.9371,1.9733,2.0374,2.0464,2.0546,2.0712,2.0731,2.0828,2.1022,2.1836,2.259,2.3295,2.4103,2.4877,2.561,2.5609,2.5654,2.5705,2.5696,2.5702,0.8256,0.7608,0.7055,0.7682,0.8623,0.9508,0.9982,1.0599,1.0996,1.0699,1.0743,0.0,0.0,0.0,0.0,0.0,0.0,0.0,0.46,0.4308,0.4045,0.0,0.3442,0.0,0.3021,0.3072,0.2974,0.0,0.2879,0.2662,0.169,0.067,-0.0492,-0.1878,-0.219,-0.3066,-0.4604,-0.5648,-0.6342,-0.656,-0.764,-0.849,-0.9114,-0.9921,-1.0997,-1.2225,0.0,-1.3036,-1.3658,-1.2696,-1.2462,-1.2551,-1.1633,-1.141,-1.1792,-1.3314,-1.2944,-1.1899,-1.3561,-1.1837,-0.8366,-0.4916,-0.1865,0.0699,0.169,0.3387,0.5407,0.7346,0.8213,0.8755,0.9552,0.903,0.8148,0.7759,0.7017,0.6431,0.6553,0.7007,0.7978,0.9913,1.1941,1.3478,1.3868,1.4462,1.4923,1.5114,1.5259,1.5523,1.5967,1.6383,1.7031,1.8003,1.8757,1.9386,1.9884,2.0273,2.0482,2.0444,2.0424,2.0418,2.0448,2.1185,2.1849,2.2385,2.3198,2.3883,2.4416,2.4801,2.5037,2.5141,2.5484,2.5664,0.6691,0.6311,0.6029,0.7001,0.8004,0.8939,0.9575,1.0195,1.0605,1.0467,0.0,1.1049,1.079,0.9536,0.8345,0.7722,0.0,0.4851,0.4355,0.3792,0.3483,0.3565,0.3173,0.2906,0.3001,0.2831,0.259,0.2401,0.2145,0.1698,0.1119,0.0449,-0.0359,-0.1389,-0.1923,-0.2768,-0.3928,-0.4724,-0.5334,-0.5759,-0.7194,-0.8191,-0.8891,-1.05,-1.1617,-1.2414,-1.4021,-1.4459,-1.4086,-1.4157,-1.3726,-1.2928,-1.2393,-1.2116,-1.2246,-1.3995,-1.3879,-1.3145,-1.5524,-1.4217,-1.104,-0.8372,-0.5106,-0.2184,-0.1643,0.0519,0.3267,0.5578,0.6827,0.7558,0.8159,0.7983,0.7371,0.6345,0.5894,0.5758,0.5966,0.6848,0.8246,1.0379,1.2054,1.329,1.3832,1.4367,1.4833,1.5152,1.5259,1.5326,1.5392,1.6011,1.649,1.6675,1.8006,1.8932,1.91,1.9768,2.0219,2.0321,2.0269,2.0328,2.0488,2.1113,2.1481,2.1591,2.2332,2.2798,2.2914,2.377,2.428,2.4424,2.5233,2.5644,0.4996,0.4947,0.5017,0.6075,0.6998,0.7975,0.9062,1.0056,0.0,0.0,1.1227,1.1566,1.0964,1.0059,0.9046,0.7931,0.0,0.0,0.0,0.0,0.3656,0.0,0.0,0.0,0.0,0.0,0.0,0.0,0.0,0.1612,0.1119,0.0761,-0.0045,-0.1344,-0.2322,-0.2946,-0.3167,-0.4081,-0.4866,-0.5482,-0.6633,-0.7707,-0.8672,-0.9144,-1.0268,-1.1841,-1.2506,0.0,-1.5351,-1.4926,-1.4869,-1.488,-1.3878,-1.318,-1.2774,-1.3218,-1.3122,-1.259,-1.1595,-1.0696,-0.9967,-1.0018,-0.7681,-0.4413,-0.2433,0.0216,0.2751,0.3637,0.5174,0.656,0.6684,0.6804,0.6768,0.6235,0.6127,0.6139,0.602,0.7492,0.8989,0.9629,1.1342,1.2869,1.3397,1.3999,1.4579,1.5118,1.5264,1.5321,1.5389,1.5511,1.588,1.6546,1.693,1.7411,1.8084,1.8312,1.8728,1.9386,1.9406,1.9739,2.0478,2.0568,2.0914,2.1584,2.1758,2.221,2.2978,2.3789,2.4263,2.442,2.5226,2.5645,0.519,0.4919,0.4642,0.4979,0.6089,0.7251,0.7873,0.0,0.0,0.0,1.1043,1.1343,1.0468,0.0,0.0,0.0,0.0,0.0,0.0,0.0,0.0,0.0,0.0,0.0,0.0,0.0,0.0,0.0,0.0,0.1208,0.0447,-0.0089,-0.0716,-0.1389,-0.2144,-0.2677,-0.299,-0.3594,-0.4176,-0.4857,-0.5934,-0.686,-0.7646,-0.8633,-0.9658,-1.0699,-1.1714,-1.2973,-1.435,-1.4405,-1.4697,-1.4971,-1.3924,-1.3389,-1.3228,-1.2813,-1.2387,-1.1959,-1.198,-1.1221,-1.0357,-1.0982,-0.8758,-0.5685,-0.4635,-0.2366,0.0172,0.1556,0.3206,0.4645,0.5033,0.5347,0.5423,0.5085,0.5404,0.5934,0.6554,0.7633,0.8843,1.0079,1.1393,1.2523,1.3232,1.3955,1.4616,1.5072,1.5218,1.528,1.5386,1.5403,1.5552,1.5933,1.6378,1.6826,1.7242,1.81,1.879,1.9182,1.9632,2.0059,2.0439,2.0371,2.0527,2.0932,2.0918,2.1377,2.2268,2.3072,2.3766,2.4365,2.5141,2.5564,0.5537,0.5001,0.4387,0.4322,0.5411,0.6635,0.7066,0.841,0.0,0.0,1.0567,1.0686,0.9655,0.0,0.0,0.0,0.0,0.0,0.0,0.0,0.0,0.0,0.0,0.0,0.0,0.0,0.0,0.0,0.0,0.0493,-0.0403,-0.085,-0.1119,-0.1254,-0.17,-0.2188,-0.2724,-0.304,-0.3524,-0.414,-0.5131,-0.592,-0.6566,-0.7882,-0.8815,-0.9549,-1.077,-1.1844,-1.2798,-1.3368,-1.3884,-1.4246,-1.3346,-1.3145,-1.3304,-1.251,-1.1859,-1.15,-1.2609,-1.1877,-1.0424,-1.0725,-0.9157,-0.709,-0.671,-0.4862,-0.2459,-0.0488,0.1245,0.2632,0.3432,0.3929,0.4274,0.4369,0.4841,0.5564,0.6834,0.7396,0.8229,1.0144,1.1147,1.1967,1.2891,1.3819,1.4541,1.4897,1.5091,1.5245,1.5368,1.5387,1.5403,1.5402,1.5964,1.6352,1.6423,1.7805,1.8737,1.8927,1.9744,2.0277,2.0415,2.0365,2.0308,2.0301,2.0299,2.0723,2.1606,2.2416,2.3322,2.4294,2.5056,2.5499,0.484,0.436,0.3988,0.4789,0.5307,0.6052,0.7712,0.0,0.0,0.9555,0.9855,0.9677,0.8557,0.8079,0.0,0.0,0.0,0.0,0.0,0.0,0.0,0.0,0.0,0.0,0.0,0.0,0.0,0.0,-0.0045,-0.0628,-0.1254,-0.0447,-0.0179,-0.076,-0.1164,-0.1567,-0.1927,-0.237,-0.2901,-0.347,-0.414,-0.4946,-0.5911,-0.6029,-0.7071,-0.8712,-0.8928,-1.003,0.0,-1.2095,-1.2623,-1.3123,-1.2514,-1.2498,-1.2715,-1.2175,-1.1722,-1.1313,-1.064,-0.9684,-0.8676,-0.8435,-0.9014,-0.9466,-0.7321,-0.5439,-0.3753,-0.2344,-0.0466,0.1256,0.194,0.2874,0.4006,0.541,0.5379,0.5271,0.6199,0.6704,0.7309,0.8365,0.9679,1.0986,1.203,1.3137,1.401,1.44,1.4874,1.522,1.5309,1.5369,1.539,1.5404,1.5469,1.5516,1.5516,1.6386,1.727,1.8051,1.8877,1.9667,2.0461,2.0424,2.0353,2.0302,2.0301,2.073,2.1602,2.2473,2.3339,2.4231,2.5098,2.5531,0.6548,0.5175,0.3751,0.3963,0.4694,0.5754,0.7196,0.0,0.908,0.9779,0.9818,0.9345,0.8109,0.7987,0.7706,0.0,0.0,0.0,0.0,0.0,0.0,0.0,0.0,0.0,0.0,0.0,0.0,0.0,-0.0359,-0.0807,-0.1478,-0.0852,-0.0583,-0.0805,-0.1074,-0.1299,-0.1569,-0.1971,-0.237,-0.2765,-0.3341,-0.4035,-0.4768,-0.499,-0.5695,-0.676,-0.7022,-0.7925,0.0,-1.0009,-1.0813,-1.1508,-1.1493,-1.1701,-1.1887,-1.1256,-1.0775,-1.0348,-0.9703,-0.8907,-0.8085,-0.7817,-0.8082,-0.8302,-0.6894,-0.5519,-0.4134,-0.2589,-0.1127,0.019,0.1068,0.2326,0.3787,0.5491,0.5712,0.5875,0.7112,0.7472,0.7885,0.9027,1.0063,1.1118,1.2319,1.3269,1.4058,1.4623,1.4927,1.512,1.528,1.5351,1.539,1.539,1.5407,1.5401,1.5406,1.6205,1.7063,1.7942,1.8761,1.9591,2.0456,2.0408,2.0328,2.0294,2.0299,2.0693,2.1481,2.2447,2.3323,2.4161,2.5039,2.5185,0.8018,0.6501,0.4856,0.4716,0.5349,0.6348,0.0,0.0,0.9331,0.9856,0.9614,0.8915,0.7577,0.7551,0.7356,0.0,0.0,0.4885,0.0,0.0,0.0,0.0,0.0,0.0,0.0,0.0,0.0,0.0,-0.0716,-0.0985,-0.1478,-0.1211,-0.1033,-0.103,-0.094,-0.1074,-0.1389,-0.1703,-0.2016,-0.2324,-0.2771,-0.3303,-0.3917,-0.426,-0.4691,-0.5206,-0.5669,-0.6226,0.0,-0.788,-0.8754,-0.9495,-0.9689,-1.018,-1.0677,-1.0068,-0.9611,-0.9261,-0.8897,-0.8209,-0.7489,-0.7273,-0.7147,-0.6972,-0.6058,-0.5277,-0.4333,-0.2674,-0.1106,0.0257,0.1196,0.2619,0.4194,0.5678,0.6136,0.6554,0.7742,0.7876,0.8094,0.9289,1.0065,1.0956,1.2313,1.3174,1.3912,1.4569,1.4849,1.5062,1.5213,1.5328,1.5391,1.5407,1.541,1.539,1.5408,1.6191,1.7069,1.7947,1.8753,1.9587,2.0461,2.0399,2.0341,2.0339,2.0306,2.0681,2.1462,2.2161,2.3068,2.4111,2.4731,2.4852,0.8796,0.8122,0.7704,0.7911,0.7803,0.8077,0.0,0.0,0.9843,0.964,0.908,0.8182,0.6773,0.6496,0.6226,0.5285,0.0,0.0,0.0,0.0,0.0,0.0,0.0,0.0,0.0,0.0,0.0,-0.1077,-0.1299,0.0,-0.1299,-0.1344,-0.1344,-0.1299,-0.076,-0.076,-0.1299,-0.1523,-0.1835,-0.2324,-0.246,-0.2815,-0.3398,-0.3748,-0.4092,-0.443,-0.5043,-0.526,0.0,-0.5797,-0.6446,-0.7026,-0.6873,-0.7725,-0.8967,-0.8407,-0.8183,-0.8099,-0.7951,-0.7392,-0.6683,-0.6562,-0.6392,-0.6007,-0.4961,-0.4765,-0.4571,-0.2945,-0.0542,0.1742,0.2501,0.3965,0.5455,0.6209,0.6703,0.7152,0.7685,0.7482,0.7482,0.8431,0.9162,1.0102,1.1647,1.2626,1.3407,1.4018,1.4625,1.5018,1.5081,1.5282,1.5409,1.539,1.5402,1.5391,1.5402,1.6208,1.707,1.7949,1.8761,1.9597,2.0467,2.0424,2.0404,2.041,2.0321,2.072,2.1606,2.161,2.2477,2.4094,2.4116,2.457,0.9722,0.8561,0.7471,0.8229,0.8218,0.8376,0.9579,0.0,0.9805,0.9919,0.9038,0.798,0.7029,0.6999,0.6608,0.5076,0.4659,0.0,0.0,0.0,0.0,0.0,0.0,0.0,0.0,0.0,0.0,-0.1486,-0.1566,-0.1743,-0.1967,-0.1607,-0.1518,-0.1832,-0.1698,-0.1743,-0.2103,-0.2368,-0.2413,-0.2324,-0.2549,-0.2729,-0.2909,-0.317,-0.3435,-0.3744,-0.3921,-0.4092,-0.4268,-0.4387,-0.4718,-0.5159,-0.5412,-0.5979,-0.6693,-0.698,-0.7204,-0.7346,-0.7198,-0.7006,-0.6781,-0.6301,-0.6007,-0.5712,-0.4836,-0.443,-0.3691,-0.1231,0.0704,0.2205,0.3096,0.3774,0.4607,0.6285,0.6678,0.7052,0.8524,0.8788,0.8955,0.9626,1.0481,1.1373,1.2219,1.2956,1.3604,1.421,1.4575,1.4851,1.5006,1.5202,1.5342,1.5404,1.539,1.5404,1.5404,1.566,1.6189,1.7069,1.7861,1.8693,1.9575,2.0128,2.0383,2.0321,2.0308,2.0385,2.0591,2.1212,2.2111,2.3204,2.2654,2.3163,0.0,0.9522,0.8739,0.9363,0.9228,0.0,0.0,0.0,0.9779,0.9221,0.8328,0.7299,0.6273,0.6161,0.5914,0.4953,0.4593,0.0,0.0,0.0,0.0,0.0,0.0,0.0,0.0,0.0,-0.2147,-0.1938,-0.2235,-0.2455,-0.2546,-0.2361,-0.2406,-0.2765,-0.2499,-0.2499,-0.2854,-0.3075,-0.3031,-0.281,-0.299,-0.304,-0.3043,-0.3173,-0.3306,-0.3398,-0.3483,-0.3524,0.0,-0.3439,-0.352,-0.3734,-0.4022,-0.4452,-0.4947,-0.5429,-0.5788,-0.6076,-0.5985,-0.5996,-0.6002,-0.5701,-0.5404,-0.4927,-0.4085,-0.3336,-0.2345,0.004,0.1464,0.257,0.3756,0.4428,0.5215,0.6792,0.7454,0.8006,0.9123,0.9584,0.9881,1.0307,1.1088,1.1881,1.2539,1.311,1.3698,1.4314,1.459,1.4808,1.4974,1.5173,1.5332,1.5391,1.5408,1.5391,1.541,1.5407,1.5777,1.664,1.7475,1.8319,1.9161,2.0005,2.0399,2.0346,2.0314,2.0269,2.018,2.1079,2.1779,2.2268,2.2037,2.2652,0.0,1.0769,1.1056,1.1015,1.0612,1.0282,1.0705,0.0,0.0,0.7887,0.7139,0.6377,0.4954,0.4498,0.4459,0.4749,0.0,0.0,0.0,0.0,0.0,0.0,0.0,0.0,0.0,0.0,-0.2334,-0.2521,-0.3084,-0.3306,-0.3034,-0.3388,-0.37,-0.3924,-0.3208,-0.3073,-0.3514,-0.3649,-0.3741,-0.3788,-0.3697,-0.3656,-0.367,-0.3622,-0.3578,0.0,-0.3646,-0.3422,-0.2943,-0.2901,-0.2812,-0.2729,-0.2812,-0.3158,-0.3595,-0.373,-0.4077,-0.4465,-0.4434,-0.4482,-0.4526,-0.4757,-0.4403,-0.3686,-0.2711,-0.1774,-0.0747,0.0753,0.1853,0.2901,0.4399,0.5647,0.6724,0.7578,0.8677,0.956,0.952,0.9881,1.0294,1.0586,1.1142,1.1845,1.2614,1.3193,1.3739,1.4307,1.4621,1.4835,1.4992,1.5178,1.532,1.5385,1.5395,1.5406,1.5406,1.539,1.574,1.6562,1.7421,1.8275,1.9077,1.9935,2.0405,2.0395,2.0334,2.0294,2.0289,2.102,2.135,2.1291,2.1986,2.2737,0.9767,0.0,1.0612,1.1097,1.0612,1.0021,0.0,0.0,0.0,0.0,0.0,0.6734,0.5709,0.518,0.4697,0.409,0.0,0.0,0.0,0.0,0.0,0.0,0.0,0.0,0.0,0.0,-0.3298,-0.2912,-0.3344,-0.3524,-0.3306,-0.366,-0.3924,-0.4188,-0.4272,-0.4355,-0.4491,-0.4744,-0.4787,-0.4539,-0.4399,-0.4268,-0.4144,-0.402,-0.3928,-0.3788,-0.3701,-0.3591,-0.3388,-0.3067,-0.2827,-0.2684,-0.2502,-0.2455,-0.2495,-0.2758,-0.2973,-0.3143,-0.3011,-0.3143,-0.3406,-0.346,-0.275,-0.1816,-0.1418,-0.1059,-0.0521,0.0748,0.21,0.3384,0.4513,0.5248,0.5968,0.7152,0.7836,0.847,0.9317,1.0057,1.0833,1.1713,1.2198,1.266,1.3227,1.363,1.3991,1.4293,1.4523,1.4701,1.4909,1.5108,1.525,1.5323,1.5371,1.5394,1.5397,1.5397,1.5487,1.5699,1.6517,1.7365,1.8173,1.9032,1.9795,2.038,2.0282,2.0167,2.0079,2.0169,2.0191,2.0183,2.0304,2.0833,0.9147,0.9387,0.9762,0.9917,0.9557,0.9073,0.8754,0.0,0.0,0.0,0.0,0.0,0.5006,0.4147,0.0,0.0,0.0,0.0,0.0,0.0,0.0,0.0,0.0,0.0,0.0,0.0,-0.3632,-0.3527,-0.3873,-0.4012,-0.3928,-0.4144,-0.4401,-0.4574,-0.4851,-0.5019,-0.5019,-0.5318,-0.541,-0.5198,-0.514,-0.4918,-0.4618,-0.4408,-0.4232,-0.4092,-0.3833,-0.3687,-0.3561,-0.2989,-0.2668,-0.2504,-0.2192,-0.1925,-0.1743,-0.1921,-0.1962,-0.1958,-0.182,-0.1905,-0.2079,-0.1862,-0.1465,-0.0933,-0.0266,0.0,0.0353,0.1311,0.2617,0.3926,0.4975,0.5777,0.6627,0.7875,0.8574,0.9157,0.9931,1.0607,1.132,1.2169,1.2614,1.3,1.341,1.383,1.4154,1.4356,1.4598,1.4803,1.4976,1.5101,1.5226,1.5283,1.5322,1.5368,1.5402,1.5409,1.5568,1.5976,1.6809,1.7671,1.852,1.9344,1.9938,2.0263,2.0164,2.0041,1.9862,1.9769,1.972,1.9726,2.0012,2.0455,0.8452,0.8502,0.8486,0.8233,0.7983,0.7711,0.7328,0.0,0.0,0.0,0.0,0.0,0.0,0.0,0.0,0.0,0.0,0.0,0.0,0.0,0.0,0.0,0.0,0.0,-0.3764,-0.371,-0.3785,-0.4188,-0.4521,-0.4675,-0.4675,-0.4879,-0.5015,-0.5096,-0.5316,-0.5422,-0.5422,-0.5652,-0.5766,-0.5809,-0.575,-0.548,-0.5048,-0.4705,-0.4447,-0.422,0.0,0.0,-0.351,-0.2814,-0.2452,-0.2235,-0.1882,-0.1524,-0.1208,-0.1254,-0.1075,-0.0806,-0.0624,-0.0622,-0.0621,-0.0267,-0.0267,-0.0222,0.0843,0.1332,0.1679,0.2347,0.3296,0.4347,0.5352,0.6443,0.7569,0.8767,0.961,1.0259,1.0634,1.113,1.1688,1.234,1.2706,1.3037,1.3506,1.3941,1.4277,1.4478,1.4719,1.4925,1.5071,1.5151,1.5231,1.5287,1.5315,1.5339,1.5399,1.5527,1.591,1.6646,1.7393,1.8254,1.9232,2.0049,2.036,2.0131,2.0031,1.9869,1.9682,1.9591,1.9611,1.969,2.0326,2.0733,0.7364,0.6943,0.6691,0.6984,0.6529,0.5921,0.5625,0.0,0.0,0.0,0.0,0.0,0.0,0.0,0.0,0.0,0.0,0.0,0.0,0.0,0.0,0.0,0.0,0.0,-0.3866,-0.4322,-0.4609,-0.467,-0.5181,-0.5515,-0.5515,-0.5783,-0.5947,-0.609,-0.5903,-0.5869,-0.605,-0.599,-0.6067,-0.6282,-0.5895,-0.5539,-0.5221,-0.4666,-0.4276,-0.3917,0.0,-0.3128,-0.3202,-0.2557,-0.219,-0.2099,-0.1746,-0.1299,-0.076,-0.0626,-0.0224,0.0314,0.0851,0.1116,0.1158,0.1158,0.1426,0.1917,0.2352,0.2976,0.3561,0.3934,0.4093,0.42,0.465,0.5766,0.7017,0.8166,0.8993,0.9677,1.0181,1.0922,1.1753,1.2587,1.2773,1.3058,1.3881,1.4167,1.435,1.4552,1.4719,1.4865,1.5008,1.512,1.5231,1.5298,1.5345,1.5393,1.5396,1.6072,1.6568,1.6688,1.6826,1.7608,1.9149,1.9923,2.028,2.0183,1.9945,1.9717,1.9526,1.9456,1.9625,2.0028,2.0209,2.068,0.6975,0.6275,0.5622,0.5404,0.4958,0.4428,0.3861,0.0,0.0,0.0,0.0,0.0,0.0,0.0,0.0,0.0,0.0,0.0,0.0,0.0,0.0,0.0,0.0,-0.4069,-0.4496,-0.4717,-0.4979,-0.545,-0.5647,-0.5846,-0.6202,-0.6224,-0.6185,-0.6185,-0.6049,-0.6019,-0.5973,-0.5881,-0.6024,-0.6416,-0.6024,-0.5626,-0.5183,-0.4622,-0.4104,-0.3565,0.0,-0.2565,-0.262,-0.1614,-0.12,-0.1204,-0.0849,-0.0268,0.0491,0.0804,0.1163,0.1523,0.2057,0.2275,0.2406,0.2758,0.302,0.3325,0.4057,0.4708,0.5229,0.5433,0.5037,0.4728,0.5429,0.6229,0.7256,0.8771,0.931,0.9702,1.0467,1.1043,1.1586,1.2226,1.2606,1.3004,1.3659,1.4015,1.4282,1.4519,1.4681,1.4856,1.4973,1.5088,1.5168,1.5236,1.5311,1.5368,1.5393,1.5777,1.6607,1.8022,1.8094,1.8598,1.9686,2.0064,2.0137,1.9887,1.9741,1.9553,1.9268,1.9214,1.9284,1.9471,2.0445,2.0898,0.6551,0.5712,0.4714,0.3985,0.0,0.3289,0.2505,0.0,0.0,0.0,0.0,0.0,0.0,0.0,0.0,0.0,0.0,0.0,0.0,0.0,0.0,0.0,0.0,-0.426,-0.4916,-0.5006,-0.5291,-0.5968,-0.5986,-0.6213,-0.6732,-0.6619,-0.6452,-0.6292,-0.6166,-0.6017,-0.5784,-0.5642,-0.5847,-0.6367,-0.5976,-0.5539,-0.5009,-0.4447,-0.3744,-0.2937,-0.2107,-0.1769,-0.1685,-0.0515,-0.0086,-0.0178,0.0179,0.0759,0.1428,0.1964,0.2275,0.2455,0.2854,0.3208,0.3598,0.4168,0.4378,0.4578,0.5652,0.6241,0.6565,0.6713,0.6172,0.5642,0.616,0.6782,0.7658,0.9147,0.9566,0.988,1.0818,1.1122,1.1371,1.1854,1.2333,1.2822,1.3393,1.3813,1.4203,1.4666,1.4887,1.5057,1.5201,1.5282,1.5304,1.5207,1.527,1.5396,1.5653,1.5472,1.6461,1.9063,1.9227,1.9519,2.016,2.0139,1.9974,1.9669,1.9572,1.938,1.9099,1.9017,1.9039,1.9165,2.0677,2.1205,0.5696,0.4771,0.3827,0.3086,0.2896,0.0,0.194,0.1571,0.0,0.0,0.0,0.0,0.0,0.0,0.0,0.0,0.0,0.0,0.0,0.0,0.0,0.0,-0.4511,-0.4811,-0.4739,-0.5278,-0.5641,-0.5703,-0.6428,-0.6833,-0.6901,-0.7076,-0.7101,-0.6827,-0.6444,-0.6062,-0.5819,-0.5355,-0.5491,-0.6227,-0.5583,-0.5096,-0.4783,-0.3997,-0.2934,-0.1687,-0.1067,-0.0578,-0.0133,0.0532,0.0755,0.0668,0.1115,0.1295,0.1432,0.2319,0.2713,0.2796,0.3075,0.3953,0.4986,0.5153,0.5492,0.6004,0.6758,0.7086,0.7293,0.7604,0.7444,0.6902,0.5939,0.6714,0.7887,0.8474,0.9112,0.9877,1.0884,1.1048,1.1173,1.17,1.1994,1.2438,1.3344,1.3741,1.4268,1.5284,1.5488,1.5648,1.5897,1.5989,1.5825,1.5254,1.526,1.564,1.6437,1.5729,1.6306,1.8852,1.8949,1.9314,2.0166,1.996,1.9845,1.9866,1.9518,1.9243,1.9099,1.9017,1.9291,1.9852,2.0655,2.1465,0.5585,0.4625,0.3681,0.3323,0.0,0.0,0.0,0.0,0.0,0.0,0.0,0.0,0.0,0.0,0.0,0.0,0.0,0.0,0.0,0.0,0.0,-0.4113,-0.4306,-0.455,-0.4987,-0.537,-0.5707,-0.5997,-0.6497,-0.6897,-0.7261,-0.7001,-0.6696,-0.6395,-0.609,-0.5577,-0.4938,-0.4825,-0.4923,-0.5183,-0.484,-0.4487,-0.4216,-0.2917,-0.2003,-0.1336,0.0091,0.0775,0.089,0.1784,0.2142,0.2226,0.2973,0.3067,0.2851,0.3683,0.3774,0.3514,0.3822,0.4308,0.4792,0.5265,0.5728,0.6313,0.7328,0.8031,0.861,0.9244,0.9403,0.9219,0.8322,0.794,0.8169,0.9691,0.9954,1.0008,1.056,1.0868,1.1254,1.1919,1.2381,1.302,1.4123,1.4222,1.4331,1.4854,1.5074,1.5292,1.5631,1.5778,1.5807,1.5708,1.5389,1.5289,1.5528,1.5605,1.6276,1.7782,1.8018,1.8639,1.9841,1.9797,1.9628,1.9409,1.9196,1.9069,1.8966,1.8914,1.8967,1.9177,2.0,2.0784,0.5145,0.4172,0.313,0.0,0.0,0.0,0.0,0.0,0.0,0.0,0.0,0.0,0.0,0.0,0.0,0.0,0.0,0.0,0.0,0.0,-0.3844,-0.4252,-0.4268,-0.4494,-0.5033,-0.5377,-0.5671,-0.5975,-0.6307,-0.6644,-0.6966,-0.6571,-0.6159,-0.5798,-0.549,-0.5005,-0.4227,-0.4164,-0.4089,-0.3997,-0.3693,-0.3602,-0.3561,-0.2242,-0.1233,-0.0445,0.0871,0.16,0.1962,0.2593,0.2996,0.3252,0.3913,0.3869,0.3565,0.426,0.4264,0.4005,0.4264,0.4705,0.5231,0.5782,0.6368,0.7036,0.8203,0.8999,0.9616,1.0147,1.0472,1.0579,1.0214,0.9291,0.8854,1.0681,1.0522,1.0173,1.086,1.1261,1.1556,1.1765,1.2606,1.3398,1.375,1.3962,1.4172,1.4413,1.459,1.4837,1.5221,1.541,1.552,1.5504,1.512,1.482,1.473,1.5179,1.5921,1.7023,1.7265,1.8041,1.9507,1.9492,1.9324,1.9051,1.886,1.877,1.8752,1.8658,1.8584,1.8584,1.9477,2.0256,0.4276,0.3177,0.0,0.0,0.0,0.0,0.0,0.0,0.0,0.0,0.0,0.0,0.0,0.0,0.0,0.0,0.0,0.0,0.0,0.0,-0.4341,-0.4477,-0.4561,-0.4661,-0.4801,-0.5345,-0.5662,-0.5482,-0.5868,-0.6056,-0.5906,-0.5828,-0.5573,-0.5084,-0.4754,-0.4334,-0.3792,-0.3375,-0.3034,-0.2674,-0.2233,-0.2322,-0.2943,-0.2142,-0.0667,0.1198,0.1162,0.1923,0.3173,0.2865,0.3084,0.3609,0.37,0.3524,0.3258,0.3748,0.4001,0.4117,0.4268,0.527,0.6562,0.6875,0.7543,0.8423,0.946,0.9952,1.0127,1.0118,1.0308,1.0652,1.1163,1.0513,1.0011,1.1127,1.064,1.0367,1.1948,1.2367,1.2115,1.1107,1.2546,1.3443,1.1991,1.278,1.373,1.4054,1.4193,1.4414,1.4742,1.4978,1.4932,1.4441,1.4386,1.4382,1.4316,1.4441,1.5159,1.6702,1.688,1.7629,1.9221,1.9043,1.8893,1.8893,1.8497,1.8321,1.8395,1.8252,1.8229,1.8328,1.9192,2.0,0.361,0.0,0.0,0.0,0.0,0.0,0.0,0.0,0.0,0.0,0.0,0.0,0.0,0.0,0.0,0.0,0.0,0.0,0.0,-0.4025,-0.3935,-0.4304,-0.4216,-0.4272,-0.4757,-0.5029,-0.5153,-0.5009,-0.5318,-0.5535,-0.5488,-0.5106,-0.484,-0.4692,-0.4175,-0.3688,-0.3225,-0.2998,-0.2701,-0.2333,-0.1774,-0.1563,-0.1604,-0.0459,0.0549,0.1337,0.2301,0.2938,0.3404,0.3907,0.4111,0.4152,0.4685,0.4705,0.4543,0.4975,0.4975,0.4757,0.4932,0.562,0.6422,0.6729,0.7597,0.8594,0.9124,0.9875,1.0542,1.0677,1.1074,1.1559,1.2175,1.1676,1.1224,1.2222,1.216,1.198,1.2359,1.2581,1.2729,1.2927,1.3555,1.4089,1.416,1.4116,1.4186,1.4489,1.4147,1.3939,1.4145,1.4638,1.4674,1.3975,1.3997,1.4275,1.4834,1.4906,1.5615,1.7257,1.7284,1.7851,1.9175,1.8929,1.8699,1.8626,1.8356,1.8232,1.8252,1.817,1.8249,1.8463,1.915,1.9851,0.2902,0.0,0.0,0.0,0.0,0.0,0.0,0.0,0.0,0.0,0.0,0.0,0.0,0.0,0.0,0.0,0.0,0.0,0.0,-0.4223,-0.4092,-0.4364,-0.4188,-0.4232,-0.4666,-0.4777,-0.4752,-0.4616,-0.4843,-0.4911,-0.4811,-0.4431,-0.4239,-0.4125,-0.3576,-0.3059,-0.2656,-0.2373,-0.1961,-0.1459,-0.0911,-0.0422,0.0091,0.0599,0.1233,0.2006,0.3251,0.369,0.3576,0.4307,0.4567,0.4525,0.4914,0.5069,0.5077,0.538,0.5399,0.5295,0.5556,0.6044,0.6628,0.7029,0.7728,0.8561,0.9124,0.9758,1.034,1.0667,1.1169,1.1726,1.221,1.2224,1.2314,1.2974,1.272,1.2379,1.268,1.2923,1.3079,1.3058,1.3708,1.4209,1.3905,1.3794,1.3828,1.4097,1.4061,1.4078,1.423,1.4673,1.4675,1.4054,1.4308,1.4633,1.4877,1.5023,1.5806,1.7469,1.7239,1.7663,1.9031,1.8699,1.8454,1.8371,1.8163,1.8078,1.8121,1.7958,1.8061,1.8342,1.8689,1.9223,0.0,0.0,0.0,0.0,0.0,0.0,0.0,0.0,0.0,0.0,0.0,0.0,0.0,0.0,0.0,0.0,0.0,0.0,0.0,-0.478,-0.4552,-0.4499,-0.438,-0.4376,-0.4618,-0.4574,-0.4443,-0.4272,-0.4306,-0.4217,-0.3939,-0.3827,-0.3642,-0.3425,-0.2947,-0.2458,-0.2044,-0.1581,-0.0977,-0.0201,0.0244,0.0958,0.1954,0.1196,0.1666,0.309,0.4056,0.4239,0.3882,0.4369,0.4705,0.4892,0.4807,0.4929,0.5228,0.5286,0.5545,0.5881,0.6192,0.6685,0.7188,0.7677,0.8077,0.8504,0.9381,0.9697,0.9855,1.0302,1.0867,1.1356,1.1579,1.2294,1.3057,1.331,1.2622,1.2118,1.2979,1.3361,1.3228,1.2216,1.3367,1.3946,1.2174,1.2424,1.2981,1.3216,1.3985,1.4554,1.4674,1.4853,1.4812,1.4383,1.4958,1.517,1.4639,1.4981,1.586,1.7418,1.7003,1.7369,1.8859,1.8471,1.8243,1.8232,1.7983,1.79,1.8005,1.7749,1.7811,1.8113,1.8095,1.8438,0.0,0.0,0.0,0.0,0.0,0.0,0.0,0.0,0.0,0.0,0.0,0.0,0.0,0.0,0.0,0.0,0.0,0.0,0.0,-0.4903,-0.4521,-0.4596,-0.4394,-0.4426,-0.4727,-0.418,-0.3829,-0.3832,-0.3471,-0.3269,-0.3275,-0.2968,-0.278,-0.2805,-0.2062,-0.1583,-0.1379,-0.0554,0.0051,0.0403,0.108,0.1839,0.258,0.2268,0.2843,0.4184,0.4807,0.5124,0.5148,0.5686,0.5813,0.5693,0.6002,0.6036,0.5997,0.624,0.6504,0.6836,0.7132,0.7563,0.8135,0.8688,0.913,0.95,0.9804,1.0341,1.0829,1.0677,1.1019,1.1553,1.1884,1.2029,1.2162,1.2413,1.2939,1.3454,1.3559,1.3735,1.3695,1.3042,1.3395,1.3519,1.2599,1.266,1.2851,1.2883,1.3926,1.4494,1.3985,1.4397,1.4491,1.399,1.4199,1.4481,1.4657,1.547,1.6443,1.7592,1.802,1.8483,1.9017,1.8658,1.8426,1.8443,1.8266,1.8163,1.807,1.8009,1.8048,1.819,1.854,1.8846,0.0,0.0,0.0,0.0,0.0,0.0,0.0,0.0,0.0,0.0,0.0,0.0,0.0,0.0,0.0,0.0,0.0,0.0,0.0,-0.5259,-0.483,-0.4626,-0.4487,-0.4422,-0.4548,-0.4144,-0.3788,-0.37,-0.3414,-0.3089,-0.2814,-0.2539,-0.2238,-0.1949,-0.1357,-0.0839,-0.0452,0.0209,0.079,0.1293,0.1894,0.2624,0.3499,0.3491,0.3968,0.4805,0.545,0.5898,0.6164,0.6679,0.6789,0.6662,0.6833,0.6834,0.673,0.7046,0.7303,0.7589,0.8111,0.8382,0.8596,0.9117,0.934,0.9408,0.9607,0.9991,1.0408,1.0495,1.0867,1.1356,1.1847,1.2029,1.2138,1.2282,1.2779,1.3173,1.3091,1.3195,1.3216,1.3,1.3057,1.3057,1.2743,1.3148,1.3439,1.3291,1.435,1.4972,1.4532,1.5062,1.5328,1.4935,1.5402,1.5741,1.581,1.6413,1.7188,1.8164,1.8286,1.8372,1.8473,1.8592,1.86,1.8505,1.8325,1.8201,1.8113,1.7988,1.8005,1.8126,1.8314,1.8455,0.0,0.0,0.0,0.0,0.0,0.0,0.0,0.0,0.0,0.0,0.0,0.0,0.0,0.0,0.0,0.0,0.0,0.0,0.0,-0.5474,-0.5062,-0.4578,-0.4481,-0.4401,-0.4276,-0.406,-0.384,-0.3612,-0.3442,-0.3043,-0.237,-0.2162,-0.1784,-0.1082,-0.0644,-0.0103,0.0575,0.1011,0.1551,0.223,0.2828,0.3579,0.4478,0.4711,0.5002,0.5251,0.5937,0.6552,0.7058,0.7522,0.7684,0.7617,0.7617,0.7534,0.7419,0.7778,0.8065,0.829,0.8976,0.9061,0.8996,0.9336,0.9249,0.9127,0.9434,0.9572,0.9774,1.0371,1.0787,1.118,1.1675,1.2041,1.233,1.2401,1.2401,1.2365,1.2449,1.2556,1.2579,1.2591,1.2591,1.2591,1.2662,1.3462,1.4044,1.3815,1.48,1.5492,1.536,1.5994,1.6338,1.6131,1.6845,1.7204,1.6866,1.7184,1.7737,1.852,1.823,1.8007,1.7974,1.8485,1.8676,1.8485,1.8339,1.8215,1.8113,1.79,1.7856,1.7939,1.7816,1.7794,0.0,0.0,0.0,0.0,0.0,0.0,0.0,0.0,0.0,0.0,0.0,0.0,0.0,0.0,0.0,0.0,0.0,0.0,0.0,-0.5093,-0.472,-0.438,-0.4319,-0.426,-0.4148,-0.3653,-0.3306,-0.3258,-0.2732,-0.2199,-0.1748,-0.139,-0.0978,-0.0542,0.0251,0.0823,0.1161,0.2124,0.2789,0.3134,0.426,0.4922,0.519,0.5873,0.6044,0.5821,0.6246,0.7006,0.7867,0.8112,0.8319,0.8462,0.8567,0.839,0.8115,0.8403,0.8704,0.9092,0.943,0.9707,0.9874,0.9706,0.9672,0.9749,1.0229,1.0264,1.0352,1.1205,1.1404,1.1421,1.1645,1.1808,1.1932,1.2113,1.2174,1.2318,1.2662,1.2885,1.2838,1.2294,1.2102,1.2066,1.2174,1.302,1.3729,1.3782,1.4676,1.5404,1.5623,1.6188,1.6467,1.6216,1.6503,1.6563,1.618,1.6905,1.7453,1.7577,1.8217,1.8574,1.8592,1.8604,1.8559,1.8406,1.85,1.8438,1.819,1.7932,1.776,1.7635,1.7344,1.7527,0.0,0.0,0.0,0.0,0.0,0.0,0.0,0.0,0.0,0.0,0.0,0.0,0.0,0.0,0.0,0.0,0.0,0.0,0.0,-0.5052,-0.4719,-0.4464,-0.4345,-0.4178,-0.3924,-0.3609,-0.3344,-0.3214,-0.2504,-0.1925,-0.1523,-0.1002,-0.0373,0.0431,0.0806,0.1349,0.2094,0.2791,0.3547,0.42,0.4881,0.5296,0.5513,0.6096,0.6374,0.6516,0.704,0.7666,0.8252,0.8655,0.866,0.8527,0.8626,0.8521,0.8321,0.8527,0.8942,0.9465,0.9932,1.0166,1.0237,1.042,1.0388,1.0373,1.073,1.0736,1.0754,1.1277,1.1397,1.1426,1.1686,1.1859,1.2029,1.2258,1.2437,1.2615,1.292,1.2733,1.2437,1.2066,1.2378,1.2754,1.2928,1.3596,1.4168,1.4342,1.4904,1.5314,1.5315,1.5966,1.6444,1.6417,1.6818,1.7103,1.7072,1.7552,1.7846,1.7904,1.8373,1.841,1.7929,1.8315,1.8272,1.7683,1.8133,1.8298,1.8151,1.7866,1.7647,1.7432,1.7272,1.7289,0.0,0.0,0.0,0.0,0.0,0.0,0.0,0.0,0.0,0.0,0.0,0.0,0.0,0.0,0.0,0.0,0.0,0.0,0.0,-0.4941,-0.4626,-0.4368,-0.4232,-0.3965,-0.3565,-0.3476,-0.33,-0.2946,-0.2301,-0.168,-0.1137,-0.0556,0.024,0.1159,0.1387,0.1906,0.2819,0.3508,0.4242,0.5011,0.5313,0.5619,0.5834,0.6253,0.6628,0.694,0.7431,0.7914,0.841,0.8848,0.8806,0.858,0.8685,0.8626,0.8474,0.8732,0.9145,0.9666,1.0308,1.0482,1.0511,1.0854,1.0873,1.0857,1.1079,1.1132,1.1114,1.145,1.1464,1.1516,1.1811,1.1993,1.221,1.2508,1.2685,1.2873,1.3129,1.272,1.2282,1.2162,1.2789,1.3408,1.3429,1.4006,1.4483,1.456,1.4887,1.5102,1.5043,1.5767,1.6394,1.6654,1.7158,1.7595,1.7816,1.8035,1.8166,1.8166,1.8351,1.8165,1.7509,1.8069,1.8066,1.7337,1.7862,1.807,1.7988,1.7687,1.7432,1.7216,1.7126,1.7023,0.0,0.0,0.0,0.0,0.0,0.0,0.0,0.0,0.0,0.0,0.0,0.0,0.0,0.0,0.0,0.0,0.0,0.0,0.0,-0.4499,-0.4276,-0.3972,-0.3832,-0.3565,-0.3078,-0.2996,-0.2729,-0.2188,-0.1809,-0.1234,-0.0379,0.0203,0.0833,0.1465,0.2101,0.2692,0.325,0.4446,0.5128,0.5297,0.5719,0.6095,0.6367,0.6696,0.6903,0.6979,0.6895,0.7437,0.8393,0.8441,0.8623,0.9008,0.9106,0.8942,0.8679,0.9152,0.9465,0.9666,1.0308,1.064,1.0815,1.0598,1.0763,1.1132,1.1334,1.1377,1.148,1.2002,1.1949,1.1844,1.2102,1.221,1.2282,1.2685,1.2803,1.2908,1.3288,1.3148,1.2928,1.2791,1.3216,1.3462,1.3088,1.3756,1.4254,1.4065,1.4374,1.4752,1.5074,1.5739,1.6378,1.685,1.7231,1.7526,1.7612,1.7922,1.8048,1.7833,1.8009,1.8074,1.7975,1.8057,1.8074,1.7954,1.7927,1.7861,1.771,1.7304,1.7109,1.6998,1.6612,1.6796,0.0,0.0,0.0,0.0,0.0,0.0,0.0,0.0,0.0,0.0,0.0,0.0,0.0,0.0,0.0,0.0,0.0,0.0,0.0,-0.388,-0.366,-0.3344,-0.3344,-0.3214,-0.2726,-0.2593,-0.2307,-0.1813,-0.1133,-0.0577,-0.0049,0.0659,0.1343,0.1931,0.2458,0.3207,0.4168,0.4871,0.5395,0.5732,0.6109,0.6381,0.6593,0.6869,0.7008,0.6923,0.6955,0.7369,0.803,0.818,0.8424,0.8639,0.8586,0.8533,0.8527,0.8784,0.9197,0.9666,1.0308,1.0839,1.1326,1.1358,1.1707,1.2119,1.2207,1.2118,1.2027,1.2287,1.2204,1.2052,1.2318,1.2473,1.265,1.3138,1.3391,1.3527,1.3641,1.3459,1.3251,1.3191,1.3563,1.394,1.396,1.4406,1.4797,1.5013,1.5027,1.5163,1.5522,1.5968,1.634,1.6501,1.7034,1.7394,1.7401,1.7606,1.7743,1.7789,1.7856,1.7939,1.8005,1.8027,1.7983,1.7856,1.7749,1.7681,1.7635,1.7361,1.6952,1.6501,1.6517,1.6713,0.0,0.0,0.0,0.0,0.0,0.0,0.0,0.0,0.0,0.0,0.0,0.0,0.0,0.0,0.0,0.0,0.0,0.0,0.0,-0.3217,-0.304,-0.2904,-0.2901,-0.2771,-0.246,-0.2281,-0.1992,-0.149,-0.0708,0.0,0.0302,0.1071,0.1877,0.2645,0.313,0.3815,0.4739,0.5234,0.5618,0.595,0.6273,0.649,0.6701,0.6977,0.6965,0.6767,0.7059,0.7392,0.774,0.7898,0.8114,0.8374,0.8268,0.8268,0.8421,0.8633,0.9047,0.9569,1.0352,1.0897,1.1312,1.1832,1.2229,1.2502,1.2546,1.245,1.2362,1.237,1.2268,1.221,1.2473,1.2768,1.3047,1.3446,1.3795,1.4007,1.3974,1.3762,1.3602,1.355,1.3907,1.4259,1.447,1.4752,1.5043,1.5269,1.5254,1.5314,1.5654,1.594,1.6203,1.634,1.6831,1.7166,1.7191,1.7377,1.7542,1.7635,1.7743,1.7811,1.7856,1.7856,1.7833,1.7726,1.7502,1.7361,1.7313,1.7232,1.6933,1.6432,1.6474,1.6561,0.0,0.0,0.0,0.0,0.0,0.0,-0.1997,0.0,-0.2294,0.0,0.0,0.0,0.0,0.0,0.0,0.0,0.0,0.0,0.0,-0.2551,-0.2504,-0.264,-0.2415,-0.2279,-0.2279,-0.2061,-0.1705,-0.1121,-0.0465,0.0145,0.0704,0.151,0.2422,0.3555,0.3999,0.4443,0.4889,0.5508,0.5786,0.5795,0.6218,0.6485,0.6701,0.6972,0.6826,0.6455,0.7041,0.7392,0.7583,0.7532,0.785,0.8421,0.8275,0.8268,0.848,0.885,0.9054,0.9316,1.0506,1.0789,1.0845,1.18,1.209,1.2134,1.218,1.2307,1.2383,1.2149,1.2095,1.221,1.2591,1.3047,1.3459,1.3581,1.3947,1.43,1.43,1.4144,1.4,1.3934,1.4176,1.4401,1.4501,1.4721,1.489,1.4825,1.4935,1.5134,1.5477,1.5696,1.6009,1.6448,1.6686,1.6873,1.6972,1.7305,1.7439,1.732,1.7618,1.7726,1.7612,1.7612,1.7589,1.7589,1.7191,1.6892,1.6696,1.6889,1.6946,1.6853,1.6495,1.6289,-0.1239,0.0,0.0,0.0,0.0,0.0,-0.1716,-0.1699,-0.1797,0.0,0.0,0.0,0.0,0.0,0.0,0.0,0.0,0.0,0.0,0.0,-0.1971,-0.1927,-0.1701,-0.1566,-0.1566,-0.1164,-0.0725,0.0,0.0142,0.0678,0.1259,0.2134,0.2922,0.3579,0.393,0.434,0.4729,0.5312,0.5699,0.595,0.6125,0.64,0.6869,0.6865,0.6777,0.6601,0.7275,0.7457,0.7328,0.7516,0.8017,0.8646,0.8168,0.8321,0.885,0.8857,0.8685,0.8606,1.0087,1.0383,1.0288,1.1525,1.215,1.2388,1.2407,1.193,1.1416,1.144,1.0923,1.0671,1.19,1.2941,1.3775,1.4026,1.4189,1.43,1.4365,1.4287,1.4241,1.431,1.4388,1.4483,1.4752,1.4996,1.5238,1.5269,1.5299,1.5433,1.5797,1.594,1.6108,1.6409,1.6696,1.6908,1.6998,1.7345,1.7566,1.7502,1.7749,1.7878,1.7816,1.7681,1.7479,1.7248,1.685,1.6565,1.6421,1.6659,1.6421,1.5741,1.6233,1.6306,0.0,0.0,0.0,0.0,0.0,0.0,-0.1642,-0.1541,-0.1467,0.0,-0.1461,0.0,0.0,0.0,0.0,0.0,0.0,0.0,0.0,0.0,-0.1478,-0.1478,-0.1254,-0.1119,-0.1119,-0.076,-0.0316,0.0139,0.051,0.1086,0.1866,0.2593,0.3216,0.3773,0.4016,0.4357,0.4762,0.5199,0.5514,0.5654,0.5935,0.6348,0.6781,0.6908,0.6862,0.6747,0.7604,0.7692,0.723,0.7398,0.8013,0.8752,0.8268,0.8209,0.8415,0.8685,0.8196,0.7646,0.934,0.9858,0.9887,1.1015,1.19,1.2492,1.1997,1.155,1.1113,1.0801,1.0488,1.0492,1.1487,1.2342,1.3079,1.3702,1.3888,1.3954,1.4046,1.4046,1.4098,1.4438,1.447,1.4533,1.4845,1.5058,1.5179,1.5225,1.5329,1.5433,1.5711,1.5898,1.6095,1.6301,1.6528,1.6686,1.6785,1.7009,1.715,1.7191,1.732,1.7432,1.7512,1.7264,1.7052,1.6952,1.6416,1.6176,1.6163,1.6367,1.6136,1.5551,1.607,1.6084,0.0,0.0,0.0,0.0,0.0,0.0,-0.1778,-0.15,-0.1303,-0.1306,-0.1094,0.0,0.0,0.0,0.0,0.0,0.0,0.0,0.0,0.0,-0.1069,-0.1164,-0.0985,-0.0806,-0.076,-0.0537,-0.0134,0.0447,0.085,0.15,0.2452,0.2878,0.3326,0.3922,0.4122,0.4375,0.4775,0.5098,0.5212,0.517,0.5774,0.6227,0.6576,0.694,0.7005,0.6886,0.7941,0.7974,0.7291,0.735,0.7937,0.8752,0.8315,0.7877,0.7706,0.8448,0.78,0.6832,0.8751,0.9533,0.9835,1.0535,1.1598,1.2329,1.1354,1.1104,1.0916,1.0065,1.0329,1.0929,1.1201,1.152,1.1995,1.2928,1.3213,1.3336,1.3522,1.3542,1.3696,1.4232,1.4328,1.4392,1.4613,1.4856,1.5008,1.4859,1.5162,1.5402,1.5433,1.5668,1.5942,1.6148,1.6308,1.639,1.6421,1.6564,1.6633,1.6596,1.6696,1.6805,1.693,1.6581,1.6443,1.6549,1.595,1.5725,1.5883,1.5983,1.597,1.59,1.5898,1.5711,0.0,0.0,0.0,0.0,0.0,0.0,-0.2081,-0.1623,-0.1276,0.0,-0.088,0.0,0.0,0.0,0.0,0.0,0.0,0.0,0.0,0.0,0.0,-0.0582,-0.0359,-0.0135,-0.0045,0.0179,0.0538,0.1164,0.1834,0.2335,0.2627,0.3194,0.3527,0.3666,0.3983,0.4226,0.4498,0.4823,0.4996,0.5059,0.5428,0.5888,0.6417,0.6535,0.6713,0.7116,0.7998,0.82,0.7861,0.7908,0.8355,0.8798,0.7015,0.7058,0.8171,0.8317,0.8041,0.7929,1.0151,1.0618,1.0434,1.1584,1.174,1.1477,1.148,1.0433,0.9063,0.8388,0.9096,1.0186,1.0434,1.1318,1.2235,1.2695,1.2787,1.2857,1.3119,1.3098,1.3123,1.3408,1.3361,1.3213,1.2995,1.4306,1.5157,1.4369,1.5378,1.6034,1.561,1.558,1.5668,1.5942,1.6496,1.6601,1.5998,1.6889,1.7187,1.6559,1.6892,1.6935,1.6622,1.6423,1.6126,1.5737,1.5345,1.515,1.5195,1.5374,1.5595,1.59,1.5536,1.5328,0.0,0.0,0.0,-0.3072,0.0,0.0,0.0,-0.1809,-0.1384,-0.1181,-0.0735,0.0,0.0,0.0,0.0,0.0,0.0,0.0,0.0,0.0,0.0,0.0,0.0134,0.0359,0.0626,0.0762,0.1075,0.17,0.2281,0.264,0.2776,0.3132,0.3353,0.349,0.3751,0.3965,0.4138,0.4499,0.473,0.4735,0.5111,0.5653,0.6357,0.6405,0.6566,0.6856,0.7987,0.8151,0.7561,0.7645,0.8131,0.8679,0.7439,0.7534,0.8482,0.9051,0.8508,0.7759,0.9982,1.0391,1.003,1.0598,1.1072,1.1201,1.024,0.9209,0.8319,0.8157,0.882,0.9679,0.9914,1.057,1.1287,1.1875,1.2056,1.2164,1.2354,1.2413,1.2318,1.202,1.1995,1.2175,1.2637,1.3565,1.4179,1.3881,1.4861,1.5497,1.5174,1.5484,1.5709,1.5698,1.6024,1.6278,1.6396,1.6554,1.6681,1.6797,1.6511,1.6336,1.6309,1.5851,1.5492,1.5195,1.5179,1.5179,1.5195,1.5268,1.5492,1.5827,1.5463,1.5224,0.0,0.0,0.0,0.0,0.0,-0.308,0.0,0.0,0.0,0.0,0.0,0.0,0.0,0.0,0.0,0.0,0.0,0.0,0.0,0.0,0.0,0.0843,0.0755,0.0887,0.1297,0.1343,0.1611,0.2144,0.2504,0.2732,0.2868,0.2948,0.3126,0.3398,0.3612,0.3788,0.3968,0.4331,0.4517,0.4504,0.4888,0.5462,0.6239,0.6134,0.626,0.6519,0.7598,0.7574,0.6877,0.7056,0.7593,0.8302,0.77,0.78,0.8324,0.9318,0.877,0.7759,0.9746,1.0175,0.9857,0.9807,1.0423,1.0821,0.8837,0.82,0.8185,0.8472,0.8926,0.9426,0.9775,0.9958,1.0293,1.1086,1.1346,1.1431,1.1483,1.1605,1.1457,1.0867,1.0878,1.1356,1.2354,1.278,1.3144,1.3446,1.4245,1.4835,1.4888,1.5318,1.5595,1.5562,1.5651,1.6022,1.6758,1.6397,1.6427,1.7106,1.6293,1.5876,1.6108,1.5312,1.4927,1.504,1.5219,1.5356,1.5488,1.5386,1.5477,1.5741,1.5448,1.5195,0.0,0.0,0.0,0.0,-0.3918,0.0,0.0,0.0,-0.2208,-0.154,0.0,0.0,0.0,0.0,0.0,0.0,0.0,0.0,0.2102,0.0,0.2794,0.2337,0.1814,0.1675,0.2138,0.2279,0.237,0.246,0.2595,0.2687,0.2732,0.2904,0.3126,0.3398,0.3612,0.3877,0.4228,0.4433,0.4481,0.4504,0.4833,0.5317,0.5931,0.5389,0.5629,0.6396,0.6057,0.6022,0.6145,0.6255,0.6784,0.7283,0.5819,0.6095,0.7289,0.7688,0.8397,0.9423,1.0788,1.1239,1.1235,1.1462,1.065,0.9443,0.8288,0.8265,0.8635,0.8683,0.9056,0.9636,1.0238,1.0255,1.0253,1.0954,1.0903,1.0725,1.0791,1.0829,1.0829,1.0878,1.0802,1.0829,1.1094,1.2238,1.3082,1.3082,1.4068,1.499,1.5524,1.4994,1.4883,1.5683,1.6303,1.6513,1.6157,1.7368,1.7933,1.7316,1.6997,1.6637,1.6191,1.5296,1.5029,1.5496,1.531,1.542,1.5837,1.556,1.5448,1.5551,1.5195,1.5043,0.0,0.0,0.0,0.0,0.0,0.0,-0.3822,0.0,-0.2444,0.0,0.0,0.0,0.0,0.0,0.0,0.0,0.1742,0.0,0.0,0.0,0.2861,0.0,0.0,0.0,0.2544,0.2754,0.2916,0.2898,0.271,0.2656,0.2857,0.2771,0.286,0.317,0.3483,0.3707,0.3884,0.4427,0.4616,0.4575,0.5093,0.5682,0.6273,0.6136,0.6067,0.6168,0.6442,0.6238,0.5743,0.6152,0.6519,0.6686,0.5664,0.6421,0.8137,0.8383,0.879,0.9334,1.0276,1.0457,1.0306,1.0398,0.9501,0.8419,0.8473,0.8599,0.8815,0.9148,0.9632,1.01,1.0224,1.039,1.0582,1.0755,1.0781,1.0765,1.0715,1.0755,1.0795,1.0645,1.0675,1.0755,1.0875,1.1422,1.1976,1.2342,1.3643,1.4567,1.4527,1.54,1.5834,1.5386,1.6327,1.6847,1.6589,1.7321,1.7807,1.7772,1.7357,1.6972,1.658,1.6137,1.5886,1.5821,1.6051,1.5931,1.5381,1.6059,1.6041,1.5388,1.5269,1.5412,-0.6768,0.0,0.0,0.0,0.0,0.0,0.0,0.0,0.0,0.0,0.0,0.0,0.0,0.0,0.0,0.0,0.0,0.2441,0.0,0.0,0.0,0.0,0.0,0.0,0.0,0.3052,0.3127,0.3101,0.0,0.2711,0.2892,0.2711,0.2771,0.3167,0.3483,0.3755,0.3843,0.45,0.4823,0.4781,0.5399,0.6002,0.6622,0.6563,0.6426,0.6249,0.6673,0.6357,0.5492,0.614,0.6303,0.6091,0.5837,0.6696,0.8131,0.8336,0.86,0.8926,0.9467,0.9531,0.9283,0.8965,0.8396,0.7915,0.8532,0.8773,0.8954,0.9383,0.9888,1.0298,1.0233,1.0428,1.0618,1.065,1.0701,1.0743,1.066,1.0701,1.0711,1.0461,1.045,1.0488,1.0651,1.0815,1.1218,1.2139,1.3172,1.3865,1.4002,1.5353,1.5992,1.5177,1.6047,1.6775,1.7015,1.7359,1.7733,1.8129,1.7652,1.7168,1.6858,1.6739,1.6578,1.6397,1.6701,1.644,1.559,1.6403,1.6315,1.5391,1.5591,1.5885,0.0,0.0,0.0,-0.6249,0.0,0.0,0.0,0.0,-0.3047,0.0,0.0,0.0,0.0,0.0,0.0,0.0,0.0,0.0,0.0,0.0,0.0,0.0,0.0,0.0,0.0,0.3192,0.297,0.0,0.2859,0.0,0.261,0.2802,0.3084,0.3565,0.3788,0.406,0.446,0.4774,0.5009,0.519,0.5644,0.6156,0.6565,0.6081,0.6218,0.6843,0.6134,0.5641,0.5386,0.6091,0.5982,0.5386,0.595,0.6223,0.6317,0.6431,0.7331,0.8541,0.8748,0.8879,0.8755,0.7849,0.7739,0.8028,0.8183,0.8586,0.9016,0.9154,0.9515,0.9935,1.045,1.0333,1.0252,1.0707,1.066,1.0484,1.0419,1.0419,1.0419,1.0419,1.0102,0.9881,1.0098,1.0595,1.147,1.2789,1.2621,1.295,1.4555,1.4303,1.4353,1.5304,1.5555,1.6022,1.7006,1.7801,1.8285,1.83,1.7913,1.7448,1.6907,1.6705,1.683,1.733,1.693,1.6794,1.7054,1.6338,1.5876,1.5604,1.612,1.6371,0.0,0.0,-0.8754,-0.8107,0.0,0.0,0.0,0.0,0.0,0.0,0.0,0.0,0.0,0.0,0.0,0.0,0.0,0.0,0.0,0.0,0.0,0.0,0.0,0.0,0.0,0.0,0.0,0.0,0.0,0.0,0.2927,0.3138,0.3432,0.3913,0.414,0.4276,0.4364,0.5006,0.5241,0.5144,0.6031,0.6609,0.6945,0.712,0.7192,0.7176,0.7089,0.6508,0.5664,0.6095,0.5882,0.5293,0.5403,0.5677,0.595,0.6273,0.675,0.727,0.7449,0.7504,0.744,0.7342,0.7474,0.7775,0.8303,0.8464,0.852,0.8854,0.9426,0.9911,0.9827,1.0067,1.0409,1.0693,1.0602,1.047,1.047,1.0303,1.0057,0.9838,0.9605,0.9476,0.9576,0.9774,1.0234,1.1069,1.1943,1.2505,1.2491,1.4175,1.5085,1.4333,1.5119,1.5708,1.5765,1.6764,1.7511,1.7819,1.8003,1.8082,1.796,1.7819,1.7684,1.7599,1.781,1.7539,1.69,1.7157,1.6736,1.5745,1.6455,1.6718,-1.1195,-1.0807,0.0,-0.9379,-0.8831,0.0,-0.7383,0.0,-0.6975,0.0,0.0,0.0,0.0,0.0,0.0,0.0,0.0,0.0,0.0,0.2344,0.0,0.0,0.0,0.0,0.0,0.0,0.0,0.0,0.0,0.0,0.0,0.3397,0.3785,0.418,0.4408,0.4539,0.4539,0.5188,0.5431,0.5329,0.6124,0.675,0.7251,0.7419,0.7482,0.745,0.7717,0.7122,0.5991,0.6475,0.61,0.5297,0.5293,0.5458,0.5736,0.6005,0.6231,0.6468,0.676,0.6738,0.6683,0.707,0.7321,0.7566,0.8167,0.828,0.8265,0.8593,0.9165,0.9611,0.9401,0.9786,1.0191,1.0312,1.0323,1.0291,1.0154,0.991,0.9629,0.9398,0.9129,0.8946,0.9022,0.903,0.9332,1.0198,1.1061,1.1484,1.1084,1.2972,1.3993,1.2973,1.3803,1.4472,1.4603,1.583,1.6675,1.684,1.7685,1.8082,1.7962,1.8082,1.8021,1.771,1.8099,1.7918,1.7066,1.7492,1.7155,1.6146,1.6453,1.6662]},{"header":{"parameterUnit":"m.s-1","parameterCategory":1,"la1":30.6,"la2":29.2853,"lo1":-89.7004,"lo2":-87.6739,"dy":0.0162,"dx":0.0183,"nx":112,"ny":82,"refTime":"2024-04-20T00:00:00:Z","depth":0,"parameterNumber":3,"parameterNumberName":"V-component_of_WINDS"},"data":[0.0,0.0,0.0,0.0,0.0,0.0,0.0,0.0,0.0,0.0,0.0,0.0,0.0,0.0,0.0,0.0,0.0,0.0,0.0,0.0,0.0,0.0,0.0,0.0,0.0,0.0,0.0,0.0,0.0,0.0,0.0,0.0,0.0,0.0,0.0,0.0,0.0,0.0,0.0,0.0,0.0,0.0,0.0,0.0,0.0,0.0,0.0,0.0,0.0,0.0,0.0,0.0,0.0,0.0,0.0,0.0,0.0,0.0,0.0,0.0,0.0,0.0,0.0,0.0,0.0,0.0,0.0,0.0,0.0,0.0,0.0,0.0,0.0,0.0,0.0,0.0,0.0,0.0,0.0,0.0,0.0,0.0,0.0,0.0,0.0,0.0,0.0,0.0,0.0,0.0,0.0813,0.1919,0.1673,0.1288,0.0864,0.0297,-0.0244,-0.0817,0.0,0.0,0.0,0.0,0.0,0.0,0.0,0.0,0.0,0.0,0.0,0.0,0.0,0.0,0.0,0.0,0.0,0.0,0.0,0.0,0.0,0.0,0.0,0.0,0.0,0.0,0.0,0.0,0.0,0.0,0.0,0.0,0.0,0.0,0.0,0.0,0.0,0.0,0.0,0.0,0.0,0.0,0.0,0.0,0.0,0.0,0.0,0.0,0.0,0.0,0.0,0.0,0.0,0.0,0.0,0.0,0.0,0.0,0.0,0.0,0.0,0.0,0.0,0.0,0.0,0.0,0.0,0.0,0.0,0.0,0.0,0.0,0.0,0.0,0.0,0.0,0.0,0.0,0.0,0.0,0.0,0.0,0.0,0.0,0.0,0.0,0.0,0.0,0.0,0.0,0.0,0.0,0.0,0.0,0.0,0.0,0.0,0.0,0.0,0.0,0.0,0.0,0.0,0.0,0.2308,0.2551,0.2276,0.1783,0.1096,0.0905,0.0297,-0.0898,0.0,0.0,0.0,0.0,0.0,0.0,0.0,0.0,0.0,0.0,0.0,0.0,0.0,0.0,0.0,0.0,0.0,0.0,0.0,0.0,0.0,0.0,0.0,0.0,0.0,0.0,0.0,0.0,0.0,0.0,0.0,0.0,0.0,0.0,0.0,0.0,0.0,0.0,0.0,0.0,0.0,0.0,0.0,0.0,0.0,0.0,0.0,0.0,0.0,0.0,0.0,0.0,0.0,0.0,0.0,0.0,0.0,0.0,0.0,0.0,0.0,0.0,0.0,0.0,0.0,0.0,0.0,0.0,0.0,0.0,0.0,0.0,0.0,0.0,0.0,0.0,0.0,0.0,0.0,0.0,0.0,0.0,0.0,0.0,0.0,0.0,0.0,0.0,0.0,0.0,0.0,0.0,0.0,0.0,0.0,0.0,0.0,0.0,0.0,0.0,0.0,0.0,0.0,0.1878,0.316,0.3001,0.2788,0.2321,0.1511,0.121,0.0701,-0.0246,-0.1156,0.0,0.0,0.0,0.0,0.0,0.0,0.0,0.0,0.0,0.0,0.0,0.0,0.0,0.0,0.0,0.0,0.0,0.0,0.0,0.0,0.0,0.0,0.0,0.0,0.0,0.0,0.0,0.0,0.0,0.0,0.0,0.0,0.0,0.0,0.0,0.0,0.0,0.0,0.0,0.0,0.0,0.0,0.0,0.0,0.0,0.0,0.0,0.0,0.0,0.0,0.0,0.0,0.0,0.0,0.0,0.0,0.0,0.0,0.0,0.0,0.0,0.0,0.0,0.0,0.0,0.0,0.0,0.0,0.0,0.0,0.0,0.0,0.0,0.0,0.0,0.0,0.0,0.0,0.0,0.0,0.0,0.0,0.0,0.0,0.0,0.0,0.0,0.0,0.0,0.0,0.0,0.0,0.0,0.0,0.0,0.0,0.0,0.0,0.0,0.0,0.0,0.0,0.2985,0.35,0.3274,0.3094,0.2688,0.1965,0.1614,0.1109,0.0353,-0.0544,0.0,0.0,0.0,0.0,0.0,0.0,0.0,0.0,0.0,0.0,0.0,0.0,0.0,0.0,0.0,0.0,0.0,0.0,0.0,0.0,0.0,0.0,0.0,0.0,0.0,0.0,0.0,0.0,0.0,0.0,0.0,0.0,0.0,0.0,0.0,0.0,0.0,0.0,0.0,0.0,0.0,0.0,0.0,0.0,0.0,0.0,0.0,0.0,0.0,0.0,0.0,0.0,0.0,0.0,0.0,0.0,0.0,0.0,0.0,0.0,0.0,0.0,0.0,0.0,0.0,0.0,0.0,0.0,0.0,0.0,0.0,0.0,0.0,0.0,0.0,0.0,0.0,0.0,0.0,0.0,0.0,0.0,0.0,0.0,0.0,0.0,0.0,0.0,0.0,0.0,0.0,0.0,0.0,0.0,0.0,0.0,0.0,0.0,0.0,0.0,0.0,0.0,0.3227,0.3121,0.3366,0.3158,0.2856,0.2561,0.2164,0.1509,0.0452,-0.014,0.0,0.0,0.0,0.0,0.0,0.0,0.0,0.0,0.0,0.0,0.0,0.0,0.0,0.0,0.0,0.0,0.0,0.0,0.0,0.0,0.0,0.0,0.0,0.0,0.0,0.0,0.0,0.0,0.0,0.0,0.0,0.0,0.0,0.0,0.0,0.0,0.0,0.0,0.0,0.0,0.0,0.0,0.0,0.0,0.0,0.0,0.0,0.0,0.0,0.0,0.0,0.0,0.0,0.0,0.0,0.0,0.0,0.0,0.0,0.0,0.0,0.0,0.0,0.0,0.0,0.0,0.0,0.0,0.0,0.0,0.0,0.0,0.0,0.0,0.0,0.0,0.0,0.0,0.0,0.0,0.0,0.0,0.0,0.0,0.0,0.0,0.0,0.0,0.0,0.0,0.0,0.0,0.0,0.0,0.0,0.0,0.0,0.0,0.0,0.0,0.0,0.0,0.355,0.4096,0.0,0.3474,0.3187,0.2763,0.252,0.2014,0.1158,0.0,0.0,0.0,0.0,0.0,0.0,0.0,0.0,0.0,0.0,0.0,0.0,0.0,0.0,0.0,0.0,0.0,0.0,0.0,0.0,0.0,0.0,0.0,0.0,0.0,0.0,0.0,0.0,0.0,0.0,0.0,0.0,0.0,0.0,0.0,0.0,0.0,0.0,0.0,0.0,0.0,0.0,0.0,0.0,0.0,0.0,0.0,0.0,0.0,0.0,0.0,0.0,0.0,0.0,0.0,0.0,0.0,0.0,0.0,0.0,0.0,0.0,0.0,0.0,0.0,0.0,0.0,0.0,0.0,0.0,0.0,0.0,0.0,0.0,0.0,0.0,0.0,0.0,0.0,0.0,0.0,0.0,0.0,0.0,0.0,0.0,0.0,0.0,0.0,0.0,0.0,0.0,0.0,0.0,0.0,0.0,0.0,0.0,0.0,0.0,0.0,0.0,0.2315,0.3778,0.4613,0.0,0.3661,0.3432,0.3013,0.279,0.2339,0.1712,0.0,0.0,0.0,0.0,0.0,0.0,0.0,0.0,0.0,0.0,0.0,0.0,0.0,0.0,0.0,0.0,0.0,0.0,0.0,0.0,0.0,0.0,0.0,0.0,0.0,0.0,0.0,0.0,0.0,0.0,0.0,0.0,0.0,0.0,0.0,0.0,0.0,0.0,0.0,0.0,0.0,0.0,0.0,0.0,0.0,0.0,0.0,0.0,0.0,0.0,0.0,0.0,0.0,0.0,0.0,0.0,0.0,0.0,0.0,0.0,0.0,0.0,0.0,0.0,0.0,0.0,0.0,0.0,0.0,0.0,0.0,0.0,0.0,0.0,0.0,0.0,0.0,0.0,0.0,0.0,0.0,0.0,0.0,0.0,0.0,0.0,0.0,0.0,0.0,0.0,0.0,0.0,0.0,0.0,0.0,0.0,0.0,0.0,0.0,0.0,0.0,0.0,0.2729,0.3869,0.4513,0.3759,0.3661,0.3525,0.3412,0.2967,0.2516,0.0,0.0,0.0,0.0,0.0,0.0,0.0,0.0,0.0,0.0,0.0,0.0,0.0,0.0,0.0,0.0,0.0,0.0,0.0,0.0,0.0,0.0,0.0,0.0,0.0,0.0,0.0,0.0,0.0,0.0,0.0,0.0,0.0,0.0,0.0,0.0,0.0,0.0,0.0,0.0,0.0,0.0,0.0,0.0,0.0,0.0,0.0,0.0,0.0,0.0,0.0,0.0,0.0,0.0,0.0,0.0,0.0,0.0,0.0,0.0,0.0,0.0,0.0,0.0,0.0,0.0,0.0,0.0,0.0,0.0,0.0,0.0,0.0,0.0,0.0,0.0,0.0,0.0,0.0,0.0,0.0,0.0,0.0,0.0,0.0,0.0,0.0,0.0,0.0,0.0,0.0,0.0,0.0,0.0,0.0,0.0,0.0,0.0,0.0,0.0,0.0,0.0,0.0,0.2674,0.401,0.4665,0.3622,0.3533,0.3572,0.3556,0.3238,0.2918,0.2613,0.0,0.0,0.0,0.0,0.0,0.0,0.0,0.0,0.0,0.0,0.0,0.0,0.0,0.0,0.0,0.0,0.0,0.0,0.0,0.0,0.0,0.0,0.0,0.0,0.0,0.0,0.0,0.0,0.0,0.0,0.0,0.0,0.0,0.0,0.0,0.0,0.0,0.0,0.0,0.0,0.0,0.0,0.0,0.0,0.0,0.0,0.0,0.0,0.0,0.0,0.0,0.0,0.0,0.0,0.0,0.0,0.0,0.0,0.0,0.0,0.0,0.0,0.0,0.0,0.0,0.0,0.0,0.0,0.0,0.0,0.0,0.0,0.0,0.0,0.0,0.0,0.0,0.0,0.0,0.0,0.0,0.0,0.0,0.0,0.0,0.0,0.0,0.0,0.0,0.0,0.0,0.0,0.0,0.0,0.0,0.0,0.0,0.0,0.0,0.0,0.0,0.0,0.3224,0.4325,0.486,0.4062,0.3846,0.3732,0.3626,0.3444,0.3346,0.3221,0.0,0.0,0.0,0.0,0.0,0.0,0.0,0.0,0.0,0.0,0.0,0.0,0.0,0.0,0.0,0.0,0.0,0.0,0.0,0.0,0.0,0.0,0.0,0.0,0.0,0.0,0.0,0.0,0.0,0.0,0.0,0.0,0.0,0.0,0.0,0.0,0.0,0.0,0.0,0.0,0.0,0.0,0.0,0.0,0.0,0.0,0.0,0.0,0.0,0.0,0.0,0.0,0.0,0.0,0.0,0.0,0.0,0.0,0.0,0.0,0.0,0.0,0.0,0.0,0.0,0.0,0.0,0.0,0.0,0.0,0.0,0.0,0.0,0.0,0.0,0.0,0.0,0.0,0.0,0.0,0.0,0.0,0.0,0.0,0.0,0.0,0.0,0.0,0.0,0.0,0.0,0.0,0.0,0.0,0.0,0.0,0.0,0.0,0.0,0.0,0.0,0.0,0.4168,0.4862,0.5202,0.4802,0.4365,0.398,0.3695,0.369,0.3744,0.3886,0.0,0.0,0.0,0.0,0.0,0.0,0.0,0.0,0.0,0.0,0.0,0.0,0.0,0.0,0.0,0.0,0.0,0.0,0.0,0.0,0.0,0.0,0.0,0.0,0.0,0.0,0.0,0.0,0.0,0.0,0.0,0.0,0.0,0.0,0.0,0.0,0.0,0.0,0.0,0.0,0.0,0.0,0.0,0.0,0.0,0.0,0.0,0.0,0.0,0.0,0.0,0.0,0.0,0.0,0.0,0.0,0.0,0.0,0.0,0.0,0.1069,0.0,0.0,0.0,0.0,0.0,0.0,0.0,0.0,0.0,0.0,0.0,0.0,0.0,0.0,0.0,0.0,0.0,0.0,0.0,0.0,0.0,0.0,0.0,0.0,0.0,0.0,0.0,0.0,0.0,0.0,0.0,0.0,0.0,0.0,0.0,0.0,0.0,0.0,0.0,0.0,0.0,0.4554,0.5606,0.5841,0.4671,0.4655,0.4562,0.4166,0.4296,0.4242,0.3923,0.3821,0.0,0.0,0.0,0.0,0.0,0.0,0.0,0.0,0.0,0.0,0.0,0.0,0.0,0.0,0.0,0.0,0.0,0.0,0.0,0.0,0.0,0.0,0.0,0.0,0.0,0.0,0.0,0.0,0.0,0.0,0.0,0.0,0.0,0.0,0.0,0.0,0.0,0.0,0.0,0.0,0.0,0.0,0.0,0.0,0.0,0.0,0.0,0.0,0.0,0.0,0.0,0.0,0.0,0.0,0.0,0.0,0.0,0.0,0.0,0.0,0.2788,0.0,0.0,0.0,0.0,0.0,0.0,0.0,0.0,0.0,0.0,0.0,0.0,0.0,0.0,0.0,0.0,0.0,0.0,0.0,0.0,0.0,0.0,0.0,0.0,0.0,0.0,0.0,0.0,0.0,0.0,0.0,0.0,0.0,0.0,0.0,0.0,0.0,0.0,0.0,0.0,0.6033,0.6794,0.6828,0.5694,0.5834,0.5617,0.4513,0.4803,0.4759,0.4115,0.4168,0.0,0.0,0.0,0.0,0.0,0.0,0.0,0.0,0.0,0.0,0.0,0.0,0.0,0.0,0.0,0.0,0.0,0.0,0.0,0.0,0.0,0.0,0.0,0.0,0.0,0.0,0.0,0.0,0.0,0.0,0.0,0.0,0.0,0.0,0.0,0.0,0.0,0.0,0.0,0.0,0.0,0.0,0.0,0.0,0.0,0.0,0.0,0.0,0.0,0.0,0.0,0.0,0.0,0.986,1.0493,1.1324,1.0408,0.9699,0.9089,0.6983,0.5561,0.4708,0.3788,0.0,0.0,0.0,0.0,0.0,0.0,0.0,0.0,0.0,0.0,0.0,0.0,0.0,0.0,0.0,0.0,0.0,0.0,0.0,0.0,0.0,0.0,0.0,0.0,0.3919,0.3755,0.2224,0.0,0.0,0.0,0.0,0.0,0.0,0.0,0.0,0.0,0.0,0.0,0.7382,0.7782,0.7682,0.6924,0.7182,0.6788,0.5152,0.5494,0.5481,0.4677,0.4714,0.4234,0.0,0.0,0.0,0.0,0.0,0.0,0.0,0.0,0.0,0.0,0.0,0.0,0.0,0.0,0.0,0.0,0.0,0.0,0.0,0.0,0.0,0.0,0.0,0.0,0.0,0.0,0.0,0.0,0.0,0.0,0.0,0.0,-0.0549,-0.0818,0.0,0.0,0.0,0.0,0.0,0.0,0.0,0.0,0.0,0.0,0.0,0.0,0.0,0.8963,1.0501,1.1186,1.2002,1.2922,1.235,1.2032,1.19,1.1695,1.1505,1.1305,1.142,0.0,0.5719,0.4723,0.0,0.0,0.0,0.0,0.0,0.0,0.0,0.0,0.0,0.0,0.0,0.0,0.0,0.0,0.0,0.0,0.0,0.0,0.0,0.0,0.0,0.0,0.5243,0.4998,0.5343,0.5516,0.0,0.3726,0.3135,0.3901,0.3603,0.0,0.0,0.0,0.0,0.0,0.0,0.0,0.7218,0.7676,0.7775,0.7408,0.769,0.7561,0.6693,0.6947,0.6789,0.5918,0.5834,0.5271,0.413,0.3335,0.0,0.0,0.0,0.0,0.0,0.0,0.0,0.0,0.0,0.0,0.0,0.0,0.0,0.0,0.0,0.0,0.0,0.0,0.0,0.0,0.0,0.0,0.0,0.0,0.0,0.0,0.0,0.0,0.0,0.0099,0.1116,0.1511,0.0762,0.0427,0.0,0.0,0.0,0.0,0.0,0.0,0.0,0.0,0.0,0.926,1.1144,1.2675,1.3738,1.4147,1.4359,1.4323,1.3436,1.2843,1.2502,1.1192,1.0867,1.1283,1.0957,0.9532,0.7452,0.781,0.7725,0.6975,0.0,0.0,0.0,0.0,-0.0352,0.0217,0.0419,0.1064,0.1778,0.143,0.0,0.0,0.0,0.0,0.0,0.0,0.0,0.0,0.0,0.0,0.8476,0.6919,0.6684,0.658,0.582,0.5173,0.4969,0.0,0.5322,0.5077,0.5891,0.0,0.0,0.0,0.0,0.7553,0.8173,0.8458,0.8461,0.7997,0.8459,0.8397,0.7423,0.7592,0.7277,0.6276,0.6127,0.5475,0.4117,0.33,0.2041,0.0,0.0,0.0,0.0,0.0,0.0,0.0,0.0,0.0,0.0,0.0,0.0,0.0,0.0,0.0,0.0,0.0,0.0,0.0,0.0,0.0,0.0,0.0,0.0,0.0,0.0,0.0,0.0,0.1657,0.2881,0.3768,0.3163,0.3079,0.0,0.0,0.0,0.0,0.0,0.0,0.9019,1.0992,1.2286,1.2665,1.407,1.5094,1.5743,1.5679,1.5449,1.5096,1.4042,1.3443,1.3289,1.1367,1.0897,1.1522,1.0845,1.0252,0.9852,0.9949,0.9599,0.8667,0.533,0.3935,0.3617,0.1735,0.1663,0.255,0.3086,0.4088,0.5079,0.4922,0.4856,0.4903,0.5132,0.0,0.0,0.0,0.0,0.9541,0.8648,0.9783,1.0599,0.8407,0.7773,0.7486,0.67,0.6403,0.6483,0.0,0.6676,0.65,0.7251,0.0,0.0,0.0,0.0,0.8487,0.8757,0.9091,0.9082,0.8435,0.9091,0.9176,0.817,0.8137,0.7759,0.6751,0.6355,0.5596,0.4335,0.3387,0.2148,0.0546,0.0,0.0,0.0,0.0,0.0,0.0,0.0,0.0,0.0,0.0,0.0,0.0,0.0,0.0,0.0,0.0,0.0,0.0,0.0,0.0,0.0,0.0,0.0,0.0,0.0,0.0,0.0,0.0,0.0,0.5148,0.5536,0.0,0.0,0.0,0.0,0.9226,1.0542,1.2155,1.4312,1.4484,1.4934,1.5851,1.5367,1.5432,1.6154,1.5548,1.5374,1.5637,1.4446,1.3992,1.4201,1.3402,1.3023,1.3099,1.3251,1.3342,1.3167,0.9534,0.8413,0.8797,0.6762,0.6669,0.7603,0.6536,0.6122,0.6152,0.6172,0.6899,0.7697,0.6982,0.7424,0.8488,0.969,0.9108,0.0,0.0,1.0217,0.9308,1.0363,1.0463,0.9979,0.8896,0.8553,0.8349,0.7972,0.7561,0.7198,0.0,0.682,0.6735,0.6972,0.0,0.7328,0.7217,0.766,0.8088,0.8232,0.9001,0.9329,0.8677,0.9398,0.9725,0.9169,0.881,0.833,0.7835,0.6891,0.6032,0.5253,0.3825,0.2275,0.061,-0.0645,0.0,0.0,0.0,0.0,0.0,0.0,0.0,0.0,0.0,0.0,0.0,0.0,0.0,0.0,0.0,0.0,0.0,0.0,0.0,0.0,0.0,0.0,0.0,0.0,0.0,0.0,0.0,0.0,0.742,0.7545,0.0,0.9967,0.9135,0.964,1.2515,1.3316,1.428,1.5641,1.6336,1.6952,1.7547,1.7262,1.7244,1.7608,1.6938,1.6197,1.5342,1.3548,1.2461,1.2061,1.0542,1.0278,1.1014,1.0994,1.1206,1.1415,1.0397,1.079,1.1884,0.9802,0.8852,0.8546,0.7765,0.7157,0.6825,0.7515,0.8014,0.8301,0.805,0.8357,0.9051,1.0329,1.0997,1.1554,1.2837,1.3459,1.3522,1.2551,1.2427,1.1998,0.9741,0.9142,0.8884,0.8136,0.7773,0.7484,0.7308,0.6915,0.6678,0.6848,0.7113,0.7307,0.737,0.7721,0.8008,0.8185,0.857,0.8814,0.8741,0.9107,0.9351,0.9347,0.8949,0.8338,0.7419,0.6828,0.6044,0.4965,0.3741,0.2424,0.0971,-0.0639,-0.1913,0.0,0.0,0.0,0.0,0.0,0.0,0.0,0.0,0.0,0.0,0.0,0.0,0.0,0.0,0.0,0.0,0.0,0.0,0.0,0.0,0.0,0.0,0.0,0.0,0.0,0.0,0.9767,0.9206,0.9426,1.0348,1.2227,1.158,1.2082,1.4567,1.5253,1.6028,1.7164,1.7925,1.8449,1.8765,1.8165,1.7983,1.8298,1.7317,1.647,1.5752,1.3993,1.2953,1.2526,1.0967,1.0732,1.1515,1.0686,1.1035,1.2182,1.1792,1.2961,1.4577,1.0481,0.8454,0.7589,0.5584,0.4578,0.4661,0.7406,0.9047,1.0035,1.0398,1.0654,1.0962,1.1956,1.2816,1.3571,1.4285,1.5007,1.5154,1.3316,1.2901,1.2375,1.0099,0.943,0.9124,0.8415,0.8193,0.7995,0.7447,0.6997,0.676,0.6897,0.6987,0.7183,0.7585,0.7687,0.7803,0.8088,0.8283,0.8446,0.868,0.8859,0.9077,0.9332,0.8704,0.7997,0.7189,0.6608,0.5751,0.4588,0.3644,0.2507,0.1144,-0.084,-0.2403,-0.3538,0.0,0.0,0.0,0.0,0.0,0.0,0.0,0.0,0.0,0.0,0.0,0.0,0.0,0.0,0.0,0.0,0.0,0.0,0.0,0.0,0.0,0.0,0.0,0.6721,0.8093,0.9477,1.0331,1.1131,1.1936,1.2753,1.2921,1.3678,1.5418,1.6355,1.7539,1.9127,1.9277,1.9369,1.9463,1.7962,1.7458,1.8087,1.6548,1.6155,1.6889,1.5873,1.5552,1.5839,1.5034,1.4746,1.4871,1.2732,1.3403,1.581,1.3657,1.4537,1.65,0.8828,0.5814,0.5227,0.0728,-0.0751,0.0312,0.6215,1.0231,1.2992,1.4019,1.4319,1.4351,1.4752,1.4564,1.4388,1.5193,1.4645,1.3578,1.2515,1.1606,1.0757,0.9843,0.9386,0.9128,0.8869,0.8878,0.8643,0.7433,0.7027,0.6914,0.7125,0.6839,0.682,0.7697,0.7467,0.0,0.7889,0.8139,0.829,0.8425,0.8747,0.9012,0.9169,0.8056,0.7302,0.7291,0.6226,0.5212,0.4374,0.3708,0.2645,0.1109,-0.1145,-0.3251,-0.5179,0.0,0.0,0.0,0.0,0.0,0.0,0.0,0.0,0.0,0.0,0.0,0.0,0.0,0.0,0.0,0.0,0.0,0.0,0.0,0.0,0.0,0.7929,0.9318,0.9193,1.0057,1.0872,1.1293,1.1373,1.1955,1.3398,1.4108,1.5204,1.6906,1.7833,1.8669,1.9456,1.9543,1.9376,1.893,1.858,1.8234,1.7873,1.741,1.7183,1.7244,1.5503,1.4932,1.5397,1.3912,1.3753,1.4617,1.4115,1.4489,1.5432,1.4466,1.5041,1.6292,1.412,1.2765,1.1865,0.9841,0.8721,0.8486,1.0665,1.2177,1.3213,1.3576,1.3828,1.4095,1.4648,1.3749,1.3006,1.5381,1.3116,1.0015,1.0338,0.9649,0.8622,0.7669,0.8278,0.9016,0.8829,0.8675,0.8324,0.7558,0.6803,0.6215,0.6173,0.5782,0.5518,0.5825,0.5953,0.0,0.6501,0.6967,0.7362,0.7607,0.7957,0.8303,0.8595,0.8061,0.7529,0.6985,0.6355,0.5664,0.475,0.4466,0.3217,0.0936,-0.0868,-0.2894,0.0,0.0,0.0,0.0,0.0,0.0,0.0,0.0,0.0,0.0,0.0,0.0,0.0,0.0,0.0,0.0,0.0,0.0,0.0,0.0,0.0,0.0,0.9387,1.0571,1.0765,1.1169,1.1511,1.1764,1.1598,1.203,1.3486,1.454,1.5731,1.7176,1.8198,1.9044,1.9684,1.9865,1.9735,1.9257,1.907,1.8869,1.8632,1.8319,1.8228,1.8338,1.7234,1.6903,1.7182,1.6203,1.6149,1.6757,1.5939,1.6071,1.679,1.5486,1.5882,0.0,0.0,0.0,0.0,0.0,0.8504,0.9416,1.075,1.2632,1.4435,1.4621,1.4861,1.5125,1.5403,1.4492,1.37,1.5561,1.3453,1.0608,1.0555,0.9687,0.8604,0.7698,0.8197,0.8878,0.8699,0.8805,0.8781,0.8144,0.7335,0.0,0.6289,0.548,0.5009,0.5361,0.5361,0.5529,0.613,0.6349,0.6631,0.718,0.7367,0.7618,0.8004,0.741,0.0,0.0,0.0,0.5156,0.4271,0.3809,0.0,0.0,0.0,-0.2083,-0.3754,0.0,0.0,0.0,-0.7379,-0.8116,0.0,0.0,0.0,0.0,0.0,0.0,0.0,0.0,0.0,0.0,0.0,0.0,0.0,0.0,0.0,0.0,1.0477,1.1432,1.1577,1.1612,1.1683,1.1818,1.1662,1.2038,1.3254,1.4537,1.5751,1.678,1.806,1.913,1.9908,0.0,0.0,0.0,0.0,1.9391,1.9707,1.9195,1.92,1.973,1.9718,1.9785,1.9928,1.9838,1.9844,1.9843,1.7933,1.7845,1.8888,1.6576,1.6847,1.8135,1.2191,0.9781,0.9058,0.412,0.4147,0.6988,0.9061,0.0,0.0,1.632,1.6545,1.6609,1.6386,1.5704,1.5064,1.5448,1.429,1.2616,1.1478,1.0429,0.9518,0.8827,0.8772,0.882,0.8723,0.9159,0.9426,0.8805,0.8211,0.7578,0.6875,0.569,0.5058,0.562,0.5361,0.5399,0.6221,0.605,0.6093,0.6822,0.0,0.0,0.7362,0.6438,0.5843,0.5841,0.5096,0.4267,0.3398,0.258,0.1651,0.0584,-0.0214,-0.1016,-0.1919,-0.2342,-0.3033,-0.4095,-0.6186,-0.7296,0.0,0.0,0.0,0.0,0.0,0.0,0.0,0.0,0.0,0.0,0.0,0.0,0.0,0.0,0.0,1.069,1.1744,1.2265,1.1673,1.1743,1.1734,1.1461,1.1008,1.1372,1.2992,1.4931,1.641,1.716,1.8916,2.0067,2.0297,2.041,2.0158,1.9458,1.9846,1.9764,1.9155,1.9613,1.9888,1.9935,0.0,0.0,2.0031,1.8958,1.8876,1.9588,1.9215,1.8944,1.8689,1.7562,1.7307,1.7462,1.5893,1.4852,1.3955,1.1734,1.1126,1.1641,1.3,1.4254,1.5359,1.5921,1.62,1.6181,1.549,1.3929,0.0,1.3787,1.114,0.7966,0.7904,0.7959,0.8039,0.8324,0.8822,0.931,0.9718,0.9372,0.8878,0.8529,0.8062,0.7467,0.67,0.5819,0.5183,0.5154,0.5062,0.514,0.5404,0.5755,0.5907,0.5815,0.6404,0.6756,0.6719,0.6509,0.6263,0.6047,0.5099,0.4323,0.3907,0.3366,0.2861,0.2272,0.1162,-0.0055,-0.1332,-0.1886,-0.2797,-0.4175,-0.5381,-0.6384,0.0,0.0,0.0,0.0,0.0,0.0,0.0,0.0,0.0,0.0,0.0,0.8358,1.0889,0.0,1.1278,1.1642,1.2061,1.2138,1.152,1.1585,1.1657,1.1483,1.1848,1.2609,1.3926,1.6112,1.7656,1.8125,1.9558,2.0402,2.0445,2.0485,2.0265,1.9776,2.017,2.0132,1.9612,2.0031,2.0213,2.0147,1.9471,1.9423,1.9924,1.9192,1.9083,1.9502,1.9637,1.9043,1.797,1.7753,1.7696,1.7734,1.7485,1.6248,1.4473,1.3489,1.2641,1.213,1.3135,1.4251,1.5344,1.6182,1.6367,1.6215,1.6052,1.4895,1.3699,1.3973,1.1942,0.9582,0.9163,0.8867,0.8762,0.8911,0.9361,0.9797,1.0012,1.0099,0.9962,0.9248,0.895,0.8431,0.7287,0.6368,0.5561,0.4975,0.4975,0.5019,0.5111,0.5415,0.5631,0.5491,0.582,0.6035,0.6059,0.5809,0.5684,0.5681,0.4747,0.4128,0.4015,0.358,0.3084,0.2465,0.1512,0.0448,-0.0728,-0.1322,-0.2362,-0.3779,-0.4548,-0.5714,0.0,0.0,0.0,0.0,0.0,0.0,0.0,0.0,0.8042,0.8364,0.9169,1.0251,1.1721,1.2092,1.2174,1.221,1.2133,1.1915,1.1556,1.17,1.1927,1.2143,1.3077,1.4076,1.4934,1.7195,1.871,1.8988,1.9925,2.0506,2.0498,2.0508,2.043,2.0266,2.0403,2.0398,2.0214,2.0297,2.0313,2.0249,2.0058,1.9903,1.9774,1.9576,1.9457,1.9425,1.9511,1.8801,1.7624,1.8013,1.8397,1.8721,1.8643,1.7064,1.4707,1.3611,1.2701,1.213,1.2953,1.4298,1.5836,1.6943,1.707,1.6812,1.7058,1.6499,1.5566,1.4682,1.3697,1.2695,1.1791,1.1095,1.0641,1.0572,1.0532,1.0508,1.0567,1.0871,1.0867,1.0021,0.98,0.9343,0.799,0.6912,0.5927,0.5091,0.4937,0.4941,0.5029,0.5154,0.528,0.541,0.5328,0.5301,0.5511,0.5018,0.4815,0.5117,0.4326,0.3877,0.3898,0.3469,0.286,0.2071,0.1457,0.0728,-0.0168,-0.0896,-0.1902,-0.3178,-0.3727,-0.5089,0.083,0.2626,0.0,0.6137,0.7072,0.8058,0.0,0.0,0.8861,1.0118,1.099,1.1548,1.163,1.2056,1.236,1.2307,1.2471,1.2521,1.2325,1.2708,1.3294,1.4093,1.395,1.4144,1.5088,1.7199,1.8654,1.8976,1.9934,2.0492,2.0505,2.0507,2.0498,2.0477,2.0441,2.0362,2.0283,2.0188,2.009,2.004,1.989,1.9771,1.971,1.9269,1.9089,1.9123,1.8787,1.8637,1.8682,1.9255,1.9972,2.0689,2.0746,2.0019,1.8551,1.5466,1.4567,1.5022,1.5585,1.6263,1.7093,1.8276,1.8572,1.8329,1.7704,1.6965,1.6049,1.4828,1.4095,1.3581,1.3234,1.3246,1.348,1.3933,1.2749,1.1705,1.2432,1.1176,0.9923,0.9959,0.9652,0.9085,0.8123,0.703,0.6129,0.5663,0.5019,0.4718,0.5111,0.4975,0.4932,0.5193,0.5111,0.5101,0.5247,0.4718,0.4416,0.4601,0.4341,0.3955,0.3463,0.3244,0.2629,0.1621,0.1177,0.0617,-0.0,-0.0617,-0.1512,-0.2623,-0.3014,-0.4281,0.0977,0.0,0.0,0.0,0.7504,0.9101,1.0305,1.0044,0.978,1.0694,1.1075,1.1296,1.149,1.176,1.1972,0.0,1.2416,1.2633,1.2584,1.3463,1.4208,1.4469,1.5417,1.6351,1.7053,1.8461,1.9438,1.9735,2.0177,2.0437,2.0447,2.0481,2.0508,2.0499,2.0474,2.0439,2.0366,2.02,2.005,1.9934,1.9682,1.9504,1.9405,1.9079,1.9285,1.9823,1.9028,1.9026,1.9636,2.0014,2.0377,2.0789,2.1723,2.1613,2.0609,1.7891,1.6763,1.6542,1.5835,1.6024,1.6577,1.7076,1.7134,1.699,1.6908,1.6736,1.6294,1.4892,1.4471,1.4322,1.3878,1.3902,1.4163,1.4654,1.3877,1.3009,1.3115,1.2213,1.1107,1.0081,0.9801,0.918,0.753,0.6677,0.6003,0.5267,0.4876,0.4716,0.4918,0.5024,0.5067,0.4975,0.4806,0.47,0.4633,0.4345,0.4293,0.4474,0.425,0.3963,0.363,0.3241,0.2683,0.1902,0.157,0.1122,0.0505,-0.0,-0.0728,-0.1567,-0.2238,-0.3181,0.1355,0.0,0.0,0.6308,0.8249,1.0028,1.0666,1.0454,1.0285,1.0739,1.0849,1.0991,1.137,1.1571,1.1856,1.2354,1.2768,1.32,1.3715,1.4604,1.5286,1.5496,1.6783,1.798,1.876,1.946,1.9964,2.0255,2.0352,2.0405,2.0428,2.0467,2.0507,2.0504,2.048,2.0428,2.0354,2.0148,1.9973,1.9817,1.9532,1.9308,1.917,1.9111,1.9416,1.9974,1.9561,1.9764,2.0418,2.0862,2.1099,2.1345,2.271,2.3009,2.2478,2.0784,1.9467,1.8286,1.6906,1.6758,1.7135,1.7059,1.6957,1.6917,1.7076,1.7133,1.6849,1.5535,1.5184,1.5111,1.4695,1.4817,1.511,1.5582,1.4951,1.4184,1.4031,1.3127,1.1952,1.0606,1.0049,0.9191,0.741,0.6528,0.5785,0.5092,0.478,0.4668,0.4772,0.5029,0.498,0.4539,0.4499,0.4394,0.4101,0.3996,0.4094,0.4386,0.4091,0.3944,0.3849,0.3408,0.2905,0.2406,0.2018,0.1514,0.101,0.0505,-0.0168,-0.0896,-0.1623,-0.2406,0.0,0.0,0.6793,0.8611,1.0172,1.1149,1.0875,1.0442,1.016,1.0371,1.0739,1.1062,1.1285,1.163,1.2249,1.3375,1.3894,1.4689,1.625,1.6337,1.6709,1.7931,1.7804,1.8154,0.0,1.9698,1.9836,2.0192,2.0334,2.0434,2.0484,2.05,2.0507,2.0503,2.043,2.0336,2.0215,2.0012,1.9805,1.9625,1.9475,1.9298,1.9105,1.9425,1.9342,1.9024,2.0288,2.0849,2.0968,2.2004,2.2625,2.3035,2.3987,2.4459,2.4566,2.4256,2.2805,2.086,1.9908,1.9656,1.9765,1.9631,1.958,1.9521,1.9124,1.8615,1.7969,1.7083,1.6418,1.5973,1.6099,1.6574,1.7133,1.7586,1.6368,1.5176,1.5639,1.3625,1.1725,1.1745,1.0321,0.891,0.8265,0.6738,0.5574,0.5417,0.4842,0.4504,0.4747,0.481,0.4495,0.3711,0.4152,0.4308,0.3872,0.3705,0.3768,0.4111,0.3904,0.3849,0.4012,0.3738,0.3347,0.2905,0.2181,0.1624,0.129,0.0673,-0.0056,-0.0894,-0.1174,-0.2015,0.0,0.0,0.805,0.9191,1.0408,1.1349,1.1215,1.0703,1.0371,1.0831,1.1144,1.1555,1.2343,1.2416,1.2911,1.4532,1.4683,1.5071,1.6476,1.7229,1.7834,1.8395,1.8739,0.0,0.0,0.0,0.0,2.0101,2.0131,2.0199,2.037,2.0443,2.0508,2.0494,2.0434,2.0572,2.0929,2.0779,2.0866,2.1187,2.037,1.9644,1.8984,1.9825,2.0162,2.0228,2.1201,2.1711,2.1902,2.2636,2.2977,2.3081,2.4134,2.4521,2.4419,2.3802,2.3372,2.2927,2.1797,2.0964,2.0312,1.9957,1.9498,1.9006,1.8506,1.8471,1.8335,1.7109,1.6987,1.7118,1.6767,1.6662,1.6881,1.7885,1.6439,1.5029,1.5727,1.4091,1.2234,1.1376,1.05,0.9158,0.6879,0.6332,0.5851,0.4779,0.4264,0.4109,0.4428,0.3928,0.3584,0.3649,0.3568,0.3499,0.3414,0.3416,0.3454,0.3495,0.3794,0.3862,0.3597,0.3788,0.3565,0.2868,0.2546,0.2184,0.1736,0.1346,0.0841,0.028,-0.0224,-0.1008,0.0,0.7447,0.934,1.017,1.0872,1.1271,1.09,1.0534,1.0445,1.1052,1.1236,1.1651,1.281,1.2974,1.3534,1.544,1.5783,1.6257,1.7619,1.8294,1.874,1.8995,1.9329,1.9665,0.0,0.0,0.0,2.012,2.0131,2.0173,2.0337,2.0445,2.0507,2.0494,2.0426,2.0566,2.0891,2.0811,2.1023,2.1566,2.0999,2.0391,1.9776,2.0512,2.098,2.1198,2.1692,2.2195,2.2673,2.2965,2.3157,2.3356,2.4026,2.4313,2.4153,2.3059,2.3126,2.3586,2.2445,2.1556,2.084,2.0344,1.9682,1.8989,1.8673,1.8715,1.8627,1.7473,1.7512,1.7777,1.7215,1.7057,1.719,1.784,1.6567,1.5263,1.5488,1.4177,1.263,1.1538,1.0634,0.9251,0.6861,0.6074,0.5336,0.417,0.3566,0.3362,0.3675,0.3307,0.3001,0.3045,0.3052,0.2993,0.2818,0.2978,0.3042,0.2989,0.3305,0.3473,0.3318,0.3594,0.3506,0.2978,0.2806,0.2519,0.2071,0.157,0.1178,0.0785,0.0224,-0.0392,0.79,0.9304,1.067,1.1623,1.1579,1.107,1.011,1.0034,1.0371,1.0978,1.0973,1.1315,0.0,0.0,1.4178,1.6183,1.7135,1.8128,1.9601,1.9529,1.946,0.0,0.0,0.0,0.0,0.0,0.0,2.0269,0.0,2.0316,2.0396,2.0462,2.0503,2.0497,2.0428,2.034,2.0257,2.0259,2.0464,2.0867,2.1346,2.1478,2.1301,2.1458,2.1642,2.1777,2.1783,2.2331,2.3194,2.2923,2.3186,2.3696,2.3762,2.389,2.386,2.2291,2.2304,2.2958,2.193,2.1542,2.1399,2.0928,2.0214,1.9545,1.9598,1.9327,1.8873,1.8133,1.8,1.7988,1.7512,1.7781,1.8026,1.7504,1.6695,1.5836,1.5068,1.3922,1.2844,1.2202,1.0592,0.9064,0.808,0.5914,0.4156,0.363,0.2801,0.2361,0.2645,0.2909,0.2791,0.1973,0.2611,0.281,0.2199,0.2464,0.264,0.2602,0.256,0.2699,0.3045,0.3265,0.3332,0.3179,0.2848,0.2567,0.2184,0.1457,0.0954,0.0617,0.0224,-0.0168,1.1667,1.234,1.2476,1.2537,1.2118,1.1549,1.1047,1.0554,1.0347,1.0841,1.0837,1.1391,0.0,0.0,0.0,1.7523,1.7938,0.0,1.9763,1.9828,0.0,2.0077,0.0,2.0095,2.0181,2.0145,0.0,0.0,2.0195,2.0127,2.0234,2.0414,2.0481,2.0428,2.0415,2.0578,2.0937,2.1979,2.2224,2.1693,2.2277,2.208,2.1245,2.1938,2.1925,2.1362,2.1556,2.1764,2.195,2.189,2.2076,2.2531,2.3171,2.3364,2.3177,2.2246,2.2503,2.3074,2.1828,2.1266,2.1203,2.1675,2.0976,1.9926,1.9793,1.9545,1.9157,1.848,1.8261,1.8128,1.7608,1.745,1.7404,1.723,1.6273,1.5369,1.5174,1.4239,1.3073,1.1826,0.9442,0.7434,0.6783,0.4897,0.3375,0.2995,0.2175,0.1857,0.2455,0.1911,0.1633,0.2003,0.178,0.19,0.2502,0.2241,0.2205,0.2635,0.2637,0.265,0.2674,0.3069,0.3175,0.2912,0.2906,0.267,0.2184,0.1679,0.1232,0.0954,0.0617,0.028,1.2896,1.3379,1.348,1.3042,1.2488,1.1953,1.1534,1.1024,1.0712,1.0982,1.0884,0.0,0.0,0.0,0.0,0.0,0.0,0.0,1.9925,2.005,2.0105,0.0,2.0296,0.0,2.0837,2.0553,2.0508,0.0,2.0482,2.0216,2.034,2.0477,2.0502,2.0441,2.041,2.0514,2.0765,2.184,2.2116,2.1625,2.2508,2.2557,2.1868,2.2414,2.2299,2.1718,0.0,2.1378,2.1543,2.1446,2.1695,2.2184,2.2832,2.301,2.2773,2.162,2.1866,2.2496,2.0489,2.0297,2.0971,2.1295,2.0795,2.0027,1.9811,1.9711,1.9498,1.877,1.8556,1.8459,1.8059,1.7626,1.7276,1.7026,1.6138,1.5242,1.4806,1.4053,1.2955,1.1205,0.8916,0.7016,0.6211,0.4664,0.3343,0.2801,0.2009,0.1597,0.1854,0.1433,0.1154,0.1259,0.1394,0.1611,0.1958,0.1997,0.2062,0.2239,0.2417,0.2462,0.2375,0.293,0.3119,0.2947,0.3054,0.2932,0.2566,0.1463,0.1038,0.1318,0.0445,0.0112,1.2921,1.3457,1.4033,1.3377,1.2871,1.236,1.1824,1.1373,1.1127,1.1176,0.0,1.1049,1.2358,1.3875,1.5449,1.7043,0.0,1.9825,2.006,2.0214,2.0269,2.0215,2.032,2.0676,2.1353,2.0804,2.0718,2.1487,2.0847,2.0437,2.0497,2.0561,2.0563,2.05,2.0437,2.034,2.0208,2.0878,2.1195,2.1124,2.2306,2.2812,2.2716,2.2645,2.2555,2.2395,2.1285,2.1038,2.1383,2.1289,2.1546,2.2057,2.2473,2.2668,2.2554,2.1045,2.1168,2.1769,1.9171,1.9389,2.0763,2.0336,2.0104,1.9939,1.9776,1.9837,1.9791,1.8983,1.8757,1.8707,1.8324,1.7825,1.7261,1.6748,1.6083,1.53,1.4314,1.3587,1.2577,1.0748,0.896,0.7367,0.6195,0.4947,0.3802,0.2808,0.2009,0.1408,0.1076,0.119,0.1045,0.04,0.122,0.1656,0.1252,0.1729,0.1947,0.1689,0.2041,0.2226,0.2199,0.2733,0.3067,0.313,0.3188,0.3103,0.2966,0.135,0.0901,0.1547,0.0275,-0.0056,1.4206,1.4367,1.4467,1.3971,1.3444,1.2888,1.2246,1.1366,0.0,0.0,1.047,1.0506,1.2284,1.3109,1.4338,1.6817,0.0,0.0,0.0,0.0,2.0219,0.0,0.0,0.0,0.0,0.0,0.0,0.0,0.0,2.0483,2.0497,2.0513,2.0508,2.0503,2.0376,2.0315,2.0282,2.0994,2.1287,2.1197,2.1868,2.2382,2.2738,2.194,2.202,2.2747,2.1444,0.0,2.0371,2.0733,2.075,2.067,2.1472,2.2044,2.2349,2.1998,2.2056,2.2139,2.0705,2.0547,2.078,1.9556,1.9499,1.9907,1.9812,1.9764,1.9573,1.8712,1.8347,1.8023,1.7078,1.6841,1.6646,1.5828,1.5555,1.5193,1.4355,1.3108,1.1984,1.1476,0.9816,0.808,0.6789,0.555,0.4215,0.2666,0.1638,0.0971,0.0807,0.0711,0.0763,0.1085,0.0887,0.1027,0.1701,0.1562,0.1515,0.1611,0.1826,0.2031,0.2107,0.2525,0.2893,0.3178,0.3203,0.3072,0.277,0.2553,0.2123,0.1601,0.1543,0.14,1.4862,1.481,1.4612,1.446,1.3922,1.3354,1.2974,0.0,0.0,0.0,1.0664,1.0717,1.2531,0.0,0.0,0.0,0.0,0.0,0.0,0.0,0.0,0.0,0.0,0.0,0.0,0.0,0.0,0.0,0.0,2.0492,2.0503,2.0508,2.0495,2.05,2.0395,2.0332,2.0308,2.0646,2.0756,2.0627,2.1217,2.1593,2.1742,2.1369,2.1441,2.1815,2.0705,2.0266,2.0304,2.0289,2.0416,2.0701,2.1442,2.1849,2.2015,2.2304,2.2231,2.1798,2.0439,2.0243,2.0326,1.8737,1.8889,1.9663,1.9495,1.9623,1.9667,1.8724,1.8414,1.8125,1.7127,1.6581,1.6207,1.5886,1.5367,1.4686,1.3818,1.2958,1.2116,1.1293,0.9817,0.8328,0.7147,0.5709,0.4157,0.259,0.17,0.1001,0.0369,0.0471,0.0679,0.087,0.0966,0.0992,0.0904,0.1266,0.1479,0.1468,0.1718,0.1976,0.2284,0.2682,0.2976,0.3175,0.3266,0.3242,0.308,0.2272,0.1975,0.2078,0.1648,0.1452,1.5007,1.4947,1.4691,1.471,1.4283,1.3757,1.343,1.2468,0.0,0.0,1.1136,1.1211,1.2754,0.0,0.0,0.0,0.0,0.0,0.0,0.0,0.0,0.0,0.0,0.0,0.0,0.0,0.0,0.0,0.0,2.0521,2.0504,2.049,2.0497,2.0509,2.0457,2.0391,2.0346,2.034,2.0242,2.0125,2.0581,2.0815,2.0825,2.0803,2.0892,2.0954,2.0044,1.9907,2.0284,1.9913,2.0201,2.0923,2.1462,2.1769,2.1924,2.2453,2.2186,2.1403,2.0081,1.9865,1.9918,1.839,1.8568,1.9347,1.9214,1.9501,1.9671,1.8626,1.8376,1.815,1.706,1.621,1.5678,1.5753,1.5123,1.4308,1.3484,1.3139,1.2611,1.1366,1.0037,0.8815,0.7746,0.6081,0.4411,0.2997,0.2222,0.1434,0.0302,0.0336,0.0471,0.0504,0.1011,0.1072,0.0287,0.0972,0.1392,0.1199,0.1554,0.1952,0.2326,0.2726,0.299,0.317,0.3306,0.3375,0.3422,0.2158,0.1887,0.2607,0.1752,0.156,1.4466,1.4719,1.4885,1.4524,1.4384,1.4087,1.3093,0.0,0.0,1.2066,1.1745,1.1791,1.2746,1.3783,0.0,0.0,0.0,0.0,0.0,0.0,0.0,0.0,0.0,0.0,0.0,0.0,0.0,0.0,2.0683,2.0557,2.0509,2.0503,2.0507,2.0494,2.0494,2.0487,2.0476,2.041,2.0321,2.0192,2.0125,2.0405,2.096,2.0193,2.0391,2.1295,2.0291,1.9791,0.0,1.9641,1.991,2.0402,2.0826,2.1539,2.236,2.2659,2.228,2.1502,2.0883,2.0417,1.9953,1.9057,1.8898,1.909,1.9324,1.9449,1.9307,1.8111,1.7787,1.7416,1.5799,1.514,1.482,1.4471,1.4483,1.4481,1.4087,1.3745,1.3322,1.2639,1.1434,1.0155,0.9024,0.732,0.5731,0.4471,0.3468,0.2411,0.1138,0.0235,-0.0101,0.0437,0.0777,0.0983,0.0983,0.0823,0.0716,0.0749,0.1361,0.1764,0.188,0.2417,0.2815,0.3034,0.317,0.333,0.3567,0.3308,0.3176,0.3136,0.2971,0.2796,1.5149,1.5136,1.4906,1.4791,1.4555,1.4064,1.2983,0.0,1.216,1.1758,1.17,1.2179,1.3698,1.471,1.5799,0.0,0.0,0.0,0.0,0.0,0.0,0.0,0.0,0.0,0.0,0.0,0.0,0.0,2.0544,2.0531,2.0494,2.0549,2.0539,2.0492,2.0499,2.0506,2.0506,2.0472,2.041,2.032,2.0234,2.0286,2.0448,2.0012,2.0026,2.0352,1.9829,1.9738,0.0,1.9539,1.9709,2.0238,2.0314,2.0577,2.1011,2.1972,2.1493,2.0418,2.0926,2.0364,1.9398,1.9107,1.9039,1.9093,1.9335,1.9569,1.9448,1.8136,1.7796,1.7421,1.5765,1.5115,1.4776,1.4211,1.4228,1.4183,1.3517,1.3343,1.3058,1.2199,1.1176,1.0011,0.8626,0.7242,0.5716,0.3987,0.3139,0.2159,0.0634,0.0134,-0.0101,-0.0101,0.0303,0.0538,0.0336,0.0424,0.0484,0.0509,0.1024,0.1499,0.1925,0.2551,0.2993,0.3214,0.3306,0.3556,0.403,0.3605,0.3434,0.3503,0.3575,0.3372,1.5159,1.5042,1.4728,1.4732,1.4306,1.3612,0.0,0.0,1.1943,1.1591,1.1767,1.2498,1.4176,1.5396,1.6522,0.0,0.0,1.9777,0.0,0.0,0.0,0.0,0.0,0.0,0.0,0.0,0.0,0.0,2.0495,2.0504,2.0494,2.0531,2.056,2.0501,2.0506,2.0499,2.05,2.0496,2.0467,2.0395,2.0359,2.028,2.015,2.0041,1.9924,1.9775,1.9607,1.9745,0.0,1.9503,1.9663,2.0247,2.0199,2.0197,2.0402,2.1467,2.0969,1.9861,2.0709,2.0192,1.9134,1.9196,1.9243,1.9286,1.9511,1.9696,1.9545,1.8164,1.7465,1.6853,1.5638,1.5047,1.4625,1.4053,1.3944,1.3818,1.3143,1.3109,1.2953,1.205,1.1227,1.0217,0.8702,0.7415,0.6013,0.4247,0.3224,0.215,0.0797,0.0334,0.0,-0.0303,-0.0134,-0.0067,-0.0269,0.0035,0.0223,0.0274,0.0778,0.1284,0.188,0.246,0.2904,0.3176,0.3262,0.3507,0.4026,0.3659,0.3551,0.3711,0.3917,0.377,1.3941,1.421,1.4263,1.4127,1.3515,1.2617,0.0,0.0,1.1474,1.1746,1.216,1.2781,1.3733,1.549,1.6876,1.7153,0.0,0.0,0.0,0.0,0.0,0.0,0.0,0.0,0.0,0.0,0.0,2.0558,2.0506,0.0,2.0506,2.0503,2.0503,2.0506,2.0494,2.0494,2.0506,2.049,2.0465,2.0395,2.0399,2.0353,2.0304,2.0222,2.0115,1.9984,1.9858,1.9802,0.0,1.957,1.9838,2.0406,2.0541,2.0799,2.1125,2.148,2.1043,2.03,2.0316,1.9902,1.9409,1.9471,1.9527,1.9649,1.9899,1.9846,1.9411,1.8082,1.6554,1.5292,1.5146,1.4669,1.4119,1.3783,1.3593,1.3451,1.3244,1.336,1.3293,1.2618,1.2049,1.122,0.9729,0.8278,0.6942,0.5914,0.4194,0.2783,0.2153,0.0968,0.0168,0.0101,-0.0504,-0.0773,-0.0504,-0.0318,-0.0149,-0.0,0.0573,0.1113,0.1566,0.2057,0.2415,0.2687,0.2901,0.3143,0.3422,0.3519,0.3661,0.3816,0.3928,0.4056,1.4079,1.3835,1.3478,1.3695,1.3151,1.2302,1.1365,0.0,1.1736,1.1511,1.2215,1.3023,1.3648,1.5269,1.6668,1.7135,1.8686,0.0,0.0,0.0,0.0,0.0,0.0,0.0,0.0,0.0,0.0,2.061,2.0467,2.0434,2.0433,2.0425,2.0432,2.0426,2.0437,2.0434,2.0439,2.039,2.0385,2.0395,2.0388,2.0385,2.0379,2.0301,2.0258,2.0203,2.0169,2.0115,2.0079,1.9993,2.0038,2.0131,2.0024,2.0025,2.0148,2.0711,2.0344,1.9648,2.0326,2.0062,1.9416,1.9536,1.9649,1.9757,1.995,1.9984,1.9676,1.8181,1.6978,1.5942,1.5216,1.486,1.4501,1.3792,1.3693,1.3548,1.2697,1.2492,1.2325,1.1782,1.0948,1.0018,0.9,0.794,0.6857,0.5705,0.463,0.3566,0.2511,0.1665,0.0938,0.0437,-0.0101,-0.0437,-0.0437,-0.0376,-0.0283,-0.0223,0.0585,0.1184,0.1455,0.2071,0.2593,0.2901,0.3126,0.3503,0.4003,0.3979,0.3949,0.3935,0.3791,0.3824,0.0,1.3288,1.2835,1.3066,1.2585,0.0,0.0,0.0,1.1758,1.1856,1.2523,1.3305,1.3926,1.5248,1.6471,1.713,1.842,0.0,0.0,0.0,0.0,0.0,0.0,0.0,0.0,0.0,2.2299,2.0593,2.0405,2.036,2.0369,2.0332,2.0327,2.032,2.0355,2.0355,2.0308,2.0276,2.0283,2.0314,2.0308,2.034,2.036,2.032,2.0299,2.0304,2.0269,2.0242,0.0,2.0277,2.0223,2.0145,1.999,1.9879,1.9842,2.0262,2.002,1.9567,2.0206,2.0081,1.963,1.972,1.9823,1.9947,2.0077,1.9938,1.9449,1.8164,1.7164,1.6224,1.5066,1.4597,1.4231,1.3549,1.3242,1.2938,1.2273,1.1942,1.1672,1.1298,1.0476,0.9536,0.8618,0.7722,0.6755,0.5602,0.4776,0.3899,0.2911,0.2065,0.1341,0.0773,0.0269,-0.0034,-0.0134,-0.0303,-0.0344,-0.0182,0.0419,0.088,0.1214,0.1926,0.246,0.2724,0.3081,0.3483,0.3968,0.405,0.4135,0.4177,0.4134,0.4352,0.0,1.2609,1.2332,1.2395,1.189,1.132,1.0894,0.0,0.0,1.2621,1.3081,1.3598,1.4489,1.5432,1.6356,1.7269,0.0,0.0,0.0,0.0,0.0,0.0,0.0,0.0,0.0,0.0,2.2202,2.0529,2.0334,2.0299,2.0302,2.0246,2.0211,2.0188,2.0255,2.0257,2.0185,2.018,2.0184,2.0195,2.0192,2.0219,2.0296,2.0285,2.0292,0.0,2.0161,2.0181,2.0296,2.0321,2.0334,2.0385,2.0334,2.0224,2.0131,2.0126,2.0039,1.9936,2.0003,2.0012,2.0002,2.0009,2.0069,2.0134,2.0249,1.9784,1.9009,1.8148,1.7264,1.6247,1.485,1.4065,1.3561,1.3126,1.245,1.1911,1.1968,1.1672,1.1283,1.101,1.039,0.9549,0.8508,0.7579,0.6627,0.5672,0.468,0.3871,0.3392,0.2302,0.1475,0.1177,0.0672,0.037,0.037,-0.0067,-0.024,-0.0036,0.0152,0.0479,0.0958,0.1613,0.2055,0.2324,0.2812,0.3214,0.3486,0.3943,0.4295,0.4574,0.4874,0.5354,1.2445,0.0,1.1786,1.2163,1.1943,1.163,0.0,0.0,0.0,0.0,0.0,1.3883,1.5068,1.606,1.7081,1.8258,0.0,0.0,0.0,0.0,0.0,0.0,0.0,0.0,0.0,0.0,2.1427,2.0399,2.0253,2.0242,2.0299,2.0238,2.0188,2.0135,2.0098,2.006,2.005,1.9952,1.9941,2.0059,2.005,2.0079,2.0144,2.0209,2.0208,2.0195,1.9495,1.9615,2.0246,1.9645,1.9799,2.039,2.0374,2.036,2.0316,2.0262,2.0192,2.0127,2.0147,2.0127,2.0084,2.0135,2.0204,2.0251,2.0282,2.0207,1.9915,1.9048,1.8082,1.701,1.5611,1.4717,1.4059,1.3451,1.3042,1.2616,1.1979,1.1417,1.0739,0.9741,0.9192,0.8579,0.7714,0.702,0.6413,0.5811,0.5036,0.4355,0.3821,0.2834,0.2075,0.1814,0.1345,0.1043,0.1009,0.0639,0.0203,-0.0343,0.0469,0.1138,0.159,0.1623,0.1862,0.2457,0.3167,0.3829,0.4451,0.4842,0.5081,0.5267,0.5346,0.5485,1.2475,1.2123,1.1949,1.2301,1.2287,1.2262,1.2444,0.0,0.0,0.0,0.0,0.0,1.5069,1.6035,0.0,0.0,0.0,0.0,0.0,0.0,0.0,0.0,0.0,0.0,0.0,0.0,2.1136,2.0262,2.0159,2.0171,2.0208,2.0144,2.027,2.0632,2.0207,1.9945,1.9945,1.9847,1.9842,1.9919,1.9873,1.9909,2.0001,2.0089,2.0126,2.0115,1.9271,1.9419,2.0196,1.942,1.9604,2.0394,2.043,2.0456,2.0434,2.0418,2.0374,2.0336,2.029,2.0243,2.0206,2.0266,2.0318,2.035,2.0311,2.0352,2.0212,1.935,1.833,1.7174,1.5777,1.4665,1.3739,1.3041,1.2593,1.2151,1.1475,1.0936,1.0282,0.9295,0.875,0.8202,0.7433,0.6708,0.6044,0.5547,0.4814,0.414,0.363,0.2867,0.2242,0.1978,0.1644,0.1378,0.1212,0.1111,0.0748,0.0035,0.0514,0.0926,0.1133,0.1395,0.2008,0.3028,0.3737,0.4443,0.5183,0.5529,0.5701,0.575,0.6023,0.6108,1.2769,1.2665,1.2581,1.2678,1.2838,1.3025,1.3289,0.0,0.0,0.0,0.0,0.0,0.0,0.0,0.0,0.0,0.0,0.0,0.0,0.0,0.0,0.0,0.0,0.0,2.2797,2.1875,2.093,2.0135,2.0183,2.0249,2.0249,2.0321,2.069,2.1434,2.0554,2.0061,2.0061,1.9876,1.9782,1.977,1.9726,1.9762,1.9877,1.9981,2.006,2.0069,0.0,0.0,2.0165,1.9406,1.9613,2.0405,2.048,2.051,2.0492,2.0509,2.0519,2.0511,2.044,2.0362,2.0323,2.0389,2.0408,2.0389,2.0315,2.0327,2.0204,1.9468,1.8458,1.7274,1.588,1.4556,1.3378,1.2578,1.1921,1.1394,1.0964,1.0516,0.9983,0.9131,0.8651,0.8107,0.7257,0.6427,0.5696,0.5163,0.443,0.3756,0.3307,0.2706,0.2208,0.1945,0.1711,0.1477,0.1246,0.1358,0.1217,0.069,0.0569,0.0518,0.0504,0.1402,0.2455,0.3595,0.4303,0.5,0.569,0.613,0.6325,0.6398,0.69,0.7038,1.3492,1.3626,1.3643,1.3275,1.3461,1.3782,1.4011,0.0,0.0,0.0,0.0,0.0,0.0,0.0,0.0,0.0,0.0,0.0,0.0,0.0,0.0,0.0,0.0,0.0,2.2799,2.1244,2.0164,2.0029,2.0589,2.0946,2.0946,2.1582,2.2003,2.2147,2.1286,2.0809,2.0757,2.0062,1.9692,1.9625,1.9744,1.9806,1.9832,2.001,2.0117,2.015,0.0,1.9477,2.0217,1.9422,1.9605,2.04,2.0472,2.0506,2.0494,2.0498,2.0546,2.0583,2.051,2.0438,2.0397,2.0397,2.0399,2.0379,2.0254,2.0212,2.0196,2.0007,1.9257,1.8193,1.6911,1.5735,1.4548,1.3069,1.2321,1.1791,1.1307,1.0733,0.9906,0.8651,0.8374,0.7885,0.651,0.6014,0.5617,0.5011,0.443,0.3914,0.3499,0.2768,0.2208,0.2014,0.1613,0.1313,0.1279,0.1159,0.105,0.1021,0.0992,0.1,0.1087,0.249,0.3303,0.3287,0.4422,0.5422,0.6204,0.6605,0.724,0.8041,0.8114,0.8198,1.3763,1.4011,1.418,1.4077,1.4198,1.4372,1.4535,0.0,0.0,0.0,0.0,0.0,0.0,0.0,0.0,0.0,0.0,0.0,0.0,0.0,0.0,0.0,0.0,2.1692,2.2604,2.106,2.0156,2.0519,2.0891,2.1262,2.1628,2.2069,2.2303,2.2303,2.1448,2.099,2.1003,2.0176,1.9705,1.9602,1.9705,1.9782,1.9862,2.002,2.0173,2.0215,0.0,1.948,2.0241,1.9425,1.9612,2.0414,2.0471,2.0486,2.0443,2.0453,2.0475,2.049,2.0424,2.0362,2.0327,2.0262,2.0205,2.0137,1.9943,1.98,1.9688,1.9593,1.9133,1.8447,1.762,1.6228,1.4714,1.3377,1.2524,1.1822,1.1176,1.0664,1.0072,0.9088,0.8623,0.8047,0.6922,0.6313,0.5734,0.5106,0.4488,0.3946,0.356,0.3035,0.2606,0.2311,0.1914,0.1581,0.1313,0.1172,0.1052,0.0944,0.1067,0.1423,0.1982,0.2909,0.3778,0.4591,0.5336,0.6118,0.6965,0.728,0.7693,0.8165,0.8416,0.839,1.397,1.4228,1.4507,1.4744,0.0,1.4835,1.4968,0.0,0.0,0.0,0.0,0.0,0.0,0.0,0.0,0.0,0.0,0.0,0.0,0.0,0.0,0.0,0.0,2.0938,2.2176,2.1054,2.046,2.0984,2.1405,2.1848,2.2368,2.2707,2.2877,2.2881,2.1862,2.1336,2.14,2.0345,1.9738,1.9597,1.9699,1.9806,1.9907,2.006,2.0203,2.0257,1.9633,1.9725,2.0282,1.9661,1.9804,2.0409,2.0468,2.0455,2.0419,2.0394,2.0362,2.036,2.0308,2.0255,2.015,2.004,1.9955,1.983,1.9551,1.9351,1.9202,1.9088,1.8716,1.8311,1.8019,1.6577,1.4949,1.4018,1.2869,1.1826,1.1301,1.0835,1.0284,0.96,0.9043,0.8406,0.7462,0.67,0.6029,0.5447,0.4873,0.4318,0.3861,0.3528,0.3149,0.2613,0.2214,0.1856,0.1473,0.1524,0.144,0.1208,0.1387,0.1879,0.2788,0.3551,0.4474,0.5594,0.6124,0.6768,0.7523,0.778,0.8033,0.8284,0.8671,0.8621,1.4277,1.4468,1.4665,1.4998,1.5076,0.0,1.5248,1.5271,0.0,0.0,0.0,0.0,0.0,0.0,0.0,0.0,0.0,0.0,0.0,0.0,0.0,0.0,2.2422,2.1259,2.1375,2.1168,2.1054,2.1098,2.2417,2.3255,2.3296,2.408,2.4561,2.4618,2.3042,2.2235,2.23,2.0705,1.98,1.9601,1.9794,1.9885,1.9922,2.0095,2.0238,2.0301,2.0363,2.0382,2.039,2.0325,2.0338,2.0399,2.0419,2.0447,2.0477,2.0357,2.0268,2.0218,2.0276,2.0103,1.9812,1.9749,1.9637,1.9487,1.9217,1.9078,1.9,1.8941,1.831,1.7748,1.8011,1.7046,1.5906,1.5445,1.3573,1.1981,1.2302,1.1541,1.0556,0.9818,0.9456,0.8831,0.7511,0.6889,0.6465,0.6175,0.5868,0.5426,0.4784,0.4322,0.369,0.2793,0.2281,0.1955,0.1873,0.2316,0.2546,0.2398,0.2411,0.2629,0.3149,0.5116,0.5831,0.5091,0.6295,0.7147,0.7523,0.778,0.8288,0.9047,0.9358,0.9557,1.4362,1.4556,1.4763,1.4988,0.0,0.0,0.0,0.0,0.0,0.0,0.0,0.0,0.0,0.0,0.0,0.0,0.0,0.0,0.0,0.0,0.0,2.3034,2.1646,2.0737,2.1179,2.1145,2.1299,2.1808,2.2844,2.3664,2.4126,2.402,2.3742,2.3258,2.2147,2.1374,2.0969,2.0294,1.9928,1.9862,1.9969,2.0031,2.005,2.0753,2.0802,2.0386,2.0937,2.0884,2.0391,2.0391,2.0376,2.0328,2.0192,2.0218,2.0289,2.0115,2.0118,2.0185,2.0129,2.005,1.996,1.9821,1.9651,1.943,1.9091,1.8806,1.857,1.8241,1.7873,1.7616,1.795,1.6554,1.4967,1.4712,1.309,1.1666,1.178,1.1254,1.0726,1.0638,1.0251,0.9723,0.9128,0.8335,0.766,0.7325,0.6909,0.6412,0.5651,0.5165,0.4607,0.3844,0.3026,0.2593,0.2703,0.3424,0.3907,0.3983,0.3625,0.3707,0.4353,0.5351,0.6142,0.6683,0.7273,0.7704,0.7953,0.8126,0.8395,0.8739,0.8957,0.9308,1.4836,1.4916,1.5049,0.0,0.0,0.0,0.0,0.0,0.0,0.0,0.0,0.0,0.0,0.0,0.0,0.0,0.0,0.0,0.0,0.0,2.074,2.2134,2.0976,2.027,2.0766,2.0982,2.135,2.1915,2.2938,2.3756,2.4294,2.4101,2.3604,2.283,2.2021,2.1255,2.0546,2.024,2.0096,2.0095,2.0172,2.0169,2.0196,2.0896,2.0901,2.0405,2.0998,2.0915,2.0374,2.0383,2.0347,2.0248,2.0131,2.0139,2.0215,2.0041,2.006,2.0133,2.006,1.9981,1.987,1.9676,1.9453,1.9201,1.8753,1.845,1.818,1.7844,1.7428,1.718,1.7603,1.6174,1.4663,1.4837,1.3168,1.1601,1.1851,1.136,1.0919,1.1067,1.0862,1.0515,1.0082,0.9373,0.8684,0.8238,0.7839,0.7317,0.6579,0.607,0.5496,0.4666,0.4016,0.3695,0.3809,0.4388,0.4906,0.5245,0.491,0.4961,0.5593,0.6052,0.6748,0.7697,0.8103,0.8357,0.8447,0.8651,0.8765,0.8765,0.8928,0.9338,1.5819,1.5618,0.0,0.0,0.0,0.0,0.0,0.0,0.0,0.0,0.0,0.0,0.0,0.0,0.0,0.0,0.0,0.0,0.0,0.0,2.0423,2.1292,2.0575,1.9991,1.9998,2.0668,2.113,2.1197,2.2691,2.3631,2.3689,2.4512,2.4631,2.3919,2.311,2.2297,2.1504,2.0723,2.0302,2.0313,2.0386,2.0376,2.0296,2.0376,2.038,2.0316,2.0455,2.0437,2.032,2.0386,2.0334,2.0208,2.0211,2.0242,2.0287,2.0222,2.0114,2.0011,2.0079,1.9839,1.9471,1.928,1.9028,1.8698,1.8173,1.7954,1.79,1.7883,1.7071,1.6324,1.6946,1.6112,1.5343,1.6265,1.3992,1.1873,1.2813,1.2048,1.115,1.0962,1.1198,1.1082,1.0017,0.9718,0.9436,0.891,0.8612,0.8197,0.7592,0.7024,0.6261,0.5149,0.513,0.5199,0.521,0.5149,0.5405,0.6079,0.6102,0.6329,0.6807,0.7453,0.7826,0.7826,0.8674,0.9084,0.9022,0.935,0.9439,0.9288,0.9569,0.9917,1.5182,0.0,0.0,0.0,0.0,0.0,0.0,0.0,0.0,0.0,0.0,0.0,0.0,0.0,0.0,0.0,0.0,0.0,0.0,2.0467,2.0246,2.047,2.0269,2.0098,2.0009,2.0747,2.1259,2.1274,2.2806,2.3738,2.3769,2.3515,2.3271,2.3063,2.1731,2.1185,2.1577,2.1333,2.1235,2.1298,2.1352,2.1036,2.0386,2.103,2.0969,2.0405,2.1007,2.0908,2.0342,2.0828,2.0669,2.0183,2.0707,2.0582,2.0078,1.9955,1.9955,2.0009,1.9966,1.9763,1.9476,1.9269,1.8922,1.8534,1.8301,1.7907,1.7545,1.7509,1.7052,1.6584,1.6454,1.5851,1.5238,1.4958,1.3624,1.2514,1.2854,1.2526,1.2292,1.2593,1.2585,1.252,1.2528,1.2163,1.1746,1.1371,1.0855,0.9989,0.8541,0.758,0.6843,0.6259,0.6014,0.6059,0.6489,0.652,0.6749,0.7281,0.7515,0.7531,0.7217,0.7841,0.8277,0.8488,0.9102,0.939,0.935,0.9509,0.9399,0.9105,0.9652,1.0169,1.585,0.0,0.0,0.0,0.0,0.0,0.0,0.0,0.0,0.0,0.0,0.0,0.0,0.0,0.0,0.0,0.0,0.0,0.0,2.0527,2.0115,2.0098,2.0135,2.0126,2.001,2.0486,2.0792,2.0823,2.2073,2.2857,2.2879,2.2796,2.2594,2.2258,2.166,2.1423,2.1634,2.1667,2.1865,2.2257,2.1954,2.148,2.0918,2.1124,2.0901,2.037,2.0822,2.0927,2.0808,2.1168,2.1033,2.0623,2.1075,2.0717,1.999,2.0255,2.0149,1.9934,2.0207,1.9924,1.9387,1.9182,1.889,1.8571,1.8301,1.7971,1.7642,1.7492,1.7199,1.6825,1.6501,1.6002,1.5411,1.486,1.3882,1.3159,1.3304,1.3151,1.3079,1.3346,1.3471,1.3543,1.3605,1.3438,1.3065,1.2363,1.1591,1.0657,0.9464,0.8686,0.8051,0.7433,0.7369,0.7376,0.7499,0.7246,0.7328,0.7869,0.7856,0.7772,0.7641,0.8374,0.8901,0.9159,0.9607,0.9765,0.9686,0.9903,0.9755,0.9346,0.9781,1.0275,0.0,0.0,0.0,0.0,0.0,0.0,0.0,0.0,0.0,0.0,0.0,0.0,0.0,0.0,0.0,0.0,0.0,0.0,0.0,2.1126,2.0116,2.0088,2.0174,2.0155,2.0001,2.0011,2.0041,2.0098,2.0929,2.1445,2.1517,2.2271,2.2362,2.1625,2.2385,2.2444,2.172,2.1916,2.2381,2.3085,2.2362,2.1952,2.1787,2.106,2.0597,2.0372,2.0162,2.0604,2.1468,2.1474,2.1443,2.1401,2.146,2.0931,2.0214,2.1005,2.0696,2.0013,2.0736,2.0274,1.9353,1.9122,1.8914,1.8661,1.8214,1.8048,1.7963,1.7755,1.7392,1.7076,1.6926,1.6389,1.5839,1.5653,1.4648,1.3818,1.4041,1.3896,1.3698,1.3627,1.4025,1.4254,1.3821,1.4043,1.3799,1.2432,1.1375,1.0671,1.0371,1.0113,0.9573,0.86,0.8855,0.8803,0.8156,0.751,0.7396,0.803,0.7526,0.7418,0.7957,0.891,0.9496,0.9643,1.0019,1.0127,0.998,1.0351,1.0283,0.9783,0.9979,1.0326,0.0,0.0,0.0,0.0,0.0,0.0,0.0,0.0,0.0,0.0,0.0,0.0,0.0,0.0,0.0,0.0,0.0,0.0,0.0,2.1238,2.0823,2.0106,2.0671,2.0824,2.0076,2.0097,2.0167,2.0186,2.1024,2.155,2.1589,2.1811,2.1855,2.1675,2.1915,2.1955,2.1773,2.3099,2.3535,2.3102,2.3549,2.3365,2.2646,2.2523,2.1965,2.1033,2.0218,2.0361,2.124,2.179,2.208,2.2212,2.2797,2.2526,2.1808,2.1942,2.1784,2.1518,2.1628,2.0921,1.9885,1.9628,1.8929,1.8153,1.8057,1.7732,1.7415,1.7509,1.7296,1.6968,1.6738,1.6633,1.6512,1.6324,1.5557,1.4877,1.4993,1.4859,1.4815,1.5136,1.514,1.5213,1.5558,1.5634,1.5248,1.3997,1.2816,1.1895,1.1375,1.0751,1.0053,0.926,0.9046,0.8701,0.8083,0.7755,0.7624,0.7787,0.7929,0.7941,0.778,0.8651,0.9136,0.9145,0.9408,0.9607,0.9862,0.9932,0.9902,0.9723,1.0383,1.0717,0.0,0.0,0.0,0.0,0.0,0.0,0.0,0.0,0.0,0.0,0.0,0.0,0.0,0.0,0.0,0.0,0.0,0.0,0.0,2.1093,2.0513,2.0039,2.0451,2.0585,2.0097,2.0144,2.0195,2.0211,2.0677,2.0985,2.1023,2.1058,2.1289,2.1729,2.2185,2.2621,2.3042,2.3905,2.4128,2.3676,2.4066,2.3958,2.3412,2.3018,2.2504,2.1901,2.1266,2.145,2.2227,2.2547,2.2738,2.2857,2.3255,2.2888,2.2185,2.2517,2.2312,2.1885,2.2135,2.128,2.0009,1.9777,1.9044,1.8266,1.8163,1.7932,1.767,1.7641,1.7392,1.7076,1.6763,1.6633,1.6554,1.6448,1.6065,1.5769,1.5811,1.5725,1.5681,1.5911,1.5839,1.5839,1.6093,1.5739,1.5257,1.4761,1.3677,1.2844,1.2577,1.1874,1.1035,1.0026,0.9812,0.9411,0.8539,0.8139,0.7969,0.8039,0.7856,0.7704,0.751,0.8278,0.8822,0.8975,0.9337,0.9576,0.9783,0.9971,0.998,0.9841,1.0309,1.0495,0.0,0.0,0.0,0.0,0.0,0.0,0.0,0.0,0.0,0.0,0.0,0.0,0.0,0.0,0.0,0.0,0.0,0.0,0.0,2.0977,2.0115,2.003,2.0212,2.027,2.0117,2.0182,2.0225,2.0227,2.0296,2.036,2.041,2.057,2.092,2.1555,2.2706,2.3535,2.3958,2.4374,2.4482,2.4273,2.4348,2.4308,2.4159,2.3417,2.2798,2.23,2.1966,2.2299,2.3086,2.298,2.3132,2.3442,2.3442,2.3017,2.25,2.308,2.2774,2.2173,2.2641,2.1742,2.0325,2.002,1.9391,1.8713,1.8516,1.8291,1.8095,1.7963,1.7602,1.7216,1.6908,1.6649,1.6436,1.6382,1.6382,1.6409,1.6371,1.6289,1.6246,1.6262,1.6262,1.6262,1.6207,1.5419,1.4864,1.5077,1.4168,1.3467,1.3529,1.2836,1.187,1.0626,1.0526,1.0083,0.8968,0.8474,0.8224,0.8343,0.7738,0.7413,0.7491,0.8134,0.8659,0.9016,0.9395,0.9634,0.9783,1.0127,1.0205,1.0098,1.0235,1.0429,0.0,0.0,0.0,0.0,0.0,0.0,0.0,0.0,0.0,0.0,0.0,0.0,0.0,0.0,0.0,0.0,0.0,0.0,0.0,2.1214,2.0859,2.0174,2.0766,2.0938,2.0164,2.02,2.0299,2.0287,2.0404,2.0488,2.0492,2.1204,2.1325,2.0696,2.2987,2.356,2.2157,2.4282,2.4962,2.4212,2.4793,2.5028,2.4954,2.4702,2.3372,2.1167,2.027,2.064,2.1912,2.1843,2.2703,2.4063,2.4026,2.4026,2.4079,2.4063,2.3914,2.3686,2.3637,2.2869,2.1793,2.1054,2.0164,1.9342,1.9137,1.8517,1.7929,1.8285,1.7815,1.7174,1.7023,1.6863,1.6727,1.6596,1.6528,1.6421,1.6207,1.6055,1.6067,1.6463,1.6581,1.6607,1.6528,1.5794,1.5181,1.5107,1.4296,1.3568,1.3285,1.2591,1.1692,1.0531,1.0113,0.9515,0.8468,0.8291,0.8185,0.815,0.8159,0.8221,0.8326,0.8675,0.8952,0.9177,0.9073,0.9243,0.9723,0.9991,1.0254,1.0544,1.0943,1.1382,0.0,0.0,0.0,0.0,0.0,0.0,0.0,0.0,0.0,0.0,0.0,0.0,0.0,0.0,0.0,0.0,0.0,0.0,0.0,2.0842,2.0439,2.0136,2.0442,2.0536,2.0188,2.0208,2.0253,2.0294,2.0394,2.0456,2.049,2.0855,2.1344,2.1949,2.3072,2.3751,2.3932,2.4981,2.524,2.4764,2.4539,2.4393,2.4364,2.4225,2.379,2.3103,2.2498,2.2582,2.3143,2.2995,2.3473,2.4247,2.4192,2.4229,2.4339,2.4247,2.4077,2.3876,2.3685,2.2968,2.2078,2.1603,2.0835,2.0032,1.9865,1.9171,1.8441,1.8584,1.7889,1.71,1.6924,1.6779,1.6633,1.649,1.6355,1.6219,1.6026,1.6151,1.6355,1.6607,1.6351,1.6034,1.5894,1.5301,1.48,1.4658,1.4144,1.3728,1.3669,1.2871,1.2057,1.1389,1.0714,1.0024,0.9366,0.9088,0.8898,0.8781,0.8616,0.8536,0.8504,0.8785,0.8961,0.8961,0.9239,0.9475,0.9753,1.0108,1.0447,1.084,1.1057,1.1389,0.0,0.0,0.0,0.0,0.0,0.0,0.0,0.0,0.0,0.0,0.0,0.0,0.0,0.0,0.0,0.0,0.0,0.0,0.0,2.0386,2.0039,2.0117,2.0126,2.0161,2.0215,2.0231,2.026,2.0315,2.0594,2.0772,2.0828,2.1243,2.1991,2.3076,2.3514,2.4222,2.5234,2.5364,2.5351,2.519,2.4469,2.41,2.4069,2.3963,2.4105,2.4403,2.3747,2.3652,2.3916,2.3507,2.371,2.4229,2.4191,2.4192,2.4266,2.4154,2.3979,2.3774,2.3567,2.2868,2.2036,2.189,2.1225,2.0418,2.0298,1.9576,1.8773,1.8593,1.7823,1.6993,1.6789,1.6659,1.6501,1.6301,1.6163,1.6039,1.5856,1.6136,1.6448,1.6512,1.6006,1.5492,1.5448,1.4954,1.4547,1.4497,1.4189,1.396,1.3967,1.3113,1.2354,1.1934,1.1196,1.0572,1.0235,0.9843,0.9558,0.9558,0.9199,0.8958,0.8873,0.9107,0.9156,0.9121,0.9548,0.9862,0.9971,1.0418,1.084,1.118,1.1282,1.1645,0.0,0.0,0.0,0.0,0.0,0.0,0.0,0.0,0.0,0.0,0.0,0.0,0.0,0.0,0.0,0.0,0.0,0.0,0.0,2.0088,2.0117,2.0199,2.0186,2.0215,2.0295,2.0347,2.0385,2.0391,2.1212,2.1723,2.1735,2.33,2.3853,2.3118,2.4637,2.509,2.4276,2.4899,2.5206,2.5191,2.5019,2.491,2.4842,2.4775,2.4272,2.3375,2.1704,2.1752,2.2905,2.199,2.2611,2.4094,2.4036,2.4077,2.4173,2.3998,2.3876,2.3774,2.3567,2.2817,2.1931,2.1972,2.1237,2.0291,2.0135,1.9411,1.8552,1.8219,1.7549,1.6837,1.6581,1.6501,1.6448,1.6163,1.6095,1.6011,1.5697,1.5739,1.5894,1.608,1.5681,1.5419,1.5737,1.521,1.4825,1.4951,1.4627,1.4246,1.3934,1.3148,1.2342,1.1689,1.1084,1.0687,1.0582,1.0088,0.9902,1.0244,0.9932,0.9813,0.9913,0.9804,0.9813,0.9952,1.004,1.0157,1.038,1.0971,1.1378,1.1682,1.2125,1.2599,0.0,0.0,0.0,0.0,0.0,0.0,0.0,0.0,0.0,0.0,0.0,0.0,0.0,0.0,0.0,0.0,0.0,0.0,0.0,2.0197,2.0238,2.0253,2.0253,2.0294,2.0365,2.0383,2.0653,2.1251,2.1611,2.2043,2.2598,2.3233,2.3653,2.3867,2.4408,2.4774,2.4908,2.5058,2.5111,2.5076,2.4966,2.4898,2.4823,2.4768,2.4242,2.3371,2.275,2.268,2.2994,2.2629,2.3144,2.4228,2.4247,2.4266,2.4247,2.4135,2.3959,2.3774,2.3567,2.3112,2.2593,2.2534,2.2134,2.153,2.0827,1.997,1.9062,1.8216,1.7348,1.6665,1.6421,1.6328,1.6191,1.5797,1.561,1.5492,1.5418,1.5551,1.5652,1.5651,1.533,1.5015,1.497,1.4596,1.4227,1.4,1.4013,1.3894,1.3493,1.2931,1.2425,1.221,1.149,1.0975,1.0926,1.0631,1.04,1.0322,1.0205,1.0098,0.998,0.9941,1.0019,1.0205,1.0351,1.0467,1.0544,1.0954,1.1542,1.221,1.2222,1.2709,0.0,0.0,0.0,0.0,0.0,0.0,0.0,0.0,0.0,0.0,0.0,0.0,0.0,0.0,0.0,0.0,0.0,0.0,0.0,2.0313,2.034,2.0341,2.0321,2.0359,2.0399,2.042,2.0686,2.1315,2.1629,0.0,2.3045,2.3354,2.3852,2.4644,2.4606,2.4786,2.5262,2.5164,2.5082,2.5025,2.4926,2.487,2.4794,2.4738,2.4091,2.303,2.3269,2.3268,2.3134,2.3101,2.3564,2.4321,2.4358,2.4358,2.4284,2.421,2.4037,2.3834,2.3526,2.3106,2.2688,2.273,2.2407,2.1874,2.1194,2.0317,1.9312,1.8254,1.7279,1.6501,1.6328,1.6123,1.5898,1.5536,1.5254,1.5086,1.5117,1.5284,1.5374,1.5316,1.5045,1.4766,1.4533,1.4246,1.3967,1.3749,1.3795,1.3728,1.3369,1.2965,1.2603,1.2425,1.1785,1.1362,1.1325,1.0964,1.0697,1.0544,1.04,1.0283,1.0205,1.0205,1.0244,1.039,1.0725,1.0954,1.1029,1.1191,1.1638,1.227,1.2246,1.265,0.0,0.0,0.0,0.0,0.0,0.0,1.656,0.0,1.9022,0.0,0.0,0.0,0.0,0.0,0.0,0.0,0.0,0.0,0.0,2.0408,2.0394,2.0396,2.0404,2.04,2.04,2.0463,2.0515,2.0536,2.1323,2.2187,2.3056,2.3839,2.4588,2.5298,2.5252,2.5197,2.5154,2.5106,2.5063,2.5101,2.494,2.4851,2.4794,2.4719,2.3806,2.2328,2.303,2.3268,2.3165,2.3182,2.3633,2.4284,2.4376,2.4358,2.4284,2.4152,2.4056,2.3955,2.3458,2.2747,2.2113,2.2548,2.2038,2.123,2.1204,2.0381,1.9252,1.8355,1.7353,1.6501,1.6262,1.5898,1.5551,1.5418,1.5088,1.4808,1.4808,1.4904,1.5013,1.5074,1.4873,1.4655,1.4501,1.4278,1.413,1.4254,1.4111,1.3868,1.3514,1.3229,1.2849,1.2282,1.1957,1.176,1.1719,1.1078,1.0791,1.0981,1.0534,1.039,1.0582,1.0582,1.0621,1.0621,1.1217,1.1664,1.1909,1.1771,1.1756,1.1856,1.2317,1.2556,1.5321,0.0,0.0,0.0,0.0,0.0,1.5668,1.6514,1.7466,0.0,0.0,0.0,0.0,0.0,0.0,0.0,0.0,0.0,0.0,0.0,2.0472,2.0476,2.0476,2.0467,2.0467,2.0494,2.0769,0.0,2.166,2.2177,2.3052,2.3222,2.3373,2.3597,2.3482,2.3707,2.433,2.4209,2.4442,2.5025,2.4339,2.4308,2.4768,2.414,2.3251,2.2285,2.3612,2.3473,2.2386,2.2961,2.3618,2.4247,2.4412,2.4339,2.4152,2.417,2.4191,2.4136,2.362,2.332,2.3106,2.2865,2.2495,2.2007,2.1275,2.0559,1.9773,1.876,1.8,1.7329,1.6606,1.5909,1.5298,1.5041,1.4887,1.4808,1.4746,1.4794,1.4811,1.469,1.4641,1.4547,1.4246,1.4046,1.3841,1.3749,1.3715,1.3535,1.3138,1.2965,1.2756,1.2365,1.1909,1.1675,1.1682,1.105,1.0659,1.0725,1.0351,1.0166,1.0235,1.0467,1.0764,1.1094,1.1689,1.209,1.2318,1.1993,1.2318,1.3267,1.3561,1.3382,0.0,0.0,0.0,0.0,0.0,0.0,1.5303,1.6,1.6772,0.0,1.8066,0.0,0.0,0.0,0.0,0.0,0.0,0.0,0.0,0.0,2.0494,2.0494,2.0509,2.0497,2.0497,2.0494,2.0701,2.121,2.1263,2.1633,2.2462,2.2763,2.2881,2.2855,2.2774,2.2949,2.3407,2.3694,2.3883,2.4011,2.3803,2.3898,2.4245,2.3701,2.2982,2.2241,2.3754,2.35,2.2089,2.3287,2.3949,2.4209,2.4358,2.4357,2.4266,2.4191,2.432,2.4437,2.3862,2.3653,2.3577,2.3093,2.2738,2.2307,2.1532,2.073,1.9945,1.909,1.8257,1.7461,1.6871,1.6305,1.5796,1.5285,1.509,1.5029,1.4996,1.4996,1.4921,1.4564,1.4533,1.447,1.4149,1.398,1.3848,1.3769,1.3682,1.3535,1.3242,1.3047,1.2803,1.2508,1.2174,1.1957,1.1918,1.1527,1.1244,1.1217,1.0981,1.084,1.0784,1.1105,1.1394,1.1542,1.2259,1.2638,1.2685,1.2389,1.272,1.3518,1.3604,1.3496,0.0,0.0,0.0,0.0,0.0,0.0,1.5307,1.5945,1.655,1.6589,1.727,0.0,0.0,0.0,0.0,0.0,0.0,0.0,0.0,0.0,2.0402,2.0494,2.0504,2.0511,2.0494,2.0501,2.0507,2.0503,2.049,2.0805,2.1521,2.2236,2.2588,2.2532,2.2516,2.2508,2.2467,2.3236,2.3271,2.262,2.3158,2.3445,2.3512,2.3244,2.2734,2.2178,2.3561,2.3323,2.211,2.3854,2.4426,2.4209,2.4321,2.4425,2.4439,2.4192,2.4368,2.4637,2.4043,2.3744,2.3599,2.3252,2.2762,2.2241,2.1811,2.0884,1.9898,1.9334,1.8257,1.7238,1.7085,1.6919,1.6586,1.5894,1.5607,1.5477,1.5419,1.5374,1.5211,1.4738,1.4645,1.4582,1.436,1.4222,1.4118,1.4163,1.3954,1.3747,1.3594,1.3323,1.3025,1.2673,1.2627,1.252,1.2318,1.2257,1.2196,1.2113,1.1909,1.1822,1.1745,1.2102,1.2223,1.2079,1.2859,1.3195,1.3035,1.2943,1.299,1.3107,1.3047,1.3242,0.0,0.0,0.0,0.0,0.0,0.0,1.5289,1.5442,1.5769,0.0,1.6793,0.0,0.0,0.0,0.0,0.0,0.0,0.0,0.0,0.0,0.0,2.05,2.0583,2.0566,2.0508,2.0546,2.0559,2.0494,2.0445,2.0492,2.0654,2.0752,2.0797,2.0792,2.0734,2.1005,2.1627,2.1757,2.2078,2.2585,2.1976,2.2363,2.3535,2.206,2.1618,2.2064,2.2901,2.2684,2.1893,2.3634,2.4266,2.4171,2.4666,2.4613,2.4246,2.4155,2.4207,2.4223,2.3486,2.33,2.3298,2.2857,2.2315,2.1814,2.1591,2.0812,1.9888,1.929,1.8445,1.7642,1.7451,1.6938,1.6385,1.6031,1.5933,1.5877,1.5635,1.5679,1.5709,1.5492,1.5506,1.5607,1.5764,1.5341,1.4894,1.4686,1.4466,1.4123,1.351,1.3425,1.3323,1.3025,1.324,1.3265,1.2955,1.2669,1.243,1.2197,1.1664,1.1531,1.1911,1.2152,1.2543,1.3088,1.3576,1.3822,1.3802,1.3661,1.3438,1.3107,1.3506,1.3741,0.0,0.0,0.0,1.5101,0.0,0.0,0.0,1.5284,1.5426,1.5894,1.6038,0.0,0.0,0.0,0.0,0.0,0.0,0.0,0.0,0.0,0.0,2.0449,2.0546,2.0544,2.0498,2.0533,2.0519,2.0457,2.042,2.0396,2.0398,2.0346,2.0311,2.0308,2.0241,2.0399,2.0803,2.1168,2.1337,2.1356,2.129,2.1859,2.2924,2.1976,2.199,2.278,2.336,2.3179,2.2597,2.3884,2.4301,2.4173,2.4522,2.4452,2.4118,2.389,2.4026,2.4238,2.3516,2.3338,2.3347,2.2728,2.2087,2.1517,2.0995,2.0207,1.9363,1.8986,1.8492,1.8013,1.7885,1.7505,1.7052,1.6648,1.6517,1.6438,1.6246,1.6251,1.6347,1.6544,1.6586,1.6454,1.6102,1.5743,1.5406,1.5149,1.5189,1.4965,1.4027,1.4065,1.396,1.3348,1.3446,1.3538,1.3456,1.3168,1.2974,1.2889,1.2555,1.2366,1.2401,1.2951,1.3408,1.3802,1.3848,1.3848,1.3802,1.3808,1.3586,1.3163,1.356,1.3828,0.0,0.0,0.0,0.0,0.0,1.5139,0.0,0.0,0.0,0.0,0.0,0.0,0.0,0.0,0.0,0.0,0.0,0.0,0.0,0.0,0.0,2.0334,2.0338,2.0313,2.0467,2.0483,2.0464,2.0395,2.0394,2.0404,2.0405,2.0334,2.0308,2.0304,2.0227,2.0195,2.018,2.0824,2.0804,2.0107,2.076,2.1505,2.2308,2.1932,2.2383,2.3507,2.3735,2.3661,2.3405,2.4207,2.4454,2.4284,2.442,2.4368,2.4173,2.3808,2.3932,2.4238,2.353,2.3263,2.3081,2.2422,2.1731,2.101,2.0203,1.9435,1.8825,1.8698,1.8506,1.8301,1.8383,1.8151,1.7828,1.7485,1.7224,1.7027,1.6944,1.6885,1.6986,1.7392,1.7408,1.7076,1.632,1.6139,1.5945,1.5536,1.5821,1.5702,1.4694,1.4728,1.4606,1.389,1.3908,1.3989,1.3999,1.3943,1.3907,1.3914,1.3672,1.344,1.3161,1.3847,1.4289,1.4397,1.4007,1.3827,1.3885,1.3793,1.3573,1.3267,1.3547,1.3802,0.0,0.0,0.0,0.0,1.6012,0.0,0.0,0.0,1.5231,1.5294,0.0,0.0,0.0,0.0,0.0,0.0,0.0,0.0,1.6527,0.0,1.8422,2.0119,1.9741,1.9636,2.0337,2.04,2.041,2.0399,2.0402,2.041,2.0404,2.0341,2.0308,2.0304,2.0227,2.0178,2.0107,2.0203,2.0212,2.0107,2.0131,2.0937,2.2331,2.0838,2.1381,2.346,2.2803,2.2873,2.3547,2.4406,2.467,2.4588,2.4956,2.491,2.4607,2.4383,2.4045,2.3619,2.3136,2.2419,2.1697,2.1556,2.079,1.9797,1.9291,1.8896,1.8623,1.8622,1.8465,1.8412,1.8955,1.85,1.8031,1.8504,1.8057,1.7502,1.7439,1.7415,1.7415,1.7408,1.7455,1.7415,1.7248,1.7157,1.682,1.587,1.5901,1.5797,1.5189,1.4864,1.4754,1.4883,1.5336,1.5398,1.4805,1.5298,1.5452,1.5119,1.4262,1.3961,1.4388,1.4326,1.4577,1.5162,1.4339,1.4192,1.4833,1.401,1.3547,1.3459,1.3802,1.3967,0.0,0.0,0.0,0.0,0.0,0.0,1.5472,0.0,1.5215,0.0,0.0,0.0,0.0,0.0,0.0,0.0,1.5292,0.0,0.0,0.0,1.6868,0.0,0.0,0.0,2.0349,1.9908,1.9806,2.0302,1.9914,1.9842,2.0328,2.0359,2.0347,2.0301,2.0269,2.0249,2.0216,2.0604,2.0823,2.0852,2.1214,2.1972,2.3008,2.2316,2.2841,2.4288,2.3832,2.3906,2.4391,2.4674,2.4762,2.4737,2.5031,2.4828,2.4319,2.4174,2.3987,2.3697,2.2812,2.2299,2.1852,2.0743,1.992,1.9362,1.9487,1.909,1.869,1.9072,1.9007,1.8896,1.9228,1.8939,1.8608,1.8914,1.8674,1.8367,1.8373,1.835,1.8326,1.8437,1.8397,1.835,1.8279,1.7757,1.7103,1.6378,1.6773,1.6684,1.5375,1.5809,1.5765,1.4601,1.5225,1.5641,1.5402,1.5527,1.5685,1.5931,1.5222,1.495,1.5326,1.5313,1.5208,1.5079,1.5034,1.4791,1.4406,1.4651,1.438,1.3674,1.3749,1.3999,1.9937,0.0,0.0,0.0,0.0,0.0,0.0,0.0,0.0,0.0,0.0,0.0,0.0,0.0,0.0,0.0,0.0,1.5413,0.0,0.0,0.0,0.0,0.0,0.0,0.0,1.9271,1.92,1.958,0.0,1.9599,1.9948,2.0249,2.0359,2.0282,2.0269,2.026,2.0244,2.0948,2.1317,2.1346,2.2064,2.2797,2.3479,2.3272,2.3776,2.4831,2.4478,2.4582,2.503,2.4858,2.4818,2.4891,2.5032,2.4775,2.4301,2.421,2.4118,2.3874,2.2715,2.2052,2.1478,2.0018,1.9308,1.9109,1.9505,1.914,1.8667,1.9132,1.9096,1.8967,1.9245,1.9007,1.8767,1.9018,1.9011,1.8988,1.9035,1.9011,1.9028,1.9167,1.895,1.8728,1.8636,1.8178,1.7609,1.694,1.7244,1.7046,1.5619,1.6179,1.6132,1.4593,1.5095,1.5575,1.566,1.563,1.5828,1.6323,1.6034,1.587,1.5858,1.5955,1.587,1.5493,1.5711,1.5533,1.4924,1.5229,1.495,1.4166,1.3916,1.4115,0.0,0.0,0.0,1.8278,0.0,0.0,0.0,0.0,1.5146,0.0,0.0,0.0,0.0,0.0,0.0,0.0,0.0,0.0,0.0,0.0,0.0,0.0,0.0,0.0,0.0,1.8575,1.8751,0.0,1.942,0.0,1.9179,1.9941,2.0334,2.0215,2.0195,2.0182,2.0117,2.0887,2.1274,2.121,2.2023,2.2776,2.3474,2.2695,2.3205,2.4674,2.3933,2.4195,2.5072,2.4891,2.4917,2.5072,2.5025,2.4959,2.4874,2.4865,2.4554,2.3952,2.2939,2.1437,1.9897,1.9305,1.9034,1.8913,1.8932,1.8731,1.8485,1.8461,1.8277,1.8297,1.895,1.8546,1.8121,1.8829,1.9035,1.911,1.919,1.919,1.919,1.919,1.8606,1.8104,1.7939,1.8443,1.8535,1.7602,1.6901,1.6353,1.6094,1.561,1.5324,1.5438,1.5353,1.5405,1.5583,1.5958,1.6177,1.619,1.6559,1.6485,1.5835,1.5991,1.6395,1.703,1.6349,1.6432,1.7279,1.564,1.4935,1.5135,1.4642,1.442,0.0,0.0,2.0132,1.9452,0.0,0.0,0.0,0.0,0.0,0.0,0.0,0.0,0.0,0.0,0.0,0.0,0.0,0.0,0.0,0.0,0.0,0.0,0.0,0.0,0.0,0.0,0.0,0.0,0.0,0.0,1.9014,1.9812,2.0238,2.0131,2.0125,2.0117,2.0098,2.0853,2.1218,2.1221,2.2507,2.3239,2.3446,2.3659,2.4086,2.462,2.432,2.4502,2.5031,2.491,2.4981,2.5172,2.5149,2.5088,2.5025,2.4926,2.476,2.4348,2.2757,2.1046,1.9508,1.9253,1.9097,1.9124,1.9561,1.9236,1.8804,1.9317,1.9219,1.904,1.939,1.9134,1.8973,1.9797,2.0045,2.0114,2.0114,2.0222,2.0171,1.9625,1.937,1.9216,1.9101,1.9286,1.9046,1.7887,1.7458,1.7133,1.6804,1.6378,1.5896,1.537,1.5863,1.6055,1.5696,1.6546,1.6984,1.6689,1.7234,1.7461,1.7193,1.7283,1.7227,1.6921,1.7124,1.7011,1.6463,1.6139,1.5675,1.5073,1.5144,1.532,2.2702,2.1914,0.0,2.0,1.8725,0.0,1.698,0.0,1.6432,0.0,0.0,0.0,0.0,0.0,0.0,0.0,0.0,0.0,0.0,1.5231,0.0,0.0,0.0,0.0,0.0,0.0,0.0,0.0,0.0,0.0,0.0,1.9769,2.0175,2.0097,2.0089,2.0059,2.0059,2.0808,2.119,2.1176,2.2461,2.3157,2.3353,2.3894,2.4284,2.4559,2.4476,2.4636,2.4955,2.4814,2.4929,2.5191,2.5172,2.5137,2.5095,2.5012,2.4534,2.3724,2.2462,2.0893,1.9409,1.9292,1.9198,1.9208,1.9597,1.9273,1.8896,1.9414,1.9323,1.9171,1.96,1.952,1.9577,2.0458,2.0933,2.1101,2.082,2.0894,2.0767,1.9926,1.9578,1.9404,1.9348,1.9365,1.9134,1.8398,1.7961,1.76,1.7231,1.6905,1.6456,1.5807,1.6233,1.643,1.6077,1.7125,1.7726,1.7514,1.7918,1.824,1.8358,1.824,1.7942,1.7479,1.7863,1.7685,1.6991,1.6892,1.6566,1.6005,1.6027,1.6232]}]]